Wetterdaten: Montag, 29.08.2016
Datum Zeit Temp. A. Feuchte A. Luftdruck Regen Wind Richtung Richtung Sonnenschein ET UV Solar Taupunkt Windchill Windben Empfang
29.08.2016 00:00 21,8 C 82 % 1014,1 hPa 0,0 l/m 6,2 km/h (2 Bft) S 188 0 min 0,000 mm 0,0 UV-I 0 W/m 18,6 C 21,8 C 9,7 km/h (2 Bft) 100,00 %
29.08.2016 00:02 21,8 C 82 % 1014,1 hPa 0,0 l/m 6,4 km/h (2 Bft) S-SW 205 0 min 0,000 mm 0,0 UV-I 0 W/m 18,6 C 21,8 C 6,4 km/h (2 Bft) 100,00 %
29.08.2016 00:04 21,8 C 82 % 1014,1 hPa 0,0 l/m 5,1 km/h (1 Bft) S 169 0 min 0,000 mm 0,0 UV-I 0 W/m 18,6 C 21,8 C 8,0 km/h (2 Bft) 95,83 %
29.08.2016 00:06 21,8 C 82 % 1014,1 hPa 0,0 l/m 5,3 km/h (1 Bft) S-SW 192 0 min 0,000 mm 0,0 UV-I 0 W/m 18,6 C 21,8 C 8,0 km/h (2 Bft) 97,73 %
29.08.2016 00:08 21,8 C 82 % 1014,1 hPa 0,0 l/m 6,5 km/h (2 Bft) S 186 0 min 0,000 mm 0,0 UV-I 0 W/m 18,6 C 21,8 C 8,0 km/h (2 Bft) 98,00 %
29.08.2016 00:10 21,9 C 81 % 1014,1 hPa 0,0 l/m 5,6 km/h (1 Bft) S-SW 206 0 min 0,000 mm 0,0 UV-I 0 W/m 18,5 C 21,9 C 9,7 km/h (2 Bft) 95,74 %
29.08.2016 00:12 21,9 C 81 % 1014,2 hPa 0,0 l/m 4,4 km/h (1 Bft) S-SW 210 0 min 0,000 mm 0,0 UV-I 0 W/m 18,5 C 21,9 C 6,4 km/h (2 Bft) 97,87 %
29.08.2016 00:14 21,8 C 82 % 1014,2 hPa 0,0 l/m 4,6 km/h (1 Bft) SW 215 0 min 0,000 mm 0,0 UV-I 0 W/m 18,6 C 21,8 C 6,4 km/h (2 Bft) 97,87 %
29.08.2016 00:16 21,8 C 82 % 1014,2 hPa 0,0 l/m 3,7 km/h (1 Bft) SW 215 0 min 0,000 mm 0,0 UV-I 0 W/m 18,6 C 21,8 C 6,4 km/h (2 Bft) 98,00 %
29.08.2016 00:18 21,8 C 82 % 1014,2 hPa 0,0 l/m 3,5 km/h (1 Bft) SW 215 0 min 0,000 mm 0,0 UV-I 0 W/m 18,6 C 21,8 C 6,4 km/h (2 Bft) 97,87 %
29.08.2016 00:20 21,7 C 82 % 1014,2 hPa 0,0 l/m 4,3 km/h (1 Bft) SW 215 0 min 0,000 mm 0,0 UV-I 0 W/m 18,5 C 21,7 C 6,4 km/h (2 Bft) 97,37 %
29.08.2016 00:22 21,7 C 82 % 1014,1 hPa 0,0 l/m 4,8 km/h (1 Bft) S-SW 213 0 min 0,000 mm 0,0 UV-I 0 W/m 18,5 C 21,7 C 6,4 km/h (2 Bft) 97,87 %
29.08.2016 00:24 21,7 C 82 % 1014,1 hPa 0,0 l/m 5,8 km/h (2 Bft) S-SW 193 0 min 0,000 mm 0,0 UV-I 0 W/m 18,5 C 21,7 C 8,0 km/h (2 Bft) 97,87 %
29.08.2016 00:26 21,7 C 82 % 1014,1 hPa 0,0 l/m 5,5 km/h (1 Bft) S-SW 192 0 min 0,000 mm 0,0 UV-I 0 W/m 18,5 C 21,7 C 6,4 km/h (2 Bft) 97,92 %
29.08.2016 00:28 21,6 C 82 % 1014,0 hPa 0,0 l/m 5,8 km/h (2 Bft) S-SW 203 0 min 0,000 mm 0,0 UV-I 0 W/m 18,4 C 21,6 C 8,0 km/h (2 Bft) 95,74 %
29.08.2016 00:30 21,6 C 82 % 1014,1 hPa 0,0 l/m 5,2 km/h (1 Bft) SW 223 0 min 0,000 mm 0,0 UV-I 0 W/m 18,4 C 21,6 C 6,4 km/h (2 Bft) 97,87 %
29.08.2016 00:32 21,6 C 83 % 1014,1 hPa 0,0 l/m 4,0 km/h (1 Bft) SW 223 0 min 0,000 mm 0,0 UV-I 0 W/m 18,6 C 21,6 C 4,8 km/h (1 Bft) 97,87 %
29.08.2016 00:34 21,6 C 83 % 1014,1 hPa 0,0 l/m 4,7 km/h (1 Bft) SW 219 0 min 0,000 mm 0,0 UV-I 0 W/m 18,6 C 21,6 C 6,4 km/h (2 Bft) 97,87 %
29.08.2016 00:36 21,6 C 83 % 1014,1 hPa 0,0 l/m 5,1 km/h (1 Bft) S-SW 213 0 min 0,000 mm 0,0 UV-I 0 W/m 18,6 C 21,6 C 8,0 km/h (2 Bft) 98,00 %
29.08.2016 00:38 21,5 C 83 % 1014,1 hPa 0,0 l/m 7,4 km/h (2 Bft) S-SW 207 0 min 0,000 mm 0,0 UV-I 0 W/m 18,5 C 21,1 C 9,7 km/h (2 Bft) 97,87 %
29.08.2016 00:40 21,5 C 83 % 1014,1 hPa 0,0 l/m 6,6 km/h (2 Bft) SW 219 0 min 0,000 mm 0,0 UV-I 0 W/m 18,5 C 21,4 C 9,7 km/h (2 Bft) 97,87 %
29.08.2016 00:42 21,4 C 83 % 1014,1 hPa 0,0 l/m 6,3 km/h (2 Bft) SW 216 0 min 0,000 mm 0,0 UV-I 0 W/m 18,4 C 21,4 C 8,0 km/h (2 Bft) 100,00 %
29.08.2016 00:44 21,4 C 83 % 1014,0 hPa 0,0 l/m 5,4 km/h (1 Bft) SW 217 0 min 0,000 mm 0,0 UV-I 0 W/m 18,4 C 21,4 C 8,0 km/h (2 Bft) 97,87 %
29.08.2016 00:46 21,4 C 83 % 1014,1 hPa 0,0 l/m 7,3 km/h (2 Bft) SW 227 0 min 0,000 mm 0,0 UV-I 0 W/m 18,4 C 21,1 C 9,7 km/h (2 Bft) 97,87 %
29.08.2016 00:48 21,3 C 83 % 1014,0 hPa 0,0 l/m 5,0 km/h (1 Bft) S-SW 211 0 min 0,000 mm 0,0 UV-I 0 W/m 18,3 C 21,3 C 6,4 km/h (2 Bft) 97,87 %
29.08.2016 00:50 21,3 C 83 % 1014,0 hPa 0,0 l/m 6,6 km/h (2 Bft) SW 219 0 min 0,000 mm 0,0 UV-I 0 W/m 18,3 C 21,2 C 9,7 km/h (2 Bft) 97,87 %
29.08.2016 00:52 21,3 C 83 % 1014,0 hPa 0,0 l/m 5,9 km/h (2 Bft) SW 225 0 min 0,000 mm 0,0 UV-I 0 W/m 18,3 C 21,3 C 11,3 km/h (2 Bft) 100,00 %
29.08.2016 00:54 21,3 C 83 % 1014,0 hPa 0,0 l/m 5,4 km/h (1 Bft) S-SW 200 0 min 0,000 mm 0,0 UV-I 0 W/m 18,3 C 21,3 C 9,7 km/h (2 Bft) 100,00 %
29.08.2016 00:56 21,3 C 83 % 1014,0 hPa 0,0 l/m 5,6 km/h (1 Bft) S 178 0 min 0,000 mm 0,0 UV-I 0 W/m 18,3 C 21,3 C 9,7 km/h (2 Bft) 97,87 %
29.08.2016 00:58 21,4 C 83 % 1013,9 hPa 0,0 l/m 5,7 km/h (1 Bft) SW 219 0 min 0,000 mm 0,0 UV-I 0 W/m 18,4 C 21,4 C 8,0 km/h (2 Bft) 97,87 %
29.08.2016 01:00 21,4 C 83 % 1013,9 hPa 0,0 l/m 4,6 km/h (1 Bft) S-SW 201 0 min 0,000 mm 0,0 UV-I 0 W/m 18,4 C 21,4 C 4,8 km/h (1 Bft) 100,00 %
29.08.2016 01:01 21,4 C 83 % 1014,0 hPa 0,0 l/m 4,4 km/h (1 Bft) SW 222 0 min 0,025 mm 0,0 UV-I 0 W/m 18,4 C 21,4 C 6,4 km/h (2 Bft) 100,00 %
29.08.2016 01:04 21,5 C 83 % 1013,9 hPa 0,0 l/m 6,4 km/h (2 Bft) S-SW 205 0 min 0,000 mm 0,0 UV-I 0 W/m 18,5 C 21,5 C 9,7 km/h (2 Bft) 100,00 %
29.08.2016 01:06 21,5 C 82 % 1013,9 hPa 0,0 l/m 7,0 km/h (2 Bft) S-SW 207 0 min 0,000 mm 0,0 UV-I 0 W/m 18,3 C 21,3 C 9,7 km/h (2 Bft) 100,00 %
29.08.2016 01:08 21,5 C 82 % 1014,0 hPa 0,0 l/m 5,6 km/h (1 Bft) S-SW 211 0 min 0,000 mm 0,0 UV-I 0 W/m 18,3 C 21,5 C 8,0 km/h (2 Bft) 97,92 %
29.08.2016 01:10 21,5 C 82 % 1014,0 hPa 0,0 l/m 4,8 km/h (1 Bft) S-SW 205 0 min 0,000 mm 0,0 UV-I 0 W/m 18,3 C 21,5 C 8,0 km/h (2 Bft) 100,00 %
29.08.2016 01:12 21,5 C 83 % 1014,0 hPa 0,0 l/m 5,8 km/h (2 Bft) S-SW 206 0 min 0,000 mm 0,0 UV-I 0 W/m 18,5 C 21,5 C 9,7 km/h (2 Bft) 100,00 %
29.08.2016 01:14 21,4 C 83 % 1014,0 hPa 0,0 l/m 5,2 km/h (1 Bft) S-SW 198 0 min 0,000 mm 0,0 UV-I 0 W/m 18,4 C 21,4 C 8,0 km/h (2 Bft) 97,87 %
29.08.2016 01:16 21,4 C 83 % 1014,0 hPa 0,0 l/m 5,8 km/h (2 Bft) S-SW 205 0 min 0,000 mm 0,0 UV-I 0 W/m 18,4 C 21,4 C 9,7 km/h (2 Bft) 100,00 %
29.08.2016 01:18 21,4 C 83 % 1014,0 hPa 0,0 l/m 5,9 km/h (2 Bft) SW 223 0 min 0,000 mm 0,0 UV-I 0 W/m 18,4 C 21,4 C 8,0 km/h (2 Bft) 98,00 %
29.08.2016 01:20 21,4 C 83 % 1013,9 hPa 0,0 l/m 5,5 km/h (1 Bft) S-SW 203 0 min 0,000 mm 0,0 UV-I 0 W/m 18,4 C 21,4 C 8,0 km/h (2 Bft) 98,00 %
29.08.2016 01:22 21,4 C 83 % 1013,9 hPa 0,0 l/m 7,2 km/h (2 Bft) SW 215 0 min 0,000 mm 0,0 UV-I 0 W/m 18,4 C 21,1 C 11,3 km/h (2 Bft) 100,00 %
29.08.2016 01:24 21,4 C 83 % 1013,9 hPa 0,0 l/m 7,1 km/h (2 Bft) S-SW 205 0 min 0,000 mm 0,0 UV-I 0 W/m 18,4 C 21,1 C 11,3 km/h (2 Bft) 100,00 %
29.08.2016 01:26 21,5 C 82 % 1013,9 hPa 0,0 l/m 6,2 km/h (2 Bft) S-SW 199 0 min 0,000 mm 0,0 UV-I 0 W/m 18,3 C 21,5 C 9,7 km/h (2 Bft) 98,00 %
29.08.2016 01:28 21,5 C 82 % 1013,9 hPa 0,0 l/m 7,2 km/h (2 Bft) SW 219 0 min 0,000 mm 0,0 UV-I 0 W/m 18,3 C 21,2 C 11,3 km/h (2 Bft) 100,00 %
29.08.2016 01:30 21,5 C 82 % 1013,9 hPa 0,0 l/m 7,1 km/h (2 Bft) S-SW 211 0 min 0,000 mm 0,0 UV-I 0 W/m 18,3 C 21,2 C 11,3 km/h (2 Bft) 100,00 %
29.08.2016 01:32 21,5 C 82 % 1013,9 hPa 0,0 l/m 6,2 km/h (2 Bft) SW 214 0 min 0,000 mm 0,0 UV-I 0 W/m 18,3 C 21,5 C 8,0 km/h (2 Bft) 100,00 %
29.08.2016 01:34 21,5 C 82 % 1013,8 hPa 0,0 l/m 6,0 km/h (2 Bft) S-SW 204 0 min 0,000 mm 0,0 UV-I 0 W/m 18,3 C 21,5 C 9,7 km/h (2 Bft) 97,87 %
29.08.2016 01:36 21,5 C 82 % 1013,8 hPa 0,0 l/m 7,4 km/h (2 Bft) S 188 0 min 0,000 mm 0,0 UV-I 0 W/m 18,3 C 21,1 C 9,7 km/h (2 Bft) 100,00 %
29.08.2016 01:38 21,4 C 83 % 1013,8 hPa 0,0 l/m 5,3 km/h (1 Bft) S-SW 202 0 min 0,000 mm 0,0 UV-I 0 W/m 18,4 C 21,4 C 8,0 km/h (2 Bft) 100,00 %
29.08.2016 01:40 21,4 C 83 % 1013,8 hPa 0,0 l/m 5,8 km/h (2 Bft) S-SW 205 0 min 0,000 mm 0,0 UV-I 0 W/m 18,4 C 21,4 C 9,7 km/h (2 Bft) 100,00 %
29.08.2016 01:42 21,4 C 83 % 1013,7 hPa 0,0 l/m 5,6 km/h (1 Bft) S-SW 212 0 min 0,000 mm 0,0 UV-I 0 W/m 18,4 C 21,4 C 8,0 km/h (2 Bft) 100,00 %
29.08.2016 01:44 21,4 C 83 % 1013,7 hPa 0,0 l/m 5,2 km/h (1 Bft) S-SW 210 0 min 0,000 mm 0,0 UV-I 0 W/m 18,4 C 21,4 C 8,0 km/h (2 Bft) 97,22 %
29.08.2016 01:46 21,4 C 83 % 1013,7 hPa 0,0 l/m 4,8 km/h (1 Bft) S-SW 198 0 min 0,000 mm 0,0 UV-I 0 W/m 18,4 C 21,4 C 8,0 km/h (2 Bft) 100,00 %
29.08.2016 01:48 21,3 C 83 % 1013,7 hPa 0,0 l/m 6,7 km/h (2 Bft) S-SW 203 0 min 0,000 mm 0,0 UV-I 0 W/m 18,3 C 21,2 C 9,7 km/h (2 Bft) 100,00 %
29.08.2016 01:50 21,3 C 83 % 1013,7 hPa 0,0 l/m 5,4 km/h (1 Bft) S-SW 196 0 min 0,000 mm 0,0 UV-I 0 W/m 18,3 C 21,3 C 8,0 km/h (2 Bft) 100,00 %
29.08.2016 01:52 21,3 C 83 % 1013,7 hPa 0,0 l/m 5,5 km/h (1 Bft) SW 215 0 min 0,000 mm 0,0 UV-I 0 W/m 18,3 C 21,3 C 8,0 km/h (2 Bft) 100,00 %
29.08.2016 01:54 21,3 C 84 % 1013,7 hPa 0,0 l/m 6,7 km/h (2 Bft) S-SW 213 0 min 0,000 mm 0,0 UV-I 0 W/m 18,5 C 21,2 C 9,7 km/h (2 Bft) 100,00 %
29.08.2016 01:56 21,2 C 84 % 1013,7 hPa 0,0 l/m 5,9 km/h (2 Bft) S-SW 204 0 min 0,000 mm 0,0 UV-I 0 W/m 18,4 C 21,2 C 8,0 km/h (2 Bft) 100,00 %
29.08.2016 01:58 21,2 C 84 % 1013,8 hPa 0,0 l/m 5,2 km/h (1 Bft) S-SW 204 0 min 0,000 mm 0,0 UV-I 0 W/m 18,4 C 21,2 C 8,0 km/h (2 Bft) 100,00 %
29.08.2016 02:00 21,2 C 84 % 1013,8 hPa 0,0 l/m 5,3 km/h (1 Bft) S-SW 209 0 min 0,026 mm 0,0 UV-I 0 W/m 18,4 C 21,2 C 8,0 km/h (2 Bft) 98,00 %
29.08.2016 02:02 21,2 C 84 % 1013,8 hPa 0,0 l/m 5,2 km/h (1 Bft) S-SW 202 0 min 0,000 mm 0,0 UV-I 0 W/m 18,4 C 21,2 C 8,0 km/h (2 Bft) 94,29 %
29.08.2016 02:04 21,2 C 84 % 1013,9 hPa 0,0 l/m 6,1 km/h (2 Bft) S-SW 213 0 min 0,000 mm 0,0 UV-I 0 W/m 18,4 C 21,2 C 9,7 km/h (2 Bft) 98,00 %
29.08.2016 02:06 21,2 C 84 % 1013,9 hPa 0,0 l/m 5,8 km/h (2 Bft) S-SW 211 0 min 0,000 mm 0,0 UV-I 0 W/m 18,4 C 21,2 C 8,0 km/h (2 Bft) 95,74 %
29.08.2016 02:08 21,2 C 84 % 1013,9 hPa 0,0 l/m 4,9 km/h (1 Bft) SW 221 0 min 0,000 mm 0,0 UV-I 0 W/m 18,4 C 21,2 C 8,0 km/h (2 Bft) 98,00 %
29.08.2016 02:10 21,2 C 84 % 1013,9 hPa 0,0 l/m 4,7 km/h (1 Bft) S-SW 212 0 min 0,000 mm 0,0 UV-I 0 W/m 18,4 C 21,2 C 8,0 km/h (2 Bft) 89,36 %
29.08.2016 02:12 21,2 C 84 % 1013,9 hPa 0,0 l/m 4,5 km/h (1 Bft) S-SW 207 0 min 0,000 mm 0,0 UV-I 0 W/m 18,4 C 21,2 C 8,0 km/h (2 Bft) 95,83 %
29.08.2016 02:14 21,2 C 84 % 1013,9 hPa 0,0 l/m 4,7 km/h (1 Bft) SW 219 0 min 0,000 mm 0,0 UV-I 0 W/m 18,4 C 21,2 C 8,0 km/h (2 Bft) 98,00 %
29.08.2016 02:16 21,2 C 84 % 1013,9 hPa 0,0 l/m 5,3 km/h (1 Bft) S 190 0 min 0,000 mm 0,0 UV-I 0 W/m 18,4 C 21,2 C 8,0 km/h (2 Bft) 97,87 %
29.08.2016 02:18 21,2 C 84 % 1014,0 hPa 0,0 l/m 5,0 km/h (1 Bft) S-SW 205 0 min 0,000 mm 0,0 UV-I 0 W/m 18,4 C 21,2 C 8,0 km/h (2 Bft) 97,87 %
29.08.2016 02:20 21,2 C 84 % 1014,0 hPa 0,0 l/m 4,7 km/h (1 Bft) S 173 0 min 0,000 mm 0,0 UV-I 0 W/m 18,4 C 21,2 C 8,0 km/h (2 Bft) 97,37 %
29.08.2016 02:22 21,2 C 84 % 1014,0 hPa 0,0 l/m 4,3 km/h (1 Bft) S-SW 204 0 min 0,000 mm 0,0 UV-I 0 W/m 18,4 C 21,2 C 6,4 km/h (2 Bft) 97,92 %
29.08.2016 02:24 21,2 C 84 % 1014,0 hPa 0,0 l/m 3,4 km/h (1 Bft) S-SW 196 0 min 0,000 mm 0,0 UV-I 0 W/m 18,4 C 21,2 C 4,8 km/h (1 Bft) 95,74 %
29.08.2016 02:26 21,2 C 84 % 1014,0 hPa 0,0 l/m 3,0 km/h (1 Bft) S-SW 194 0 min 0,000 mm 0,0 UV-I 0 W/m 18,4 C 21,2 C 4,8 km/h (1 Bft) 95,83 %
29.08.2016 02:28 21,2 C 84 % 1014,0 hPa 0,0 l/m 2,6 km/h (1 Bft) S 184 0 min 0,000 mm 0,0 UV-I 0 W/m 18,4 C 21,2 C 4,8 km/h (1 Bft) 95,74 %
29.08.2016 02:30 21,2 C 84 % 1014,1 hPa 0,0 l/m 3,1 km/h (1 Bft) S-SO 162 0 min 0,000 mm 0,0 UV-I 0 W/m 18,4 C 21,2 C 6,4 km/h (2 Bft) 95,74 %
29.08.2016 02:32 21,2 C 84 % 1014,1 hPa 0,0 l/m 2,8 km/h (1 Bft) S-SO 160 0 min 0,000 mm 0,0 UV-I 0 W/m 18,4 C 21,2 C 6,4 km/h (2 Bft) 100,00 %
29.08.2016 02:34 21,2 C 84 % 1014,1 hPa 0,0 l/m 2,7 km/h (1 Bft) S-SO 160 0 min 0,000 mm 0,0 UV-I 0 W/m 18,4 C 21,2 C 6,4 km/h (2 Bft) 100,00 %
29.08.2016 02:36 21,2 C 84 % 1014,1 hPa 0,0 l/m 0,8 km/h (0 Bft) S-SO 160 0 min 0,000 mm 0,0 UV-I 0 W/m 18,4 C 21,2 C 3,2 km/h (1 Bft) 100,00 %
29.08.2016 02:38 21,2 C 84 % 1014,1 hPa 0,0 l/m 2,4 km/h (1 Bft) S-SO 162 0 min 0,000 mm 0,0 UV-I 0 W/m 18,4 C 21,2 C 6,4 km/h (2 Bft) 100,00 %
29.08.2016 02:40 21,2 C 84 % 1014,1 hPa 0,0 l/m 1,4 km/h (1 Bft) S-SO 162 0 min 0,000 mm 0,0 UV-I 0 W/m 18,4 C 21,2 C 1,6 km/h (1 Bft) 100,00 %
29.08.2016 02:42 21,2 C 84 % 1014,1 hPa 0,0 l/m 1,4 km/h (1 Bft) S-SO 162 0 min 0,000 mm 0,0 UV-I 0 W/m 18,4 C 21,2 C 3,2 km/h (1 Bft) 100,00 %
29.08.2016 02:44 21,2 C 84 % 1014,1 hPa 0,0 l/m 0,9 km/h (0 Bft) S-SO 162 0 min 0,000 mm 0,0 UV-I 0 W/m 18,4 C 21,2 C 3,2 km/h (1 Bft) 98,00 %
29.08.2016 02:46 21,2 C 84 % 1014,1 hPa 0,0 l/m 0,2 km/h (0 Bft) S-SO 162 0 min 0,000 mm 0,0 UV-I 0 W/m 18,4 C 21,2 C 1,6 km/h (1 Bft) 97,87 %
29.08.2016 02:48 21,2 C 84 % 1014,1 hPa 0,0 l/m 0,0 km/h (0 Bft) S-SO 162 0 min 0,000 mm 0,0 UV-I 0 W/m 18,4 C 21,2 C 0,0 km/h (0 Bft) 100,00 %
29.08.2016 02:50 21,2 C 84 % 1014,1 hPa 0,0 l/m 0,0 km/h (0 Bft) S-SO 162 0 min 0,000 mm 0,0 UV-I 0 W/m 18,4 C 21,2 C 0,0 km/h (0 Bft) 100,00 %
29.08.2016 02:52 21,1 C 84 % 1014,2 hPa 0,0 l/m 0,8 km/h (0 Bft) S-SO 162 0 min 0,000 mm 0,0 UV-I 0 W/m 18,3 C 21,1 C 1,6 km/h (1 Bft) 100,00 %
29.08.2016 02:54 21,0 C 85 % 1014,1 hPa 0,0 l/m 0,0 km/h (0 Bft) S-SO 162 0 min 0,000 mm 0,0 UV-I 0 W/m 18,4 C 21,0 C 0,0 km/h (0 Bft) 95,74 %
29.08.2016 02:56 20,9 C 85 % 1014,2 hPa 0,0 l/m 0,3 km/h (0 Bft) S-SO 162 0 min 0,000 mm 0,0 UV-I 0 W/m 18,3 C 20,9 C 1,6 km/h (1 Bft) 97,87 %
29.08.2016 02:58 20,9 C 85 % 1014,2 hPa 0,0 l/m 1,2 km/h (1 Bft) S-SO 162 0 min 0,000 mm 0,0 UV-I 0 W/m 18,3 C 20,9 C 3,2 km/h (1 Bft) 97,87 %
29.08.2016 03:00 20,8 C 86 % 1014,1 hPa 0,0 l/m 2,0 km/h (1 Bft) S 178 0 min 0,000 mm 0,0 UV-I 0 W/m 18,4 C 20,8 C 3,2 km/h (1 Bft) 100,00 %
29.08.2016 03:02 20,7 C 86 % 1014,2 hPa 0,0 l/m 2,5 km/h (1 Bft) W 279 0 min 0,000 mm 0,0 UV-I 0 W/m 18,3 C 20,7 C 4,8 km/h (1 Bft) 97,87 %
29.08.2016 03:04 20,7 C 86 % 1014,2 hPa 0,0 l/m 0,7 km/h (0 Bft) W 279 0 min 0,000 mm 0,0 UV-I 0 W/m 18,3 C 20,7 C 1,6 km/h (1 Bft) 97,87 %
29.08.2016 03:06 20,6 C 87 % 1014,2 hPa 0,0 l/m 0,8 km/h (0 Bft) W 279 0 min 0,000 mm 0,0 UV-I 0 W/m 18,4 C 20,6 C 3,2 km/h (1 Bft) 97,87 %
29.08.2016 03:08 20,6 C 87 % 1014,2 hPa 0,0 l/m 1,5 km/h (1 Bft) W-NW 302 0 min 0,000 mm 0,0 UV-I 0 W/m 18,4 C 20,6 C 4,8 km/h (1 Bft) 100,00 %
29.08.2016 03:10 20,5 C 87 % 1014,1 hPa 0,0 l/m 0,6 km/h (0 Bft) W-NW 302 0 min 0,000 mm 0,0 UV-I 0 W/m 18,3 C 20,5 C 3,2 km/h (1 Bft) 100,00 %
29.08.2016 03:12 20,5 C 87 % 1014,0 hPa 0,0 l/m 0,1 km/h (0 Bft) W-NW 302 0 min 0,000 mm 0,0 UV-I 0 W/m 18,3 C 20,5 C 1,6 km/h (1 Bft) 95,74 %
29.08.2016 03:14 20,6 C 87 % 1014,0 hPa 0,0 l/m 0,0 km/h (0 Bft) W-NW 302 0 min 0,000 mm 0,0 UV-I 0 W/m 18,4 C 20,6 C 0,0 km/h (0 Bft) 97,87 %
29.08.2016 03:16 20,6 C 87 % 1014,0 hPa 0,0 l/m 0,0 km/h (0 Bft) W-NW 302 0 min 0,000 mm 0,0 UV-I 0 W/m 18,4 C 20,6 C 1,6 km/h (1 Bft) 97,87 %
29.08.2016 03:18 20,6 C 87 % 1014,0 hPa 0,0 l/m 0,1 km/h (0 Bft) W-NW 302 0 min 0,000 mm 0,0 UV-I 0 W/m 18,4 C 20,6 C 1,6 km/h (1 Bft) 100,00 %
29.08.2016 03:20 20,6 C 87 % 1013,9 hPa 0,0 l/m 0,0 km/h (0 Bft) W-NW 302 0 min 0,000 mm 0,0 UV-I 0 W/m 18,4 C 20,6 C 0,0 km/h (0 Bft) 100,00 %
29.08.2016 03:22 20,6 C 87 % 1013,9 hPa 0,0 l/m 0,1 km/h (0 Bft) W-NW 302 0 min 0,000 mm 0,0 UV-I 0 W/m 18,4 C 20,6 C 1,6 km/h (1 Bft) 98,00 %
29.08.2016 03:24 20,6 C 86 % 1013,9 hPa 0,0 l/m 0,4 km/h (0 Bft) W-NW 302 0 min 0,000 mm 0,0 UV-I 0 W/m 18,2 C 20,6 C 1,6 km/h (1 Bft) 100,00 %
29.08.2016 03:26 20,6 C 86 % 1013,8 hPa 0,0 l/m 0,0 km/h (0 Bft) W-NW 302 0 min 0,000 mm 0,0 UV-I 0 W/m 18,2 C 20,6 C 0,0 km/h (0 Bft) 100,00 %
29.08.2016 03:28 20,6 C 87 % 1013,8 hPa 0,0 l/m 0,1 km/h (0 Bft) W-NW 302 0 min 0,000 mm 0,0 UV-I 0 W/m 18,4 C 20,6 C 1,6 km/h (1 Bft) 100,00 %
29.08.2016 03:30 20,6 C 87 % 1013,7 hPa 0,0 l/m 0,7 km/h (0 Bft) W-NW 302 0 min 0,000 mm 0,0 UV-I 0 W/m 18,4 C 20,6 C 3,2 km/h (1 Bft) 100,00 %
29.08.2016 03:32 20,6 C 87 % 1013,8 hPa 0,0 l/m 0,9 km/h (0 Bft) W-NW 302 0 min 0,000 mm 0,0 UV-I 0 W/m 18,4 C 20,6 C 1,6 km/h (1 Bft) 100,00 %
29.08.2016 03:34 20,6 C 87 % 1013,7 hPa 0,0 l/m 0,0 km/h (0 Bft) W-NW 302 0 min 0,000 mm 0,0 UV-I 0 W/m 18,4 C 20,6 C 0,0 km/h (0 Bft) 97,87 %
29.08.2016 03:36 20,5 C 88 % 1013,7 hPa 0,0 l/m 0,0 km/h (0 Bft) W-NW 302 0 min 0,000 mm 0,0 UV-I 0 W/m 18,4 C 20,5 C 0,0 km/h (0 Bft) 100,00 %
29.08.2016 03:38 20,4 C 88 % 1013,7 hPa 0,0 l/m 0,0 km/h (0 Bft) W-NW 302 0 min 0,000 mm 0,0 UV-I 0 W/m 18,3 C 20,4 C 0,0 km/h (0 Bft) 100,00 %
29.08.2016 03:40 20,4 C 88 % 1013,7 hPa 0,0 l/m 0,0 km/h (0 Bft) W-NW 302 0 min 0,000 mm 0,0 UV-I 0 W/m 18,3 C 20,4 C 0,0 km/h (0 Bft) 97,87 %
29.08.2016 03:42 20,3 C 88 % 1013,7 hPa 0,0 l/m 0,0 km/h (0 Bft) W-NW 302 0 min 0,000 mm 0,0 UV-I 0 W/m 18,2 C 20,3 C 0,0 km/h (0 Bft) 97,87 %
29.08.2016 03:44 20,2 C 88 % 1013,7 hPa 0,0 l/m 0,0 km/h (0 Bft) W-NW 302 0 min 0,000 mm 0,0 UV-I 0 W/m 18,1 C 20,2 C 0,0 km/h (0 Bft) 95,83 %
29.08.2016 03:46 20,2 C 89 % 1013,6 hPa 0,0 l/m 0,0 km/h (0 Bft) W-NW 302 0 min 0,000 mm 0,0 UV-I 0 W/m 18,3 C 20,2 C 0,0 km/h (0 Bft) 97,96 %
29.08.2016 03:48 20,1 C 89 % 1013,6 hPa 0,0 l/m 0,0 km/h (0 Bft) W-NW 302 0 min 0,000 mm 0,0 UV-I 0 W/m 18,2 C 20,1 C 0,0 km/h (0 Bft) 100,00 %
29.08.2016 03:50 20,1 C 89 % 1013,6 hPa 0,0 l/m 0,0 km/h (0 Bft) W-NW 302 0 min 0,000 mm 0,0 UV-I 0 W/m 18,2 C 20,1 C 0,0 km/h (0 Bft) 100,00 %
29.08.2016 03:52 20,1 C 89 % 1013,6 hPa 0,0 l/m 0,1 km/h (0 Bft) W-NW 302 0 min 0,000 mm 0,0 UV-I 0 W/m 18,2 C 20,1 C 1,6 km/h (1 Bft) 95,74 %
29.08.2016 03:54 20,1 C 89 % 1013,6 hPa 0,0 l/m 0,0 km/h (0 Bft) W-NW 302 0 min 0,000 mm 0,0 UV-I 0 W/m 18,2 C 20,1 C 0,0 km/h (0 Bft) 100,00 %
29.08.2016 03:56 20,1 C 89 % 1013,6 hPa 0,0 l/m 0,2 km/h (0 Bft) W-NW 302 0 min 0,000 mm 0,0 UV-I 0 W/m 18,2 C 20,1 C 1,6 km/h (1 Bft) 100,00 %
29.08.2016 03:58 20,1 C 89 % 1013,6 hPa 0,0 l/m 1,8 km/h (1 Bft) W-NW 302 0 min 0,000 mm 0,0 UV-I 0 W/m 18,2 C 20,1 C 3,2 km/h (1 Bft) 97,87 %
29.08.2016 04:00 20,1 C 89 % 1013,6 hPa 0,0 l/m 2,0 km/h (1 Bft) W-NW 302 0 min 0,000 mm 0,0 UV-I 0 W/m 18,2 C 20,1 C 3,2 km/h (1 Bft) 97,14 %
29.08.2016 04:02 20,1 C 89 % 1013,6 hPa 0,0 l/m 1,7 km/h (1 Bft) W-NW 302 0 min 0,000 mm 0,0 UV-I 0 W/m 18,2 C 20,1 C 3,2 km/h (1 Bft) 100,00 %
29.08.2016 04:04 20,0 C 90 % 1013,5 hPa 0,0 l/m 0,6 km/h (0 Bft) W-NW 302 0 min 0,000 mm 0,0 UV-I 0 W/m 18,3 C 20,0 C 1,6 km/h (1 Bft) 95,74 %
29.08.2016 04:06 20,0 C 90 % 1013,5 hPa 0,0 l/m 0,0 km/h (0 Bft) W-NW 302 0 min 0,000 mm 0,0 UV-I 0 W/m 18,3 C 20,0 C 0,0 km/h (0 Bft) 95,74 %
29.08.2016 04:08 19,9 C 89 % 1013,5 hPa 0,0 l/m 0,0 km/h (0 Bft) W-NW 302 0 min 0,000 mm 0,0 UV-I 0 W/m 18,0 C 19,9 C 0,0 km/h (0 Bft) 95,74 %
29.08.2016 04:10 19,9 C 90 % 1013,5 hPa 0,0 l/m 0,1 km/h (0 Bft) W-NW 302 0 min 0,000 mm 0,0 UV-I 0 W/m 18,2 C 19,9 C 1,6 km/h (1 Bft) 97,87 %
29.08.2016 04:12 19,9 C 90 % 1013,5 hPa 0,0 l/m 2,5 km/h (1 Bft) W-NW 302 0 min 0,000 mm 0,0 UV-I 0 W/m 18,2 C 19,9 C 4,8 km/h (1 Bft) 97,87 %
29.08.2016 04:14 19,8 C 90 % 1013,5 hPa 0,0 l/m 4,3 km/h (1 Bft) W-NW 302 0 min 0,000 mm 0,0 UV-I 0 W/m 18,1 C 19,8 C 6,4 km/h (2 Bft) 93,62 %
29.08.2016 04:16 19,8 C 90 % 1013,5 hPa 0,0 l/m 5,3 km/h (1 Bft) W-NW 302 0 min 0,000 mm 0,0 UV-I 0 W/m 18,1 C 19,8 C 6,4 km/h (2 Bft) 98,00 %
29.08.2016 04:18 19,8 C 90 % 1013,4 hPa 0,0 l/m 6,7 km/h (2 Bft) O-SO 112 0 min 0,000 mm 0,0 UV-I 0 W/m 18,1 C 19,7 C 9,7 km/h (2 Bft) 97,87 %
29.08.2016 04:20 19,8 C 90 % 1013,4 hPa 0,0 l/m 8,0 km/h (2 Bft) O-SO 113 0 min 0,000 mm 0,0 UV-I 0 W/m 18,1 C 19,1 C 9,7 km/h (2 Bft) 97,87 %
29.08.2016 04:22 19,8 C 90 % 1013,5 hPa 0,0 l/m 5,6 km/h (1 Bft) O-SO 113 0 min 0,000 mm 0,0 UV-I 0 W/m 18,1 C 19,8 C 9,7 km/h (2 Bft) 95,74 %
29.08.2016 04:24 19,8 C 90 % 1013,5 hPa 0,0 l/m 3,0 km/h (1 Bft) O-SO 113 0 min 0,000 mm 0,0 UV-I 0 W/m 18,1 C 19,8 C 4,8 km/h (1 Bft) 95,74 %
29.08.2016 04:26 19,8 C 90 % 1013,5 hPa 0,0 l/m 1,6 km/h (1 Bft) O-SO 113 0 min 0,000 mm 0,0 UV-I 0 W/m 18,1 C 19,8 C 3,2 km/h (1 Bft) 97,92 %
29.08.2016 04:28 19,7 C 90 % 1013,5 hPa 0,0 l/m 0,4 km/h (0 Bft) O-SO 113 0 min 0,000 mm 0,0 UV-I 0 W/m 18,0 C 19,7 C 1,6 km/h (1 Bft) 96,00 %
29.08.2016 04:30 19,7 C 90 % 1013,5 hPa 0,0 l/m 0,0 km/h (0 Bft) O-SO 113 0 min 0,000 mm 0,0 UV-I 0 W/m 18,0 C 19,7 C 0,0 km/h (0 Bft) 100,00 %
29.08.2016 04:32 19,7 C 90 % 1013,5 hPa 0,0 l/m 1,5 km/h (1 Bft) O-SO 113 0 min 0,000 mm 0,0 UV-I 0 W/m 18,0 C 19,7 C 3,2 km/h (1 Bft) 100,00 %
29.08.2016 04:34 19,7 C 90 % 1013,5 hPa 0,0 l/m 1,6 km/h (1 Bft) SO 132 0 min 0,000 mm 0,0 UV-I 0 W/m 18,0 C 19,7 C 3,2 km/h (1 Bft) 100,00 %
29.08.2016 04:36 19,7 C 90 % 1013,5 hPa 0,0 l/m 2,7 km/h (1 Bft) SO 142 0 min 0,000 mm 0,0 UV-I 0 W/m 18,0 C 19,7 C 4,8 km/h (1 Bft) 100,00 %
29.08.2016 04:38 19,8 C 90 % 1013,5 hPa 0,0 l/m 1,2 km/h (1 Bft) SO 142 0 min 0,000 mm 0,0 UV-I 0 W/m 18,1 C 19,8 C 3,2 km/h (1 Bft) 100,00 %
29.08.2016 04:40 19,8 C 90 % 1013,5 hPa 0,0 l/m 0,6 km/h (0 Bft) SO 142 0 min 0,000 mm 0,0 UV-I 0 W/m 18,1 C 19,8 C 1,6 km/h (1 Bft) 97,87 %
29.08.2016 04:42 19,9 C 89 % 1013,5 hPa 0,0 l/m 2,7 km/h (1 Bft) SO 142 0 min 0,000 mm 0,0 UV-I 0 W/m 18,0 C 19,9 C 4,8 km/h (1 Bft) 100,00 %
29.08.2016 04:44 19,9 C 89 % 1013,5 hPa 0,0 l/m 0,7 km/h (0 Bft) SO 142 0 min 0,000 mm 0,0 UV-I 0 W/m 18,0 C 19,9 C 1,6 km/h (1 Bft) 100,00 %
29.08.2016 04:46 19,8 C 89 % 1013,4 hPa 0,0 l/m 1,1 km/h (1 Bft) SO 142 0 min 0,000 mm 0,0 UV-I 0 W/m 17,9 C 19,8 C 3,2 km/h (1 Bft) 98,00 %
29.08.2016 04:48 19,8 C 89 % 1013,5 hPa 0,0 l/m 1,8 km/h (1 Bft) SO 142 0 min 0,000 mm 0,0 UV-I 0 W/m 17,9 C 19,8 C 3,2 km/h (1 Bft) 100,00 %
29.08.2016 04:50 19,8 C 90 % 1013,5 hPa 0,0 l/m 1,5 km/h (1 Bft) SO 142 0 min 0,000 mm 0,0 UV-I 0 W/m 18,1 C 19,8 C 3,2 km/h (1 Bft) 95,74 %
29.08.2016 04:52 19,7 C 90 % 1013,5 hPa 0,0 l/m 0,6 km/h (0 Bft) SO 142 0 min 0,000 mm 0,0 UV-I 0 W/m 18,0 C 19,7 C 3,2 km/h (1 Bft) 100,00 %
29.08.2016 04:54 19,7 C 90 % 1013,5 hPa 0,0 l/m 1,1 km/h (1 Bft) SO 142 0 min 0,000 mm 0,0 UV-I 0 W/m 18,0 C 19,7 C 3,2 km/h (1 Bft) 100,00 %
29.08.2016 04:56 19,7 C 90 % 1013,4 hPa 0,0 l/m 3,7 km/h (1 Bft) SO 142 0 min 0,000 mm 0,0 UV-I 0 W/m 18,0 C 19,7 C 4,8 km/h (1 Bft) 91,67 %
29.08.2016 04:58 19,6 C 90 % 1013,4 hPa 0,0 l/m 5,4 km/h (1 Bft) SO 128 0 min 0,000 mm 0,0 UV-I 0 W/m 17,9 C 19,6 C 6,4 km/h (2 Bft) 100,00 %
29.08.2016 05:00 19,6 C 90 % 1013,4 hPa 0,0 l/m 4,2 km/h (1 Bft) SO 128 0 min 0,000 mm 0,0 UV-I 0 W/m 17,9 C 19,6 C 6,4 km/h (2 Bft) 97,87 %
29.08.2016 05:02 19,6 C 90 % 1013,3 hPa 0,0 l/m 2,6 km/h (1 Bft) SO 128 0 min 0,000 mm 0,0 UV-I 0 W/m 17,9 C 19,6 C 4,8 km/h (1 Bft) 100,00 %
29.08.2016 05:04 19,5 C 90 % 1013,3 hPa 0,0 l/m 0,2 km/h (0 Bft) SO 128 0 min 0,000 mm 0,0 UV-I 0 W/m 17,8 C 19,5 C 3,2 km/h (1 Bft) 100,00 %
29.08.2016 05:06 19,4 C 90 % 1013,3 hPa 0,0 l/m 0,8 km/h (0 Bft) SO 128 0 min 0,000 mm 0,0 UV-I 0 W/m 17,7 C 19,4 C 3,2 km/h (1 Bft) 100,00 %
29.08.2016 05:08 19,4 C 90 % 1013,3 hPa 0,0 l/m 2,2 km/h (1 Bft) SO 128 0 min 0,000 mm 0,0 UV-I 0 W/m 17,7 C 19,4 C 3,2 km/h (1 Bft) 97,87 %
29.08.2016 05:10 19,5 C 90 % 1013,3 hPa 0,0 l/m 2,4 km/h (1 Bft) SO 128 0 min 0,000 mm 0,0 UV-I 0 W/m 17,8 C 19,5 C 3,2 km/h (1 Bft) 95,74 %
29.08.2016 05:12 19,4 C 90 % 1013,3 hPa 0,0 l/m 2,0 km/h (1 Bft) SO 128 0 min 0,000 mm 0,0 UV-I 0 W/m 17,7 C 19,4 C 3,2 km/h (1 Bft) 97,87 %
29.08.2016 05:14 19,4 C 90 % 1013,3 hPa 0,0 l/m 1,6 km/h (1 Bft) SO 128 0 min 0,000 mm 0,0 UV-I 0 W/m 17,7 C 19,4 C 3,2 km/h (1 Bft) 97,87 %
29.08.2016 05:16 19,4 C 90 % 1013,2 hPa 0,0 l/m 0,3 km/h (0 Bft) SO 128 0 min 0,000 mm 0,0 UV-I 0 W/m 17,7 C 19,4 C 1,6 km/h (1 Bft) 100,00 %
29.08.2016 05:18 19,4 C 90 % 1013,3 hPa 0,0 l/m 0,0 km/h (0 Bft) SO 128 0 min 0,000 mm 0,0 UV-I 0 W/m 17,7 C 19,4 C 0,0 km/h (0 Bft) 100,00 %
29.08.2016 05:20 19,4 C 90 % 1013,3 hPa 0,0 l/m 0,2 km/h (0 Bft) SO 128 0 min 0,000 mm 0,0 UV-I 0 W/m 17,7 C 19,4 C 1,6 km/h (1 Bft) 100,00 %
29.08.2016 05:22 19,4 C 90 % 1013,3 hPa 0,0 l/m 0,0 km/h (0 Bft) SO 128 0 min 0,000 mm 0,0 UV-I 0 W/m 17,7 C 19,4 C 0,0 km/h (0 Bft) 97,87 %
29.08.2016 05:24 19,3 C 90 % 1013,3 hPa 0,0 l/m 0,0 km/h (0 Bft) SO 128 0 min 0,000 mm 0,0 UV-I 0 W/m 17,6 C 19,3 C 0,0 km/h (0 Bft) 97,87 %
29.08.2016 05:26 19,2 C 91 % 1013,3 hPa 0,0 l/m 0,8 km/h (0 Bft) SO 128 0 min 0,000 mm 0,0 UV-I 0 W/m 17,7 C 19,2 C 1,6 km/h (1 Bft) 100,00 %
29.08.2016 05:28 19,2 C 91 % 1013,3 hPa 0,0 l/m 0,1 km/h (0 Bft) SO 128 0 min 0,000 mm 0,0 UV-I 0 W/m 17,7 C 19,2 C 1,6 km/h (1 Bft) 100,00 %
29.08.2016 05:30 19,1 C 91 % 1013,3 hPa 0,0 l/m 0,5 km/h (0 Bft) SO 128 0 min 0,000 mm 0,0 UV-I 0 W/m 17,6 C 19,1 C 1,6 km/h (1 Bft) 100,00 %
29.08.2016 05:32 19,1 C 92 % 1013,2 hPa 0,0 l/m 1,2 km/h (1 Bft) SO 128 0 min 0,000 mm 0,0 UV-I 0 W/m 17,8 C 19,1 C 3,2 km/h (1 Bft) 100,00 %
29.08.2016 05:34 19,1 C 91 % 1013,2 hPa 0,0 l/m 0,3 km/h (0 Bft) SO 128 0 min 0,000 mm 0,0 UV-I 0 W/m 17,6 C 19,1 C 1,6 km/h (1 Bft) 97,96 %
29.08.2016 05:36 19,0 C 91 % 1013,3 hPa 0,0 l/m 0,3 km/h (0 Bft) SO 128 0 min 0,000 mm 0,0 UV-I 0 W/m 17,5 C 19,0 C 1,6 km/h (1 Bft) 97,87 %
29.08.2016 05:38 18,9 C 91 % 1013,3 hPa 0,0 l/m 0,0 km/h (0 Bft) SO 128 0 min 0,000 mm 0,0 UV-I 0 W/m 17,4 C 18,9 C 1,6 km/h (1 Bft) 97,22 %
29.08.2016 05:40 18,9 C 92 % 1013,2 hPa 0,0 l/m 0,0 km/h (0 Bft) SO 128 0 min 0,000 mm 0,0 UV-I 0 W/m 17,6 C 18,9 C 0,0 km/h (0 Bft) 100,00 %
29.08.2016 05:42 18,9 C 92 % 1013,3 hPa 0,0 l/m 0,0 km/h (0 Bft) SO 128 0 min 0,000 mm 0,0 UV-I 0 W/m 17,6 C 18,9 C 0,0 km/h (0 Bft) 96,00 %
29.08.2016 05:44 19,0 C 92 % 1013,2 hPa 0,0 l/m 0,0 km/h (0 Bft) SO 128 0 min 0,000 mm 0,0 UV-I 0 W/m 17,7 C 19,0 C 1,6 km/h (1 Bft) 100,00 %
29.08.2016 05:46 19,0 C 92 % 1013,3 hPa 0,0 l/m 0,0 km/h (0 Bft) SO 128 0 min 0,000 mm 0,0 UV-I 0 W/m 17,7 C 19,0 C 1,6 km/h (1 Bft) 95,74 %
29.08.2016 05:48 19,1 C 92 % 1013,4 hPa 0,0 l/m 0,0 km/h (0 Bft) SO 128 0 min 0,000 mm 0,0 UV-I 0 W/m 17,8 C 19,1 C 0,0 km/h (0 Bft) 100,00 %
29.08.2016 05:50 19,1 C 92 % 1013,4 hPa 0,0 l/m 0,1 km/h (0 Bft) SO 128 0 min 0,000 mm 0,0 UV-I 0 W/m 17,8 C 19,1 C 1,6 km/h (1 Bft) 100,00 %
29.08.2016 05:52 19,1 C 92 % 1013,5 hPa 0,0 l/m 0,8 km/h (0 Bft) SO 128 0 min 0,000 mm 0,0 UV-I 0 W/m 17,8 C 19,1 C 3,2 km/h (1 Bft) 100,00 %
29.08.2016 05:54 19,1 C 92 % 1013,6 hPa 0,0 l/m 1,4 km/h (1 Bft) SO 128 0 min 0,000 mm 0,0 UV-I 0 W/m 17,8 C 19,1 C 1,6 km/h (1 Bft) 100,00 %
29.08.2016 05:56 19,0 C 92 % 1013,7 hPa 0,0 l/m 1,1 km/h (1 Bft) SO 128 0 min 0,000 mm 0,0 UV-I 0 W/m 17,7 C 19,0 C 1,6 km/h (1 Bft) 98,00 %
29.08.2016 05:58 18,9 C 92 % 1013,8 hPa 0,0 l/m 0,0 km/h (0 Bft) SO 128 0 min 0,000 mm 0,0 UV-I 0 W/m 17,6 C 18,9 C 1,6 km/h (1 Bft) 97,87 %
29.08.2016 06:00 18,9 C 92 % 1013,9 hPa 0,0 l/m 0,0 km/h (0 Bft) SO 128 0 min 0,000 mm 0,0 UV-I 0 W/m 17,6 C 18,9 C 0,0 km/h (0 Bft) 95,74 %
29.08.2016 06:02 18,9 C 92 % 1014,0 hPa 0,0 l/m 0,0 km/h (0 Bft) SO 128 0 min 0,000 mm 0,0 UV-I 0 W/m 17,6 C 18,9 C 0,0 km/h (0 Bft) 97,87 %
29.08.2016 06:04 18,8 C 92 % 1014,0 hPa 0,0 l/m 0,3 km/h (0 Bft) SO 128 0 min 0,000 mm 0,0 UV-I 0 W/m 17,5 C 18,8 C 1,6 km/h (1 Bft) 97,14 %
29.08.2016 06:06 18,8 C 92 % 1014,1 hPa 0,0 l/m 1,4 km/h (1 Bft) SO 128 0 min 0,000 mm 0,0 UV-I 0 W/m 17,5 C 18,8 C 3,2 km/h (1 Bft) 97,87 %
29.08.2016 06:08 18,8 C 92 % 1014,1 hPa 0,0 l/m 2,1 km/h (1 Bft) SO 128 0 min 0,000 mm 0,0 UV-I 0 W/m 17,5 C 18,8 C 3,2 km/h (1 Bft) 97,87 %
29.08.2016 06:10 18,8 C 92 % 1014,2 hPa 0,0 l/m 3,0 km/h (1 Bft) SO 132 0 min 0,000 mm 0,0 UV-I 0 W/m 17,5 C 18,8 C 4,8 km/h (1 Bft) 98,00 %
29.08.2016 06:12 18,7 C 92 % 1014,2 hPa 0,0 l/m 3,7 km/h (1 Bft) SO 138 0 min 0,000 mm 0,0 UV-I 0 W/m 17,4 C 18,7 C 6,4 km/h (2 Bft) 96,00 %
29.08.2016 06:14 18,7 C 92 % 1014,2 hPa 0,0 l/m 4,7 km/h (1 Bft) SO 139 0 min 0,000 mm 0,0 UV-I 0 W/m 17,4 C 18,7 C 6,4 km/h (2 Bft) 92,00 %
29.08.2016 06:16 18,7 C 92 % 1014,2 hPa 0,0 l/m 3,9 km/h (1 Bft) SO 139 0 min 0,000 mm 0,0 UV-I 0 W/m 17,4 C 18,7 C 4,8 km/h (1 Bft) 97,87 %
29.08.2016 06:18 18,7 C 92 % 1014,2 hPa 0,0 l/m 3,0 km/h (1 Bft) SO 139 0 min 0,000 mm 0,0 UV-I 0 W/m 17,4 C 18,7 C 4,8 km/h (1 Bft) 97,87 %
29.08.2016 06:20 18,6 C 92 % 1014,3 hPa 0,0 l/m 1,8 km/h (1 Bft) SO 139 0 min 0,000 mm 0,0 UV-I 0 W/m 17,3 C 18,6 C 4,8 km/h (1 Bft) 97,87 %
29.08.2016 06:22 18,7 C 92 % 1014,3 hPa 0,0 l/m 3,3 km/h (1 Bft) SO 139 0 min 0,000 mm 0,0 UV-I 0 W/m 17,4 C 18,7 C 4,8 km/h (1 Bft) 97,87 %
29.08.2016 06:24 18,7 C 92 % 1014,3 hPa 0,0 l/m 2,5 km/h (1 Bft) SO 139 0 min 0,000 mm 0,0 UV-I 0 W/m 17,4 C 18,7 C 4,8 km/h (1 Bft) 97,87 %
29.08.2016 06:26 18,8 C 92 % 1014,3 hPa 0,0 l/m 0,7 km/h (0 Bft) SO 139 0 min 0,000 mm 0,0 UV-I 0 W/m 17,5 C 18,8 C 1,6 km/h (1 Bft) 97,92 %
29.08.2016 06:28 18,8 C 92 % 1014,4 hPa 0,0 l/m 1,1 km/h (1 Bft) SO 139 0 min 0,000 mm 0,0 UV-I 3 W/m 17,5 C 18,8 C 3,2 km/h (1 Bft) 100,00 %
29.08.2016 06:30 18,8 C 92 % 1014,5 hPa 0,0 l/m 2,3 km/h (1 Bft) SO 140 0 min 0,000 mm 0,0 UV-I 5 W/m 17,5 C 18,8 C 3,2 km/h (1 Bft) 100,00 %
29.08.2016 06:32 18,8 C 92 % 1014,5 hPa 0,0 l/m 1,4 km/h (1 Bft) SO 139 0 min 0,000 mm 0,0 UV-I 5 W/m 17,5 C 18,8 C 3,2 km/h (1 Bft) 97,87 %
29.08.2016 06:34 18,8 C 92 % 1014,5 hPa 0,0 l/m 2,9 km/h (1 Bft) SO 140 0 min 0,000 mm 0,0 UV-I 5 W/m 17,5 C 18,8 C 4,8 km/h (1 Bft) 100,00 %
29.08.2016 06:36 18,8 C 92 % 1014,5 hPa 0,0 l/m 2,2 km/h (1 Bft) SO 140 0 min 0,000 mm 0,0 UV-I 5 W/m 17,5 C 18,8 C 4,8 km/h (1 Bft) 97,87 %
29.08.2016 06:38 18,8 C 92 % 1014,5 hPa 0,0 l/m 2,6 km/h (1 Bft) SO 142 0 min 0,000 mm 0,0 UV-I 5 W/m 17,5 C 18,8 C 4,8 km/h (1 Bft) 100,00 %
29.08.2016 06:40 18,8 C 91 % 1014,6 hPa 0,0 l/m 2,1 km/h (1 Bft) SO 142 0 min 0,000 mm 0,0 UV-I 5 W/m 17,3 C 18,8 C 4,8 km/h (1 Bft) 100,00 %
29.08.2016 06:42 18,9 C 91 % 1014,5 hPa 0,0 l/m 3,1 km/h (1 Bft) S-SW 192 0 min 0,000 mm 0,0 UV-I 7 W/m 17,4 C 18,9 C 6,4 km/h (2 Bft) 100,00 %
29.08.2016 06:44 19,0 C 90 % 1014,6 hPa 0,0 l/m 3,9 km/h (1 Bft) NW 309 0 min 0,000 mm 0,0 UV-I 7 W/m 17,3 C 19,0 C 4,8 km/h (1 Bft) 100,00 %
29.08.2016 06:46 19,1 C 90 % 1014,7 hPa 0,0 l/m 3,4 km/h (1 Bft) W-SW 248 0 min 0,000 mm 0,0 UV-I 7 W/m 17,4 C 19,1 C 4,8 km/h (1 Bft) 97,87 %
29.08.2016 06:48 19,1 C 90 % 1014,7 hPa 0,0 l/m 5,4 km/h (1 Bft) S-SW 196 0 min 0,000 mm 0,0 UV-I 9 W/m 17,4 C 19,1 C 9,7 km/h (2 Bft) 100,00 %
29.08.2016 06:50 19,1 C 91 % 1014,7 hPa 0,0 l/m 6,0 km/h (2 Bft) S-SW 212 0 min 0,000 mm 0,0 UV-I 9 W/m 17,6 C 19,1 C 8,0 km/h (2 Bft) 100,00 %
29.08.2016 06:52 19,0 C 90 % 1014,7 hPa 0,0 l/m 3,4 km/h (1 Bft) W 259 0 min 0,000 mm 0,0 UV-I 9 W/m 17,3 C 19,0 C 4,8 km/h (1 Bft) 100,00 %
29.08.2016 06:54 19,0 C 91 % 1014,8 hPa 0,0 l/m 2,3 km/h (1 Bft) W 259 0 min 0,000 mm 0,0 UV-I 11 W/m 17,5 C 19,0 C 3,2 km/h (1 Bft) 97,87 %
29.08.2016 06:56 18,9 C 91 % 1014,9 hPa 0,0 l/m 2,2 km/h (1 Bft) W-SW 255 0 min 0,000 mm 0,0 UV-I 12 W/m 17,4 C 18,9 C 4,8 km/h (1 Bft) 100,00 %
29.08.2016 06:58 18,9 C 91 % 1014,9 hPa 0,0 l/m 3,7 km/h (1 Bft) W 265 0 min 0,000 mm 0,0 UV-I 16 W/m 17,4 C 18,9 C 6,4 km/h (2 Bft) 100,00 %
29.08.2016 07:00 18,9 C 90 % 1015,0 hPa 0,0 l/m 5,2 km/h (1 Bft) W-SW 250 0 min 0,000 mm 0,0 UV-I 21 W/m 17,2 C 18,9 C 8,0 km/h (2 Bft) 100,00 %
29.08.2016 07:02 19,0 C 89 % 1014,9 hPa 0,0 l/m 8,0 km/h (2 Bft) W-SW 248 0 min 0,000 mm 0,0 UV-I 23 W/m 17,1 C 18,3 C 14,5 km/h (3 Bft) 100,00 %
29.08.2016 07:04 19,2 C 86 % 1015,0 hPa 0,0 l/m 7,6 km/h (2 Bft) SW 229 0 min 0,000 mm 0,0 UV-I 25 W/m 16,8 C 18,7 C 11,3 km/h (2 Bft) 97,87 %
29.08.2016 07:06 19,4 C 84 % 1015,1 hPa 0,0 l/m 6,3 km/h (2 Bft) W-SW 250 0 min 0,000 mm 0,0 UV-I 26 W/m 16,6 C 19,4 C 11,3 km/h (2 Bft) 100,00 %
29.08.2016 07:08 19,6 C 83 % 1015,1 hPa 0,0 l/m 8,6 km/h (2 Bft) SW 227 0 min 0,000 mm 0,0 UV-I 26 W/m 16,6 C 18,7 C 14,5 km/h (3 Bft) 100,00 %
29.08.2016 07:10 19,8 C 83 % 1015,1 hPa 0,0 l/m 8,4 km/h (2 Bft) W-SW 252 0 min 0,000 mm 0,0 UV-I 28 W/m 16,8 C 19,0 C 12,9 km/h (3 Bft) 100,00 %
29.08.2016 07:12 19,9 C 82 % 1015,2 hPa 0,0 l/m 8,2 km/h (2 Bft) W-SW 244 0 min 0,000 mm 0,0 UV-I 30 W/m 16,7 C 19,2 C 14,5 km/h (3 Bft) 100,00 %
29.08.2016 07:14 20,1 C 82 % 1015,2 hPa 0,0 l/m 7,0 km/h (2 Bft) W-SW 240 0 min 0,000 mm 0,0 UV-I 32 W/m 16,9 C 19,9 C 11,3 km/h (2 Bft) 100,00 %
29.08.2016 07:16 20,1 C 82 % 1015,2 hPa 0,0 l/m 6,3 km/h (2 Bft) W-SW 242 0 min 0,000 mm 0,0 UV-I 34 W/m 16,9 C 20,1 C 11,3 km/h (2 Bft) 100,00 %
29.08.2016 07:18 20,1 C 82 % 1015,2 hPa 0,0 l/m 6,2 km/h (2 Bft) W-SW 252 0 min 0,000 mm 0,0 UV-I 38 W/m 16,9 C 20,1 C 11,3 km/h (2 Bft) 100,00 %
29.08.2016 07:20 20,2 C 82 % 1015,2 hPa 0,0 l/m 7,9 km/h (2 Bft) W-SW 242 0 min 0,000 mm 0,0 UV-I 46 W/m 17,0 C 19,6 C 12,9 km/h (3 Bft) 100,00 %
29.08.2016 07:22 20,2 C 83 % 1015,2 hPa 0,0 l/m 9,3 km/h (2 Bft) W-SW 254 0 min 0,000 mm 0,0 UV-I 66 W/m 17,2 C 19,1 C 14,5 km/h (3 Bft) 100,00 %
29.08.2016 07:24 20,2 C 83 % 1015,3 hPa 0,0 l/m 9,7 km/h (2 Bft) W 274 0 min 0,000 mm 0,0 UV-I 73 W/m 17,2 C 19,0 C 16,1 km/h (3 Bft) 100,00 %
29.08.2016 07:26 20,2 C 83 % 1015,2 hPa 0,0 l/m 12,4 km/h (3 Bft) W 259 0 min 0,000 mm 0,0 UV-I 80 W/m 17,2 C 18,1 C 17,7 km/h (3 Bft) 100,00 %
29.08.2016 07:28 20,3 C 83 % 1015,2 hPa 0,0 l/m 10,0 km/h (2 Bft) SW 227 0 min 0,000 mm 0,0 UV-I 86 W/m 17,3 C 19,0 C 16,1 km/h (3 Bft) 100,00 %
29.08.2016 07:30 20,4 C 83 % 1015,2 hPa 0,0 l/m 9,6 km/h (2 Bft) SW 224 0 min 0,000 mm 0,0 UV-I 92 W/m 17,4 C 19,2 C 16,1 km/h (3 Bft) 100,00 %
29.08.2016 07:32 20,5 C 83 % 1015,3 hPa 0,0 l/m 11,4 km/h (2 Bft) W-SW 258 0 min 0,000 mm 0,0 UV-I 89 W/m 17,5 C 18,8 C 16,1 km/h (3 Bft) 100,00 %
29.08.2016 07:34 20,6 C 83 % 1015,2 hPa 0,0 l/m 11,4 km/h (2 Bft) W-SW 248 0 min 0,000 mm 0,0 UV-I 84 W/m 17,6 C 18,9 C 14,5 km/h (3 Bft) 97,87 %
29.08.2016 07:36 20,7 C 83 % 1015,3 hPa 0,0 l/m 10,1 km/h (2 Bft) W 259 0 min 0,000 mm 0,0 UV-I 104 W/m 17,7 C 19,4 C 14,5 km/h (3 Bft) 95,83 %
29.08.2016 07:38 20,7 C 82 % 1015,4 hPa 0,0 l/m 9,6 km/h (2 Bft) SW 236 0 min 0,000 mm 0,0 UV-I 110 W/m 17,5 C 19,5 C 17,7 km/h (3 Bft) 98,00 %
29.08.2016 07:40 20,8 C 82 % 1015,5 hPa 0,0 l/m 8,3 km/h (2 Bft) SW 223 0 min 0,000 mm 0,0 UV-I 115 W/m 17,6 C 20,1 C 12,9 km/h (3 Bft) 97,96 %
29.08.2016 07:42 20,8 C 82 % 1015,5 hPa 0,0 l/m 10,2 km/h (2 Bft) SW 225 0 min 0,000 mm 0,0 UV-I 119 W/m 17,6 C 19,5 C 17,7 km/h (3 Bft) 100,00 %
29.08.2016 07:44 20,9 C 82 % 1015,6 hPa 0,0 l/m 10,1 km/h (2 Bft) W-SW 238 0 min 0,000 mm 0,0 UV-I 126 W/m 17,7 C 19,6 C 17,7 km/h (3 Bft) 100,00 %
29.08.2016 07:46 21,0 C 81 % 1015,6 hPa 0,0 l/m 12,3 km/h (3 Bft) SW 229 2 min 0,000 mm 0,0 UV-I 130 W/m 17,6 C 19,1 C 17,7 km/h (3 Bft) 97,87 %
29.08.2016 07:48 21,0 C 81 % 1015,6 hPa 0,0 l/m 13,1 km/h (3 Bft) W-SW 257 2 min 0,000 mm 0,0 UV-I 138 W/m 17,6 C 18,9 C 19,3 km/h (3 Bft) 100,00 %
29.08.2016 07:50 21,1 C 81 % 1015,6 hPa 0,0 l/m 14,4 km/h (3 Bft) SW 214 2 min 0,000 mm 0,0 UV-I 147 W/m 17,7 C 18,7 C 19,3 km/h (3 Bft) 100,00 %
29.08.2016 07:52 21,1 C 81 % 1015,6 hPa 0,0 l/m 13,3 km/h (3 Bft) W-SW 246 2 min 0,000 mm 0,0 UV-I 156 W/m 17,7 C 19,0 C 22,5 km/h (4 Bft) 100,00 %
29.08.2016 07:54 21,1 C 81 % 1015,7 hPa 0,0 l/m 14,9 km/h (3 Bft) W-SW 250 2 min 0,000 mm 0,0 UV-I 168 W/m 17,7 C 18,6 C 22,5 km/h (4 Bft) 97,87 %
29.08.2016 07:56 21,2 C 81 % 1015,7 hPa 0,0 l/m 13,5 km/h (3 Bft) W-SW 253 2 min 0,000 mm 0,0 UV-I 185 W/m 17,8 C 19,0 C 19,3 km/h (3 Bft) 93,62 %
29.08.2016 07:58 21,2 C 81 % 1015,8 hPa 0,0 l/m 13,5 km/h (3 Bft) W-SW 246 2 min 0,000 mm 0,0 UV-I 219 W/m 17,8 C 19,0 C 20,9 km/h (4 Bft) 97,87 %
29.08.2016 08:00 21,3 C 81 % 1015,9 hPa 0,0 l/m 14,1 km/h (3 Bft) W-SW 254 2 min 0,076 mm 0,0 UV-I 240 W/m 17,9 C 19,0 C 24,1 km/h (4 Bft) 97,87 %
29.08.2016 08:02 21,4 C 80 % 1015,8 hPa 0,0 l/m 16,0 km/h (3 Bft) W-SW 242 2 min 0,000 mm 0,0 UV-I 207 W/m 17,8 C 18,7 C 25,7 km/h (4 Bft) 97,87 %
29.08.2016 08:04 21,4 C 80 % 1015,8 hPa 0,0 l/m 13,2 km/h (3 Bft) SW 224 0 min 0,000 mm 0,0 UV-I 118 W/m 17,8 C 19,3 C 22,5 km/h (4 Bft) 95,74 %
29.08.2016 08:06 21,4 C 79 % 1015,9 hPa 0,0 l/m 14,4 km/h (3 Bft) W 267 0 min 0,000 mm 0,0 UV-I 83 W/m 17,6 C 19,1 C 25,7 km/h (4 Bft) 97,87 %
29.08.2016 08:08 21,4 C 79 % 1016,1 hPa 0,0 l/m 15,0 km/h (3 Bft) S-SW 211 0 min 0,000 mm 0,0 UV-I 65 W/m 17,6 C 18,9 C 19,3 km/h (3 Bft) 97,37 %
29.08.2016 08:10 21,3 C 79 % 1016,1 hPa 0,0 l/m 17,9 km/h (3 Bft) W-SW 253 0 min 0,000 mm 0,0 UV-I 53 W/m 17,5 C 18,3 C 27,4 km/h (4 Bft) 97,87 %
29.08.2016 08:12 21,2 C 79 % 1016,1 hPa 0,0 l/m 11,7 km/h (2 Bft) W-SW 250 0 min 0,000 mm 0,0 UV-I 48 W/m 17,4 C 19,5 C 19,3 km/h (3 Bft) 95,74 %
29.08.2016 08:14 21,2 C 80 % 1016,1 hPa 0,0 l/m 10,3 km/h (2 Bft) W-SW 247 0 min 0,000 mm 0,0 UV-I 52 W/m 17,6 C 19,9 C 16,1 km/h (3 Bft) 95,74 %
29.08.2016 08:16 21,1 C 80 % 1016,2 hPa 0,0 l/m 11,9 km/h (2 Bft) W-SW 238 0 min 0,000 mm 0,0 UV-I 54 W/m 17,5 C 19,3 C 16,1 km/h (3 Bft) 95,74 %
29.08.2016 08:18 21,0 C 80 % 1016,2 hPa 0,0 l/m 8,6 km/h (2 Bft) W-SW 248 0 min 0,000 mm 0,0 UV-I 55 W/m 17,4 C 20,2 C 12,9 km/h (3 Bft) 95,83 %
29.08.2016 08:20 20,9 C 80 % 1016,2 hPa 0,0 l/m 11,7 km/h (2 Bft) W-SW 258 0 min 0,000 mm 0,0 UV-I 54 W/m 17,3 C 19,1 C 19,3 km/h (3 Bft) 97,87 %
29.08.2016 08:22 20,9 C 80 % 1016,3 hPa 0,0 l/m 8,3 km/h (2 Bft) SW 229 0 min 0,000 mm 0,0 UV-I 53 W/m 17,3 C 20,2 C 16,1 km/h (3 Bft) 95,74 %
29.08.2016 08:24 20,9 C 80 % 1016,3 hPa 0,0 l/m 10,1 km/h (2 Bft) S-SW 213 0 min 0,000 mm 0,0 UV-I 57 W/m 17,3 C 19,6 C 16,1 km/h (3 Bft) 96,00 %
29.08.2016 08:26 20,9 C 81 % 1016,4 hPa 0,0 l/m 7,3 km/h (2 Bft) W 260 0 min 0,000 mm 0,0 UV-I 66 W/m 17,5 C 20,6 C 17,7 km/h (3 Bft) 97,87 %
29.08.2016 08:28 20,9 C 79 % 1016,3 hPa 0,0 l/m 13,9 km/h (3 Bft) W-SW 246 0 min 0,000 mm 0,0 UV-I 70 W/m 17,1 C 18,6 C 20,9 km/h (4 Bft) 97,87 %
29.08.2016 08:30 20,9 C 80 % 1016,4 hPa 0,0 l/m 8,0 km/h (2 Bft) W-NW 292 0 min 0,000 mm 0,0 UV-I 67 W/m 17,3 C 20,3 C 11,3 km/h (2 Bft) 100,00 %
29.08.2016 08:32 20,9 C 79 % 1016,4 hPa 0,0 l/m 11,2 km/h (2 Bft) W-SW 246 0 min 0,000 mm 0,0 UV-I 63 W/m 17,1 C 19,3 C 16,1 km/h (3 Bft) 100,00 %
29.08.2016 08:34 21,0 C 79 % 1016,3 hPa 0,0 l/m 9,0 km/h (2 Bft) W-SW 257 0 min 0,000 mm 0,0 UV-I 63 W/m 17,2 C 20,1 C 12,9 km/h (3 Bft) 100,00 %
29.08.2016 08:36 21,1 C 79 % 1016,4 hPa 0,0 l/m 9,9 km/h (2 Bft) S 185 0 min 0,000 mm 0,0 UV-I 61 W/m 17,3 C 19,9 C 16,1 km/h (3 Bft) 100,00 %
29.08.2016 08:38 21,1 C 78 % 1016,4 hPa 0,0 l/m 10,2 km/h (2 Bft) SW 227 0 min 0,000 mm 0,0 UV-I 62 W/m 17,1 C 19,8 C 16,1 km/h (3 Bft) 96,00 %
29.08.2016 08:40 21,1 C 78 % 1016,4 hPa 0,0 l/m 8,5 km/h (2 Bft) SW 217 0 min 0,000 mm 0,0 UV-I 64 W/m 17,1 C 20,3 C 14,5 km/h (3 Bft) 100,00 %
29.08.2016 08:42 21,1 C 78 % 1016,4 hPa 0,0 l/m 7,9 km/h (2 Bft) SW 232 0 min 0,000 mm 0,0 UV-I 68 W/m 17,1 C 20,5 C 11,3 km/h (2 Bft) 100,00 %
29.08.2016 08:44 21,1 C 79 % 1016,4 hPa 0,0 l/m 8,0 km/h (2 Bft) W-SW 242 0 min 0,000 mm 0,0 UV-I 77 W/m 17,3 C 20,5 C 14,5 km/h (3 Bft) 98,00 %
29.08.2016 08:46 21,1 C 78 % 1016,4 hPa 0,0 l/m 11,0 km/h (2 Bft) SW 229 0 min 0,000 mm 0,0 UV-I 91 W/m 17,1 C 19,6 C 16,1 km/h (3 Bft) 100,00 %
29.08.2016 08:48 21,1 C 78 % 1016,4 hPa 0,0 l/m 11,3 km/h (2 Bft) W 259 0 min 0,000 mm 0,4 UV-I 110 W/m 17,1 C 19,5 C 17,7 km/h (3 Bft) 100,00 %
29.08.2016 08:50 21,1 C 76 % 1016,5 hPa 0,0 l/m 13,7 km/h (3 Bft) W-SW 248 0 min 0,000 mm 0,6 UV-I 126 W/m 16,7 C 18,9 C 19,3 km/h (3 Bft) 100,00 %
29.08.2016 08:52 21,1 C 76 % 1016,4 hPa 0,0 l/m 10,8 km/h (2 Bft) W 261 0 min 0,000 mm 0,6 UV-I 137 W/m 16,7 C 19,6 C 14,5 km/h (3 Bft) 97,92 %
29.08.2016 08:54 21,1 C 76 % 1016,5 hPa 0,0 l/m 7,3 km/h (2 Bft) W 267 0 min 0,000 mm 0,7 UV-I 153 W/m 16,7 C 20,8 C 11,3 km/h (2 Bft) 100,00 %
29.08.2016 08:56 21,1 C 76 % 1016,5 hPa 0,0 l/m 6,7 km/h (2 Bft) W-SW 244 0 min 0,000 mm 0,8 UV-I 174 W/m 16,7 C 21,0 C 12,9 km/h (3 Bft) 100,00 %
29.08.2016 08:58 21,2 C 76 % 1016,5 hPa 0,0 l/m 11,5 km/h (2 Bft) W-SW 238 0 min 0,000 mm 0,8 UV-I 198 W/m 16,8 C 19,5 C 16,1 km/h (3 Bft) 100,00 %
29.08.2016 09:00 21,2 C 75 % 1016,5 hPa 0,0 l/m 11,6 km/h (2 Bft) W-SW 252 0 min 0,076 mm 0,8 UV-I 210 W/m 16,6 C 19,5 C 16,1 km/h (3 Bft) 97,92 %
29.08.2016 09:02 21,2 C 73 % 1016,4 hPa 0,0 l/m 12,8 km/h (3 Bft) W-SW 257 0 min 0,000 mm 0,8 UV-I 211 W/m 16,2 C 19,2 C 17,7 km/h (3 Bft) 100,00 %
29.08.2016 09:04 21,2 C 74 % 1016,4 hPa 0,0 l/m 8,0 km/h (2 Bft) W-SW 252 0 min 0,000 mm 0,8 UV-I 195 W/m 16,4 C 20,6 C 16,1 km/h (3 Bft) 100,00 %
29.08.2016 09:06 21,2 C 74 % 1016,4 hPa 0,0 l/m 6,9 km/h (2 Bft) W 261 0 min 0,000 mm 0,8 UV-I 196 W/m 16,4 C 21,0 C 14,5 km/h (3 Bft) 100,00 %
29.08.2016 09:08 21,2 C 75 % 1016,5 hPa 0,0 l/m 5,2 km/h (1 Bft) W-SW 238 0 min 0,000 mm 0,9 UV-I 205 W/m 16,6 C 21,2 C 9,7 km/h (2 Bft) 100,00 %
29.08.2016 09:10 21,3 C 74 % 1016,5 hPa 0,0 l/m 5,4 km/h (1 Bft) W-SW 242 0 min 0,000 mm 0,8 UV-I 206 W/m 16,5 C 21,3 C 12,9 km/h (3 Bft) 100,00 %
29.08.2016 09:12 21,3 C 75 % 1016,5 hPa 0,0 l/m 6,3 km/h (2 Bft) W-SW 254 0 min 0,000 mm 0,8 UV-I 202 W/m 16,7 C 21,3 C 12,9 km/h (3 Bft) 100,00 %
29.08.2016 09:14 21,3 C 73 % 1016,5 hPa 0,0 l/m 7,5 km/h (2 Bft) SW 226 0 min 0,000 mm 0,9 UV-I 205 W/m 16,3 C 20,9 C 14,5 km/h (3 Bft) 100,00 %
29.08.2016 09:16 21,3 C 73 % 1016,5 hPa 0,0 l/m 6,8 km/h (2 Bft) W-SW 242 0 min 0,000 mm 0,8 UV-I 205 W/m 16,3 C 21,2 C 9,7 km/h (2 Bft) 100,00 %
29.08.2016 09:18 21,4 C 73 % 1016,5 hPa 0,0 l/m 6,7 km/h (2 Bft) W-SW 244 0 min 0,000 mm 0,8 UV-I 196 W/m 16,4 C 21,3 C 11,3 km/h (2 Bft) 100,00 %
29.08.2016 09:20 21,3 C 73 % 1016,5 hPa 0,0 l/m 3,8 km/h (1 Bft) W-SW 253 0 min 0,000 mm 0,8 UV-I 198 W/m 16,3 C 21,3 C 8,0 km/h (2 Bft) 97,87 %
29.08.2016 09:22 21,3 C 72 % 1016,4 hPa 0,0 l/m 6,3 km/h (2 Bft) W-NW 300 0 min 0,000 mm 0,8 UV-I 206 W/m 16,0 C 21,3 C 12,9 km/h (3 Bft) 100,00 %
29.08.2016 09:24 21,3 C 72 % 1016,4 hPa 0,0 l/m 3,3 km/h (1 Bft) W-SW 241 0 min 0,000 mm 0,7 UV-I 198 W/m 16,0 C 21,3 C 4,8 km/h (1 Bft) 97,87 %
29.08.2016 09:26 21,4 C 73 % 1016,4 hPa 0,0 l/m 2,3 km/h (1 Bft) W-SW 240 0 min 0,000 mm 0,6 UV-I 162 W/m 16,4 C 21,4 C 4,8 km/h (1 Bft) 97,87 %
29.08.2016 09:28 21,4 C 72 % 1016,4 hPa 0,0 l/m 1,4 km/h (1 Bft) W-SW 240 0 min 0,000 mm 0,3 UV-I 120 W/m 16,1 C 21,4 C 3,2 km/h (1 Bft) 100,00 %
29.08.2016 09:30 21,3 C 72 % 1016,4 hPa 0,0 l/m 2,4 km/h (1 Bft) W-NW 294 0 min 0,000 mm 0,0 UV-I 90 W/m 16,0 C 21,3 C 6,4 km/h (2 Bft) 97,87 %
29.08.2016 09:32 21,3 C 71 % 1016,4 hPa 0,0 l/m 1,6 km/h (1 Bft) W-NW 294 0 min 0,000 mm 0,0 UV-I 74 W/m 15,8 C 21,3 C 4,8 km/h (1 Bft) 100,00 %
29.08.2016 09:34 21,2 C 73 % 1016,3 hPa 0,0 l/m 3,2 km/h (1 Bft) N-NW 342 0 min 0,000 mm 0,0 UV-I 62 W/m 16,2 C 21,2 C 8,0 km/h (2 Bft) 97,87 %
29.08.2016 09:36 20,9 C 75 % 1016,4 hPa 0,2 l/m 1,7 km/h (1 Bft) N-NW 348 0 min 0,000 mm 0,0 UV-I 56 W/m 16,3 C 20,9 C 4,8 km/h (1 Bft) 100,00 %
29.08.2016 09:38 20,7 C 75 % 1016,3 hPa 0,2 l/m 1,4 km/h (1 Bft) N 350 0 min 0,000 mm 0,0 UV-I 61 W/m 16,1 C 20,7 C 3,2 km/h (1 Bft) 100,00 %
29.08.2016 09:40 20,4 C 75 % 1016,3 hPa 0,2 l/m 0,0 km/h (0 Bft) N 350 0 min 0,000 mm 0,0 UV-I 73 W/m 15,8 C 20,4 C 1,6 km/h (1 Bft) 98,00 %
29.08.2016 09:42 20,3 C 77 % 1016,4 hPa 0,2 l/m 0,0 km/h (0 Bft) N 350 0 min 0,000 mm 0,3 UV-I 89 W/m 16,1 C 20,3 C 1,6 km/h (1 Bft) 95,74 %
29.08.2016 09:44 20,2 C 81 % 1016,3 hPa 0,2 l/m 0,0 km/h (0 Bft) N 350 0 min 0,000 mm 0,6 UV-I 109 W/m 16,8 C 20,2 C 0,0 km/h (0 Bft) 100,00 %
29.08.2016 09:46 19,9 C 85 % 1016,3 hPa 0,0 l/m 2,0 km/h (1 Bft) N 350 0 min 0,000 mm 0,8 UV-I 134 W/m 17,3 C 19,9 C 3,2 km/h (1 Bft) 100,00 %
29.08.2016 09:48 19,7 C 85 % 1016,3 hPa 0,0 l/m 2,0 km/h (1 Bft) N 350 0 min 0,000 mm 1,0 UV-I 154 W/m 17,1 C 19,7 C 3,2 km/h (1 Bft) 100,00 %
29.08.2016 09:50 19,6 C 87 % 1016,3 hPa 0,0 l/m 0,2 km/h (0 Bft) N 350 0 min 0,000 mm 1,1 UV-I 170 W/m 17,4 C 19,6 C 1,6 km/h (1 Bft) 95,74 %
29.08.2016 09:52 19,6 C 85 % 1016,3 hPa 0,0 l/m 0,2 km/h (0 Bft) N 350 0 min 0,000 mm 1,2 UV-I 198 W/m 17,0 C 19,6 C 1,6 km/h (1 Bft) 97,87 %
29.08.2016 09:54 19,6 C 86 % 1016,3 hPa 0,0 l/m 1,5 km/h (1 Bft) N 355 0 min 0,000 mm 1,3 UV-I 223 W/m 17,2 C 19,6 C 4,8 km/h (1 Bft) 95,74 %
29.08.2016 09:56 19,7 C 86 % 1016,2 hPa 0,0 l/m 0,9 km/h (0 Bft) N 360 0 min 0,000 mm 1,4 UV-I 259 W/m 17,3 C 19,7 C 3,2 km/h (1 Bft) 97,87 %
29.08.2016 09:58 19,7 C 87 % 1016,2 hPa 0,0 l/m 1,8 km/h (1 Bft) N-NW 341 0 min 0,000 mm 1,6 UV-I 285 W/m 17,5 C 19,7 C 4,8 km/h (1 Bft) 95,74 %
29.08.2016 10:00 19,8 C 87 % 1016,2 hPa 0,0 l/m 1,5 km/h (1 Bft) N-NW 346 2 min 0,127 mm 1,8 UV-I 368 W/m 17,6 C 19,8 C 3,2 km/h (1 Bft) 97,87 %
29.08.2016 10:02 20,1 C 87 % 1016,2 hPa 0,0 l/m 2,0 km/h (1 Bft) N-NW 336 2 min 0,000 mm 1,7 UV-I 571 W/m 17,9 C 20,1 C 3,2 km/h (1 Bft) 97,87 %
29.08.2016 10:04 20,1 C 86 % 1016,2 hPa 0,0 l/m 1,4 km/h (1 Bft) N-NW 329 0 min 0,000 mm 1,6 UV-I 286 W/m 17,7 C 20,1 C 3,2 km/h (1 Bft) 96,00 %
29.08.2016 10:06 20,1 C 85 % 1016,3 hPa 0,0 l/m 3,2 km/h (1 Bft) N-NW 341 0 min 0,000 mm 1,6 UV-I 284 W/m 17,5 C 20,1 C 6,4 km/h (2 Bft) 95,74 %
29.08.2016 10:08 20,1 C 85 % 1016,3 hPa 0,0 l/m 2,3 km/h (1 Bft) N-NW 333 0 min 0,000 mm 1,8 UV-I 289 W/m 17,5 C 20,1 C 4,8 km/h (1 Bft) 97,87 %
29.08.2016 10:10 20,3 C 85 % 1016,4 hPa 0,0 l/m 2,9 km/h (1 Bft) NW 309 0 min 0,000 mm 2,0 UV-I 290 W/m 17,7 C 20,3 C 6,4 km/h (2 Bft) 94,74 %
29.08.2016 10:12 20,3 C 85 % 1016,4 hPa 0,0 l/m 2,4 km/h (1 Bft) N-NW 346 0 min 0,000 mm 1,6 UV-I 283 W/m 17,7 C 20,3 C 6,4 km/h (2 Bft) 98,00 %
29.08.2016 10:14 20,4 C 84 % 1016,4 hPa 0,0 l/m 2,5 km/h (1 Bft) N 355 0 min 0,000 mm 1,6 UV-I 274 W/m 17,6 C 20,4 C 6,4 km/h (2 Bft) 97,92 %
29.08.2016 10:16 20,5 C 87 % 1016,4 hPa 0,0 l/m 2,1 km/h (1 Bft) N 5 0 min 0,000 mm 1,6 UV-I 259 W/m 18,3 C 20,5 C 4,8 km/h (1 Bft) 93,62 %
29.08.2016 10:18 20,6 C 85 % 1016,4 hPa 0,0 l/m 1,9 km/h (1 Bft) N-NO 23 0 min 0,000 mm 1,6 UV-I 244 W/m 18,0 C 20,6 C 4,8 km/h (1 Bft) 95,74 %
29.08.2016 10:20 20,4 C 83 % 1016,4 hPa 0,0 l/m 2,8 km/h (1 Bft) N-NW 340 0 min 0,000 mm 1,6 UV-I 241 W/m 17,4 C 20,4 C 6,4 km/h (2 Bft) 95,74 %
29.08.2016 10:22 20,4 C 84 % 1016,4 hPa 0,0 l/m 1,4 km/h (1 Bft) NW 309 0 min 0,000 mm 1,6 UV-I 240 W/m 17,6 C 20,4 C 4,8 km/h (1 Bft) 95,74 %
29.08.2016 10:24 20,3 C 84 % 1016,4 hPa 0,0 l/m 4,1 km/h (1 Bft) N-NO 14 0 min 0,000 mm 1,7 UV-I 236 W/m 17,5 C 20,3 C 8,0 km/h (2 Bft) 100,00 %
29.08.2016 10:26 20,4 C 84 % 1016,4 hPa 0,0 l/m 3,8 km/h (1 Bft) N-NO 13 0 min 0,000 mm 1,7 UV-I 231 W/m 17,6 C 20,4 C 8,0 km/h (2 Bft) 97,87 %
29.08.2016 10:28 20,4 C 84 % 1016,3 hPa 0,0 l/m 4,3 km/h (1 Bft) N-NO 22 0 min 0,000 mm 1,7 UV-I 229 W/m 17,6 C 20,4 C 6,4 km/h (2 Bft) 97,87 %
29.08.2016 10:30 20,4 C 83 % 1016,2 hPa 0,0 l/m 5,7 km/h (1 Bft) N-NO 25 0 min 0,000 mm 1,8 UV-I 232 W/m 17,4 C 20,4 C 11,3 km/h (2 Bft) 97,87 %
29.08.2016 10:32 20,4 C 83 % 1016,4 hPa 0,0 l/m 1,7 km/h (1 Bft) N-NW 341 0 min 0,000 mm 1,9 UV-I 236 W/m 17,4 C 20,4 C 4,8 km/h (1 Bft) 100,00 %
29.08.2016 10:34 20,4 C 84 % 1016,4 hPa 0,0 l/m 1,4 km/h (1 Bft) N-NW 344 0 min 0,000 mm 1,9 UV-I 237 W/m 17,6 C 20,4 C 3,2 km/h (1 Bft) 100,00 %
29.08.2016 10:36 20,4 C 84 % 1016,4 hPa 0,0 l/m 0,9 km/h (0 Bft) N 5 0 min 0,000 mm 1,9 UV-I 240 W/m 17,6 C 20,4 C 3,2 km/h (1 Bft) 100,00 %
29.08.2016 10:38 20,4 C 84 % 1016,4 hPa 0,0 l/m 1,3 km/h (1 Bft) N-NW 344 0 min 0,000 mm 2,0 UV-I 249 W/m 17,6 C 20,4 C 3,2 km/h (1 Bft) 100,00 %
29.08.2016 10:40 20,4 C 85 % 1016,4 hPa 0,0 l/m 0,6 km/h (0 Bft) N-NW 344 0 min 0,000 mm 2,1 UV-I 272 W/m 17,8 C 20,4 C 3,2 km/h (1 Bft) 100,00 %
29.08.2016 10:42 20,5 C 84 % 1016,5 hPa 0,0 l/m 0,5 km/h (0 Bft) N-NW 346 0 min 0,000 mm 2,1 UV-I 279 W/m 17,7 C 20,5 C 3,2 km/h (1 Bft) 100,00 %
29.08.2016 10:44 20,5 C 83 % 1016,5 hPa 0,0 l/m 1,3 km/h (1 Bft) N-NW 336 0 min 0,000 mm 2,1 UV-I 258 W/m 17,5 C 20,5 C 3,2 km/h (1 Bft) 97,87 %
29.08.2016 10:46 20,6 C 83 % 1016,4 hPa 0,0 l/m 1,6 km/h (1 Bft) N 11 0 min 0,000 mm 2,0 UV-I 246 W/m 17,6 C 20,6 C 4,8 km/h (1 Bft) 100,00 %
29.08.2016 10:48 20,5 C 82 % 1016,4 hPa 0,0 l/m 1,9 km/h (1 Bft) N-NW 330 0 min 0,000 mm 2,0 UV-I 221 W/m 17,3 C 20,5 C 4,8 km/h (1 Bft) 97,87 %
29.08.2016 10:50 20,5 C 83 % 1016,5 hPa 0,0 l/m 1,8 km/h (1 Bft) N 11 0 min 0,000 mm 1,9 UV-I 193 W/m 17,5 C 20,5 C 4,8 km/h (1 Bft) 97,92 %
29.08.2016 10:52 20,4 C 82 % 1016,5 hPa 0,0 l/m 1,5 km/h (1 Bft) NW 325 0 min 0,000 mm 1,9 UV-I 177 W/m 17,2 C 20,4 C 3,2 km/h (1 Bft) 100,00 %
29.08.2016 10:54 20,4 C 83 % 1016,6 hPa 0,0 l/m 1,9 km/h (1 Bft) N-NW 342 0 min 0,000 mm 2,0 UV-I 174 W/m 17,4 C 20,4 C 3,2 km/h (1 Bft) 100,00 %
29.08.2016 10:56 20,3 C 81 % 1016,6 hPa 0,0 l/m 2,6 km/h (1 Bft) N 351 0 min 0,000 mm 2,1 UV-I 207 W/m 16,9 C 20,3 C 4,8 km/h (1 Bft) 100,00 %
29.08.2016 10:58 20,3 C 81 % 1016,6 hPa 0,0 l/m 1,9 km/h (1 Bft) N-NW 333 0 min 0,000 mm 2,4 UV-I 275 W/m 16,9 C 20,3 C 3,2 km/h (1 Bft) 97,87 %
29.08.2016 11:00 20,3 C 82 % 1016,6 hPa 0,0 l/m 3,2 km/h (1 Bft) NW 311 0 min 0,153 mm 2,8 UV-I 313 W/m 17,1 C 20,3 C 6,4 km/h (2 Bft) 100,00 %
29.08.2016 11:02 20,3 C 82 % 1016,6 hPa 0,0 l/m 3,6 km/h (1 Bft) N-NW 333 0 min 0,000 mm 2,9 UV-I 316 W/m 17,1 C 20,3 C 8,0 km/h (2 Bft) 98,04 %
29.08.2016 11:04 20,4 C 82 % 1016,6 hPa 0,0 l/m 3,0 km/h (1 Bft) N-NW 348 0 min 0,000 mm 2,9 UV-I 352 W/m 17,2 C 20,4 C 4,8 km/h (1 Bft) 97,87 %
29.08.2016 11:06 20,6 C 84 % 1016,7 hPa 0,0 l/m 2,3 km/h (1 Bft) NW 326 2 min 0,000 mm 3,3 UV-I 381 W/m 17,8 C 20,6 C 4,8 km/h (1 Bft) 97,87 %
29.08.2016 11:08 20,8 C 82 % 1016,7 hPa 0,0 l/m 2,7 km/h (1 Bft) NW 308 0 min 0,000 mm 3,1 UV-I 364 W/m 17,6 C 20,8 C 4,8 km/h (1 Bft) 98,00 %
29.08.2016 11:10 20,9 C 82 % 1016,7 hPa 0,0 l/m 3,1 km/h (1 Bft) N-NW 327 0 min 0,000 mm 3,4 UV-I 359 W/m 17,7 C 20,9 C 6,4 km/h (2 Bft) 100,00 %
29.08.2016 11:12 21,0 C 82 % 1016,7 hPa 0,0 l/m 2,6 km/h (1 Bft) NW 323 2 min 0,000 mm 3,6 UV-I 458 W/m 17,8 C 21,0 C 4,8 km/h (1 Bft) 97,22 %
29.08.2016 11:14 21,1 C 82 % 1016,6 hPa 0,0 l/m 2,6 km/h (1 Bft) N 9 2 min 0,000 mm 3,2 UV-I 422 W/m 17,9 C 21,1 C 6,4 km/h (2 Bft) 100,00 %
29.08.2016 11:16 21,1 C 81 % 1016,7 hPa 0,0 l/m 1,9 km/h (1 Bft) N 5 0 min 0,000 mm 2,9 UV-I 378 W/m 17,7 C 21,1 C 3,2 km/h (1 Bft) 100,00 %
29.08.2016 11:18 21,2 C 81 % 1016,7 hPa 0,0 l/m 2,7 km/h (1 Bft) N 349 0 min 0,000 mm 2,9 UV-I 373 W/m 17,8 C 21,2 C 6,4 km/h (2 Bft) 100,00 %
29.08.2016 11:20 21,3 C 79 % 1016,7 hPa 0,0 l/m 1,3 km/h (1 Bft) N-NO 24 0 min 0,000 mm 2,9 UV-I 368 W/m 17,5 C 21,3 C 3,2 km/h (1 Bft) 100,00 %
29.08.2016 11:22 21,4 C 78 % 1016,7 hPa 0,0 l/m 1,1 km/h (1 Bft) N-NO 13 2 min 0,000 mm 3,1 UV-I 422 W/m 17,4 C 21,4 C 3,2 km/h (1 Bft) 100,00 %
29.08.2016 11:24 21,6 C 80 % 1016,7 hPa 0,0 l/m 2,6 km/h (1 Bft) N 349 2 min 0,000 mm 3,2 UV-I 465 W/m 18,0 C 21,6 C 6,4 km/h (2 Bft) 95,74 %
29.08.2016 11:26 21,8 C 79 % 1016,6 hPa 0,0 l/m 2,1 km/h (1 Bft) N-NO 12 2 min 0,000 mm 3,4 UV-I 482 W/m 18,0 C 21,8 C 4,8 km/h (1 Bft) 100,00 %
29.08.2016 11:28 21,8 C 79 % 1016,6 hPa 0,0 l/m 2,3 km/h (1 Bft) N 5 2 min 0,000 mm 2,8 UV-I 416 W/m 18,0 C 21,8 C 4,8 km/h (1 Bft) 97,87 %
29.08.2016 11:30 21,8 C 78 % 1016,6 hPa 0,0 l/m 2,5 km/h (1 Bft) N-NO 14 0 min 0,000 mm 2,6 UV-I 363 W/m 17,8 C 21,8 C 4,8 km/h (1 Bft) 100,00 %
29.08.2016 11:32 21,8 C 79 % 1016,7 hPa 0,0 l/m 1,7 km/h (1 Bft) N-NO 20 0 min 0,000 mm 2,5 UV-I 352 W/m 18,0 C 21,8 C 4,8 km/h (1 Bft) 100,00 %
29.08.2016 11:34 21,8 C 79 % 1016,6 hPa 0,0 l/m 1,7 km/h (1 Bft) N 360 0 min 0,000 mm 2,5 UV-I 355 W/m 18,0 C 21,8 C 3,2 km/h (1 Bft) 97,87 %
29.08.2016 11:36 21,8 C 78 % 1016,6 hPa 0,0 l/m 0,7 km/h (0 Bft) N 360 0 min 0,000 mm 2,4 UV-I 329 W/m 17,8 C 21,8 C 1,6 km/h (1 Bft) 100,00 %
29.08.2016 11:38 21,8 C 78 % 1016,6 hPa 0,0 l/m 0,7 km/h (0 Bft) N 11 0 min 0,000 mm 2,5 UV-I 331 W/m 17,8 C 21,8 C 3,2 km/h (1 Bft) 100,00 %
29.08.2016 11:40 21,8 C 79 % 1016,6 hPa 0,0 l/m 2,3 km/h (1 Bft) N-NO 24 0 min 0,000 mm 2,7 UV-I 366 W/m 18,0 C 21,8 C 4,8 km/h (1 Bft) 100,00 %
29.08.2016 11:42 21,9 C 79 % 1016,7 hPa 0,0 l/m 2,1 km/h (1 Bft) N-NO 17 2 min 0,000 mm 3,1 UV-I 417 W/m 18,1 C 21,9 C 4,8 km/h (1 Bft) 100,00 %
29.08.2016 11:44 22,1 C 78 % 1016,7 hPa 0,0 l/m 0,9 km/h (0 Bft) N-NW 342 2 min 0,000 mm 3,9 UV-I 574 W/m 18,1 C 22,1 C 1,6 km/h (1 Bft) 100,00 %
29.08.2016 11:46 22,3 C 77 % 1016,6 hPa 0,0 l/m 0,8 km/h (0 Bft) N-NW 342 2 min 0,000 mm 4,1 UV-I 683 W/m 18,1 C 22,3 C 3,2 km/h (1 Bft) 100,00 %
29.08.2016 11:48 22,4 C 78 % 1016,7 hPa 0,0 l/m 1,2 km/h (1 Bft) N 9 2 min 0,000 mm 4,4 UV-I 680 W/m 18,4 C 22,4 C 4,8 km/h (1 Bft) 97,87 %
29.08.2016 11:50 22,6 C 77 % 1016,5 hPa 0,0 l/m 2,2 km/h (1 Bft) N 11 2 min 0,000 mm 4,2 UV-I 687 W/m 18,4 C 22,6 C 4,8 km/h (1 Bft) 97,14 %
29.08.2016 11:52 22,8 C 78 % 1016,6 hPa 0,0 l/m 2,4 km/h (1 Bft) W-NW 286 2 min 0,000 mm 4,7 UV-I 722 W/m 18,8 C 22,8 C 8,0 km/h (2 Bft) 97,87 %
29.08.2016 11:54 22,8 C 74 % 1016,5 hPa 0,0 l/m 2,3 km/h (1 Bft) W 281 2 min 0,000 mm 4,7 UV-I 722 W/m 17,9 C 22,8 C 6,4 km/h (2 Bft) 97,87 %
29.08.2016 11:56 22,8 C 74 % 1016,5 hPa 0,0 l/m 1,1 km/h (1 Bft) W 281 2 min 0,000 mm 4,4 UV-I 722 W/m 17,9 C 22,8 C 3,2 km/h (1 Bft) 95,92 %
29.08.2016 11:58 22,9 C 74 % 1016,5 hPa 0,0 l/m 1,3 km/h (1 Bft) W 281 2 min 0,000 mm 4,8 UV-I 822 W/m 18,0 C 22,9 C 3,2 km/h (1 Bft) 97,87 %
29.08.2016 12:00 23,0 C 75 % 1016,5 hPa 0,0 l/m 1,2 km/h (1 Bft) N-NO 16 2 min 0,304 mm 4,7 UV-I 842 W/m 18,3 C 23,0 C 3,2 km/h (1 Bft) 91,49 %
29.08.2016 12:02 23,3 C 75 % 1016,5 hPa 0,0 l/m 1,6 km/h (1 Bft) NW 308 2 min 0,000 mm 4,5 UV-I 765 W/m 18,6 C 23,3 C 4,8 km/h (1 Bft) 97,87 %
29.08.2016 12:04 23,6 C 73 % 1016,5 hPa 0,0 l/m 2,6 km/h (1 Bft) NW 313 2 min 0,000 mm 4,1 UV-I 569 W/m 18,5 C 23,6 C 4,8 km/h (1 Bft) 97,87 %
29.08.2016 12:06 23,4 C 70 % 1016,5 hPa 0,0 l/m 3,6 km/h (1 Bft) W-NW 301 2 min 0,000 mm 3,4 UV-I 501 W/m 17,6 C 23,4 C 4,8 km/h (1 Bft) 95,74 %
29.08.2016 12:08 23,2 C 71 % 1016,5 hPa 0,0 l/m 2,9 km/h (1 Bft) W-NW 298 0 min 0,000 mm 3,1 UV-I 368 W/m 17,6 C 23,2 C 4,8 km/h (1 Bft) 97,87 %
29.08.2016 12:10 23,1 C 75 % 1016,5 hPa 0,0 l/m 0,4 km/h (0 Bft) W-NW 298 0 min 0,000 mm 2,9 UV-I 359 W/m 18,4 C 23,1 C 1,6 km/h (1 Bft) 97,87 %
29.08.2016 12:12 23,1 C 74 % 1016,5 hPa 0,0 l/m 3,4 km/h (1 Bft) W 265 0 min 0,000 mm 2,8 UV-I 340 W/m 18,2 C 23,1 C 6,4 km/h (2 Bft) 95,83 %
29.08.2016 12:14 23,1 C 72 % 1016,5 hPa 0,0 l/m 4,0 km/h (1 Bft) W 267 0 min 0,000 mm 2,6 UV-I 312 W/m 17,8 C 23,1 C 6,4 km/h (2 Bft) 97,87 %
29.08.2016 12:16 23,1 C 72 % 1016,6 hPa 0,0 l/m 3,9 km/h (1 Bft) W 259 0 min 0,000 mm 2,8 UV-I 326 W/m 17,8 C 23,1 C 6,4 km/h (2 Bft) 96,00 %
29.08.2016 12:18 23,2 C 74 % 1016,5 hPa 0,0 l/m 2,7 km/h (1 Bft) W 260 0 min 0,000 mm 3,2 UV-I 372 W/m 18,3 C 23,2 C 4,8 km/h (1 Bft) 95,74 %
29.08.2016 12:20 23,2 C 73 % 1016,6 hPa 0,0 l/m 4,9 km/h (1 Bft) W-SW 250 2 min 0,000 mm 3,7 UV-I 460 W/m 18,1 C 23,2 C 9,7 km/h (2 Bft) 93,62 %
29.08.2016 12:22 23,4 C 73 % 1016,6 hPa 0,0 l/m 3,7 km/h (1 Bft) SW 235 2 min 0,000 mm 4,6 UV-I 696 W/m 18,3 C 23,4 C 6,4 km/h (2 Bft) 97,87 %
29.08.2016 12:24 23,5 C 72 % 1016,6 hPa 0,0 l/m 5,4 km/h (1 Bft) W-SW 251 2 min 0,000 mm 4,6 UV-I 830 W/m 18,2 C 23,5 C 8,0 km/h (2 Bft) 97,87 %
29.08.2016 12:26 23,6 C 75 % 1016,6 hPa 0,0 l/m 4,0 km/h (1 Bft) SW 231 2 min 0,000 mm 4,9 UV-I 847 W/m 18,9 C 23,6 C 8,0 km/h (2 Bft) 97,87 %
29.08.2016 12:28 23,8 C 71 % 1016,6 hPa 0,0 l/m 3,7 km/h (1 Bft) S-SW 207 2 min 0,000 mm 4,2 UV-I 849 W/m 18,2 C 23,8 C 6,4 km/h (2 Bft) 100,00 %
29.08.2016 12:30 23,9 C 70 % 1016,7 hPa 0,0 l/m 8,2 km/h (2 Bft) W-SW 252 2 min 0,000 mm 3,4 UV-I 701 W/m 18,1 C 23,4 C 14,5 km/h (3 Bft) 100,00 %
29.08.2016 12:32 23,9 C 71 % 1016,7 hPa 0,0 l/m 8,9 km/h (2 Bft) W 261 0 min 0,000 mm 2,5 UV-I 347 W/m 18,3 C 23,2 C 12,9 km/h (3 Bft) 97,87 %
29.08.2016 12:34 23,8 C 70 % 1016,7 hPa 0,0 l/m 3,4 km/h (1 Bft) W 262 0 min 0,000 mm 2,0 UV-I 267 W/m 18,0 C 23,8 C 9,7 km/h (2 Bft) 100,00 %
29.08.2016 12:36 23,8 C 74 % 1016,7 hPa 0,0 l/m 3,1 km/h (1 Bft) W-SW 248 0 min 0,000 mm 1,7 UV-I 228 W/m 18,9 C 23,8 C 6,4 km/h (2 Bft) 100,00 %
29.08.2016 12:38 23,8 C 73 % 1016,7 hPa 0,0 l/m 5,1 km/h (1 Bft) W-SW 240 0 min 0,000 mm 1,6 UV-I 217 W/m 18,7 C 23,8 C 9,7 km/h (2 Bft) 100,00 %
29.08.2016 12:40 23,6 C 72 % 1016,7 hPa 0,0 l/m 9,3 km/h (2 Bft) W 266 0 min 0,000 mm 1,8 UV-I 237 W/m 18,2 C 22,8 C 17,7 km/h (3 Bft) 97,87 %
29.08.2016 12:42 23,4 C 71 % 1016,7 hPa 0,0 l/m 6,8 km/h (2 Bft) SW 230 0 min 0,000 mm 1,9 UV-I 254 W/m 17,8 C 23,3 C 12,9 km/h (3 Bft) 100,00 %
29.08.2016 12:44 23,3 C 71 % 1016,7 hPa 0,0 l/m 6,6 km/h (2 Bft) W 260 0 min 0,000 mm 1,7 UV-I 231 W/m 17,7 C 23,2 C 12,9 km/h (3 Bft) 97,50 %
29.08.2016 12:46 23,2 C 73 % 1016,6 hPa 0,0 l/m 4,3 km/h (1 Bft) W-SW 252 0 min 0,000 mm 1,7 UV-I 229 W/m 18,1 C 23,2 C 8,0 km/h (2 Bft) 100,00 %
29.08.2016 12:48 23,2 C 73 % 1016,7 hPa 0,0 l/m 3,7 km/h (1 Bft) W-SW 253 0 min 0,000 mm 1,8 UV-I 230 W/m 18,1 C 23,2 C 6,4 km/h (2 Bft) 100,00 %
29.08.2016 12:50 23,1 C 74 % 1016,7 hPa 0,0 l/m 4,0 km/h (1 Bft) W 281 0 min 0,000 mm 1,7 UV-I 214 W/m 18,2 C 23,1 C 12,9 km/h (3 Bft) 97,87 %
29.08.2016 12:52 23,1 C 74 % 1016,6 hPa 0,0 l/m 4,6 km/h (1 Bft) W-NW 283 0 min 0,000 mm 1,7 UV-I 210 W/m 18,2 C 23,1 C 12,9 km/h (3 Bft) 97,92 %
29.08.2016 12:54 23,0 C 73 % 1016,7 hPa 0,0 l/m 4,4 km/h (1 Bft) S 169 0 min 0,000 mm 1,8 UV-I 213 W/m 17,9 C 23,0 C 11,3 km/h (2 Bft) 100,00 %
29.08.2016 12:56 22,9 C 72 % 1016,7 hPa 0,0 l/m 7,5 km/h (2 Bft) W-NW 287 0 min 0,000 mm 1,9 UV-I 216 W/m 17,6 C 22,5 C 12,9 km/h (3 Bft) 100,00 %
29.08.2016 12:58 22,8 C 73 % 1016,8 hPa 0,0 l/m 7,7 km/h (2 Bft) W-SW 256 0 min 0,000 mm 1,8 UV-I 206 W/m 17,7 C 22,4 C 12,9 km/h (3 Bft) 98,00 %
29.08.2016 13:00 22,8 C 73 % 1016,8 hPa 0,0 l/m 3,2 km/h (1 Bft) W-SW 252 0 min 0,000 mm 1,6 UV-I 179 W/m 17,7 C 22,8 C 9,7 km/h (2 Bft) 100,00 %
29.08.2016 13:02 22,7 C 74 % 1016,9 hPa 0,0 l/m 6,7 km/h (2 Bft) SW 230 0 min 0,254 mm 1,4 UV-I 155 W/m 17,8 C 22,6 C 12,9 km/h (3 Bft) 100,00 %
29.08.2016 13:04 22,7 C 74 % 1016,9 hPa 0,0 l/m 5,3 km/h (1 Bft) W-NW 296 0 min 0,000 mm 1,2 UV-I 139 W/m 17,8 C 22,7 C 14,5 km/h (3 Bft) 100,00 %
29.08.2016 13:06 22,6 C 74 % 1016,8 hPa 0,0 l/m 8,1 km/h (2 Bft) W-SW 242 0 min 0,000 mm 1,2 UV-I 143 W/m 17,7 C 22,1 C 14,5 km/h (3 Bft) 100,00 %
29.08.2016 13:08 22,5 C 75 % 1016,8 hPa 0,0 l/m 2,3 km/h (1 Bft) NO 39 0 min 0,000 mm 1,3 UV-I 153 W/m 17,8 C 22,5 C 3,2 km/h (1 Bft) 100,00 %
29.08.2016 13:10 22,5 C 76 % 1016,8 hPa 0,0 l/m 2,6 km/h (1 Bft) W-NW 285 0 min 0,000 mm 1,4 UV-I 166 W/m 18,0 C 22,5 C 4,8 km/h (1 Bft) 100,00 %
29.08.2016 13:12 22,5 C 74 % 1016,9 hPa 0,0 l/m 3,9 km/h (1 Bft) W 267 0 min 0,000 mm 1,5 UV-I 186 W/m 17,6 C 22,5 C 9,7 km/h (2 Bft) 100,00 %
29.08.2016 13:14 22,4 C 74 % 1016,8 hPa 0,0 l/m 1,3 km/h (1 Bft) W-NW 289 0 min 0,000 mm 1,7 UV-I 205 W/m 17,5 C 22,4 C 4,8 km/h (1 Bft) 100,00 %
29.08.2016 13:16 22,4 C 74 % 1016,8 hPa 0,0 l/m 4,4 km/h (1 Bft) S-SO 163 0 min 0,000 mm 1,8 UV-I 227 W/m 17,5 C 22,4 C 11,3 km/h (2 Bft) 100,00 %
29.08.2016 13:18 22,5 C 74 % 1016,8 hPa 0,0 l/m 4,4 km/h (1 Bft) W 278 0 min 0,000 mm 2,1 UV-I 262 W/m 17,6 C 22,5 C 12,9 km/h (3 Bft) 100,00 %
29.08.2016 13:20 22,6 C 74 % 1016,9 hPa 0,0 l/m 3,8 km/h (1 Bft) N-NO 18 0 min 0,000 mm 2,3 UV-I 300 W/m 17,7 C 22,6 C 14,5 km/h (3 Bft) 100,00 %
29.08.2016 13:22 22,7 C 74 % 1016,9 hPa 0,0 l/m 1,5 km/h (1 Bft) W 261 0 min 0,000 mm 2,5 UV-I 322 W/m 17,8 C 22,7 C 3,2 km/h (1 Bft) 100,00 %
29.08.2016 13:24 22,9 C 76 % 1016,9 hPa 0,0 l/m 2,9 km/h (1 Bft) SW 220 0 min 0,000 mm 2,7 UV-I 352 W/m 18,4 C 22,9 C 8,0 km/h (2 Bft) 97,87 %
29.08.2016 13:26 23,1 C 74 % 1016,8 hPa 0,0 l/m 4,7 km/h (1 Bft) W-NW 284 2 min 0,000 mm 3,5 UV-I 432 W/m 18,2 C 23,1 C 11,3 km/h (2 Bft) 97,87 %
29.08.2016 13:28 23,2 C 75 % 1016,8 hPa 0,0 l/m 6,7 km/h (2 Bft) NW 317 2 min 0,000 mm 4,1 UV-I 897 W/m 18,5 C 23,1 C 16,1 km/h (3 Bft) 97,92 %
29.08.2016 13:30 23,3 C 73 % 1016,7 hPa 0,0 l/m 5,2 km/h (1 Bft) N-NW 345 2 min 0,000 mm 3,5 UV-I 458 W/m 18,2 C 23,3 C 11,3 km/h (2 Bft) 100,00 %
29.08.2016 13:32 23,3 C 72 % 1016,8 hPa 0,0 l/m 7,1 km/h (2 Bft) NW 317 2 min 0,000 mm 3,8 UV-I 572 W/m 18,0 C 23,1 C 14,5 km/h (3 Bft) 100,00 %
29.08.2016 13:34 23,2 C 73 % 1016,7 hPa 0,0 l/m 5,8 km/h (2 Bft) N-NW 327 2 min 0,000 mm 3,6 UV-I 452 W/m 18,1 C 23,2 C 12,9 km/h (3 Bft) 100,00 %
29.08.2016 13:36 23,1 C 73 % 1016,8 hPa 0,0 l/m 4,1 km/h (1 Bft) W 274 0 min 0,000 mm 3,5 UV-I 407 W/m 18,0 C 23,1 C 11,3 km/h (2 Bft) 100,00 %
29.08.2016 13:38 23,0 C 73 % 1016,9 hPa 0,0 l/m 4,5 km/h (1 Bft) N 355 0 min 0,000 mm 3,5 UV-I 401 W/m 17,9 C 23,0 C 9,7 km/h (2 Bft) 97,87 %
29.08.2016 13:40 23,0 C 73 % 1016,8 hPa 0,0 l/m 5,8 km/h (2 Bft) N-NW 342 2 min 0,000 mm 3,8 UV-I 454 W/m 17,9 C 23,0 C 11,3 km/h (2 Bft) 98,00 %
29.08.2016 13:42 23,1 C 72 % 1016,9 hPa 0,0 l/m 7,0 km/h (2 Bft) NW 325 2 min 0,000 mm 4,8 UV-I 722 W/m 17,8 C 22,9 C 16,1 km/h (3 Bft) 97,87 %
29.08.2016 13:44 23,3 C 72 % 1016,8 hPa 0,0 l/m 4,9 km/h (1 Bft) NW 325 2 min 0,000 mm 4,0 UV-I 721 W/m 18,0 C 23,3 C 11,3 km/h (2 Bft) 95,74 %
29.08.2016 13:46 23,3 C 72 % 1016,9 hPa 0,0 l/m 6,7 km/h (2 Bft) W-NW 292 2 min 0,000 mm 3,6 UV-I 431 W/m 18,0 C 23,2 C 14,5 km/h (3 Bft) 95,74 %
29.08.2016 13:48 23,3 C 72 % 1016,9 hPa 0,0 l/m 7,4 km/h (2 Bft) W 272 2 min 0,000 mm 3,9 UV-I 514 W/m 18,0 C 23,0 C 12,9 km/h (3 Bft) 95,74 %
29.08.2016 13:50 23,3 C 72 % 1016,9 hPa 0,0 l/m 4,5 km/h (1 Bft) S-SW 198 2 min 0,000 mm 3,7 UV-I 485 W/m 18,0 C 23,3 C 11,3 km/h (2 Bft) 97,87 %
29.08.2016 13:52 23,4 C 71 % 1017,0 hPa 0,0 l/m 3,3 km/h (1 Bft) W-SW 245 2 min 0,000 mm 3,8 UV-I 447 W/m 17,8 C 23,4 C 6,4 km/h (2 Bft) 95,74 %
29.08.2016 13:54 23,6 C 72 % 1017,0 hPa 0,0 l/m 4,9 km/h (1 Bft) W 266 2 min 0,000 mm 3,6 UV-I 458 W/m 18,2 C 23,6 C 14,5 km/h (3 Bft) 93,62 %
29.08.2016 13:56 23,5 C 71 % 1017,0 hPa 0,0 l/m 5,9 km/h (2 Bft) N-NW 329 2 min 0,000 mm 3,6 UV-I 471 W/m 17,9 C 23,5 C 11,3 km/h (2 Bft) 97,14 %
29.08.2016 13:58 23,5 C 70 % 1017,1 hPa 0,0 l/m 6,6 km/h (2 Bft) W-NW 299 2 min 0,000 mm 3,7 UV-I 479 W/m 17,7 C 23,4 C 14,5 km/h (3 Bft) 96,00 %
29.08.2016 14:00 23,4 C 70 % 1017,0 hPa 0,0 l/m 7,3 km/h (2 Bft) W-SW 248 2 min 0,254 mm 3,3 UV-I 432 W/m 17,6 C 23,1 C 14,5 km/h (3 Bft) 95,74 %
29.08.2016 14:02 23,3 C 70 % 1017,0 hPa 0,0 l/m 4,7 km/h (1 Bft) S-SO 163 2 min 0,000 mm 3,1 UV-I 415 W/m 17,5 C 23,3 C 8,0 km/h (2 Bft) 95,74 %
29.08.2016 14:04 23,2 C 70 % 1017,0 hPa 0,0 l/m 5,7 km/h (1 Bft) W 259 0 min 0,000 mm 2,7 UV-I 366 W/m 17,4 C 23,2 C 14,5 km/h (3 Bft) 97,87 %
29.08.2016 14:06 23,1 C 72 % 1017,0 hPa 0,0 l/m 5,6 km/h (1 Bft) NW 315 0 min 0,000 mm 2,1 UV-I 261 W/m 17,8 C 23,1 C 12,9 km/h (3 Bft) 97,87 %
29.08.2016 14:08 23,1 C 72 % 1017,1 hPa 0,0 l/m 4,6 km/h (1 Bft) S-SW 202 0 min 0,000 mm 1,9 UV-I 233 W/m 17,8 C 23,1 C 12,9 km/h (3 Bft) 95,74 %
29.08.2016 14:10 22,9 C 72 % 1017,1 hPa 0,0 l/m 3,7 km/h (1 Bft) N-NW 343 0 min 0,000 mm 1,9 UV-I 250 W/m 17,6 C 22,9 C 11,3 km/h (2 Bft) 97,92 %
29.08.2016 14:12 22,9 C 73 % 1017,0 hPa 0,0 l/m 3,6 km/h (1 Bft) N-NW 333 0 min 0,000 mm 2,2 UV-I 324 W/m 17,8 C 22,9 C 11,3 km/h (2 Bft) 97,87 %
29.08.2016 14:14 22,9 C 74 % 1017,0 hPa 0,0 l/m 3,9 km/h (1 Bft) W-SW 255 0 min 0,000 mm 2,2 UV-I 326 W/m 18,0 C 22,9 C 11,3 km/h (2 Bft) 95,74 %
29.08.2016 14:16 23,1 C 74 % 1016,9 hPa 0,0 l/m 1,9 km/h (1 Bft) O-NO 58 0 min 0,000 mm 2,2 UV-I 307 W/m 18,2 C 23,1 C 4,8 km/h (1 Bft) 98,00 %
29.08.2016 14:18 23,1 C 73 % 1016,8 hPa 0,0 l/m 3,4 km/h (1 Bft) W-NW 288 0 min 0,000 mm 2,4 UV-I 333 W/m 18,0 C 23,1 C 8,0 km/h (2 Bft) 97,87 %
29.08.2016 14:20 23,1 C 74 % 1016,8 hPa 0,0 l/m 3,2 km/h (1 Bft) N-NW 329 0 min 0,000 mm 2,5 UV-I 339 W/m 18,2 C 23,1 C 8,0 km/h (2 Bft) 97,87 %
29.08.2016 14:22 23,1 C 73 % 1016,8 hPa 0,0 l/m 6,1 km/h (2 Bft) N 360 0 min 0,000 mm 2,8 UV-I 400 W/m 18,0 C 23,1 C 16,1 km/h (3 Bft) 95,74 %
29.08.2016 14:24 23,1 C 74 % 1016,8 hPa 0,0 l/m 4,5 km/h (1 Bft) NW 316 0 min 0,000 mm 2,6 UV-I 313 W/m 18,2 C 23,1 C 12,9 km/h (3 Bft) 100,00 %
29.08.2016 14:26 23,0 C 74 % 1016,8 hPa 0,0 l/m 5,1 km/h (1 Bft) W 278 0 min 0,000 mm 2,2 UV-I 257 W/m 18,1 C 23,0 C 12,9 km/h (3 Bft) 100,00 %
29.08.2016 14:28 22,8 C 74 % 1016,8 hPa 0,0 l/m 7,6 km/h (2 Bft) N-NW 331 0 min 0,000 mm 1,7 UV-I 206 W/m 17,9 C 22,4 C 16,1 km/h (3 Bft) 100,00 %
29.08.2016 14:30 22,6 C 76 % 1016,8 hPa 0,0 l/m 4,0 km/h (1 Bft) N-NO 13 0 min 0,000 mm 1,3 UV-I 163 W/m 18,1 C 22,6 C 8,0 km/h (2 Bft) 100,00 %
29.08.2016 14:32 22,5 C 76 % 1016,8 hPa 0,0 l/m 5,6 km/h (1 Bft) S-SW 205 0 min 0,000 mm 1,1 UV-I 130 W/m 18,0 C 22,5 C 14,5 km/h (3 Bft) 100,00 %
29.08.2016 14:34 22,3 C 77 % 1016,9 hPa 0,0 l/m 2,8 km/h (1 Bft) SW 217 0 min 0,000 mm 0,8 UV-I 106 W/m 18,1 C 22,3 C 12,9 km/h (3 Bft) 100,00 %
29.08.2016 14:36 22,3 C 77 % 1016,9 hPa 0,0 l/m 3,7 km/h (1 Bft) NW 309 0 min 0,000 mm 0,8 UV-I 98 W/m 18,1 C 22,3 C 9,7 km/h (2 Bft) 100,00 %
29.08.2016 14:38 22,2 C 78 % 1016,8 hPa 0,0 l/m 6,7 km/h (2 Bft) W 267 0 min 0,000 mm 0,8 UV-I 99 W/m 18,2 C 22,1 C 17,7 km/h (3 Bft) 98,00 %
29.08.2016 14:40 22,1 C 77 % 1016,8 hPa 0,0 l/m 4,8 km/h (1 Bft) NW 321 0 min 0,000 mm 0,8 UV-I 103 W/m 17,9 C 22,1 C 12,9 km/h (3 Bft) 100,00 %
29.08.2016 14:42 21,9 C 77 % 1016,7 hPa 0,0 l/m 5,4 km/h (1 Bft) NW 315 0 min 0,000 mm 0,6 UV-I 83 W/m 17,7 C 21,9 C 16,1 km/h (3 Bft) 100,00 %
29.08.2016 14:44 21,9 C 78 % 1016,7 hPa 0,0 l/m 5,1 km/h (1 Bft) N 11 0 min 0,000 mm 0,3 UV-I 63 W/m 17,9 C 21,9 C 9,7 km/h (2 Bft) 93,62 %
29.08.2016 14:46 21,8 C 78 % 1016,6 hPa 0,0 l/m 4,6 km/h (1 Bft) N-NW 337 0 min 0,000 mm 0,0 UV-I 52 W/m 17,8 C 21,8 C 12,9 km/h (3 Bft) 100,00 %
29.08.2016 14:48 21,7 C 78 % 1016,7 hPa 0,0 l/m 5,9 km/h (2 Bft) NW 321 0 min 0,000 mm 0,0 UV-I 46 W/m 17,7 C 21,7 C 16,1 km/h (3 Bft) 100,00 %
29.08.2016 14:50 21,7 C 79 % 1016,7 hPa 0,0 l/m 3,3 km/h (1 Bft) W-NW 284 0 min 0,000 mm 0,0 UV-I 44 W/m 17,9 C 21,7 C 9,7 km/h (2 Bft) 95,74 %
29.08.2016 14:52 21,6 C 80 % 1016,8 hPa 0,0 l/m 3,7 km/h (1 Bft) NO 35 0 min 0,000 mm 0,0 UV-I 46 W/m 18,0 C 21,6 C 9,7 km/h (2 Bft) 100,00 %
29.08.2016 14:54 21,5 C 81 % 1016,8 hPa 0,0 l/m 2,6 km/h (1 Bft) W-NW 288 0 min 0,000 mm 0,0 UV-I 50 W/m 18,1 C 21,5 C 9,7 km/h (2 Bft) 97,87 %
29.08.2016 14:56 21,4 C 81 % 1016,9 hPa 0,0 l/m 3,0 km/h (1 Bft) W-NW 289 0 min 0,000 mm 0,0 UV-I 52 W/m 18,0 C 21,4 C 8,0 km/h (2 Bft) 98,00 %
29.08.2016 14:58 21,4 C 82 % 1016,9 hPa 0,0 l/m 0,6 km/h (0 Bft) W-NW 288 0 min 0,000 mm 0,0 UV-I 48 W/m 18,2 C 21,4 C 3,2 km/h (1 Bft) 100,00 %
29.08.2016 15:00 21,3 C 82 % 1016,9 hPa 0,0 l/m 1,5 km/h (1 Bft) N 9 0 min 0,000 mm 0,0 UV-I 46 W/m 18,1 C 21,3 C 3,2 km/h (1 Bft) 100,00 %
29.08.2016 15:02 21,2 C 83 % 1016,9 hPa 0,0 l/m 1,0 km/h (0 Bft) N-NW 346 0 min 0,127 mm 0,0 UV-I 48 W/m 18,2 C 21,2 C 3,2 km/h (1 Bft) 98,00 %
29.08.2016 15:04 21,1 C 84 % 1016,9 hPa 0,0 l/m 0,9 km/h (0 Bft) N 11 0 min 0,000 mm 0,0 UV-I 50 W/m 18,3 C 21,1 C 4,8 km/h (1 Bft) 97,87 %
29.08.2016 15:06 20,9 C 83 % 1016,9 hPa 0,0 l/m 1,5 km/h (1 Bft) W-NW 292 0 min 0,000 mm 0,0 UV-I 51 W/m 17,9 C 20,9 C 4,8 km/h (1 Bft) 97,87 %
29.08.2016 15:08 20,9 C 83 % 1017,0 hPa 0,0 l/m 1,3 km/h (1 Bft) N-NW 340 0 min 0,000 mm 0,0 UV-I 50 W/m 17,9 C 20,9 C 4,8 km/h (1 Bft) 100,00 %
29.08.2016 15:10 20,8 C 83 % 1017,0 hPa 0,0 l/m 2,7 km/h (1 Bft) SW 229 0 min 0,000 mm 0,0 UV-I 46 W/m 17,8 C 20,8 C 4,8 km/h (1 Bft) 100,00 %
29.08.2016 15:12 20,8 C 84 % 1017,0 hPa 0,0 l/m 1,6 km/h (1 Bft) SW 229 0 min 0,000 mm 0,0 UV-I 42 W/m 18,0 C 20,8 C 4,8 km/h (1 Bft) 100,00 %
29.08.2016 15:14 20,8 C 83 % 1017,1 hPa 0,0 l/m 2,6 km/h (1 Bft) SW 229 0 min 0,000 mm 0,0 UV-I 40 W/m 17,8 C 20,8 C 4,8 km/h (1 Bft) 100,00 %
29.08.2016 15:16 20,8 C 84 % 1017,2 hPa 0,0 l/m 3,3 km/h (1 Bft) SW 230 0 min 0,000 mm 0,0 UV-I 40 W/m 18,0 C 20,8 C 4,8 km/h (1 Bft) 100,00 %
29.08.2016 15:18 20,8 C 84 % 1017,2 hPa 0,0 l/m 4,4 km/h (1 Bft) S-SW 206 0 min 0,000 mm 0,0 UV-I 43 W/m 18,0 C 20,8 C 8,0 km/h (2 Bft) 100,00 %
29.08.2016 15:20 20,8 C 86 % 1017,3 hPa 0,0 l/m 6,0 km/h (2 Bft) S 188 0 min 0,000 mm 0,0 UV-I 45 W/m 18,4 C 20,8 C 9,7 km/h (2 Bft) 100,00 %
29.08.2016 15:22 20,8 C 86 % 1017,3 hPa 0,2 l/m 7,8 km/h (2 Bft) S-SW 201 0 min 0,000 mm 0,0 UV-I 50 W/m 18,4 C 20,3 C 11,3 km/h (2 Bft) 97,87 %
29.08.2016 15:24 20,8 C 86 % 1017,4 hPa 0,0 l/m 6,6 km/h (2 Bft) S-SW 199 0 min 0,000 mm 0,0 UV-I 60 W/m 18,4 C 20,7 C 12,9 km/h (3 Bft) 97,92 %
29.08.2016 15:26 20,7 C 85 % 1017,4 hPa 0,0 l/m 8,2 km/h (2 Bft) SW 219 0 min 0,000 mm 0,2 UV-I 72 W/m 18,1 C 20,0 C 11,3 km/h (2 Bft) 100,00 %
29.08.2016 15:28 20,7 C 85 % 1017,5 hPa 0,0 l/m 10,6 km/h (2 Bft) S-SW 206 0 min 0,000 mm 0,5 UV-I 83 W/m 18,1 C 19,2 C 17,7 km/h (3 Bft) 100,00 %
29.08.2016 15:30 20,6 C 85 % 1017,5 hPa 0,0 l/m 10,7 km/h (2 Bft) S-SW 208 0 min 0,000 mm 0,6 UV-I 90 W/m 18,0 C 19,1 C 16,1 km/h (3 Bft) 100,00 %
29.08.2016 15:32 20,5 C 85 % 1017,5 hPa 0,0 l/m 10,1 km/h (2 Bft) SW 236 0 min 0,000 mm 0,6 UV-I 94 W/m 17,9 C 19,2 C 14,5 km/h (3 Bft) 96,00 %
29.08.2016 15:34 20,4 C 86 % 1017,4 hPa 0,2 l/m 9,9 km/h (2 Bft) S 190 0 min 0,000 mm 0,6 UV-I 98 W/m 18,0 C 19,1 C 12,9 km/h (3 Bft) 95,74 %
29.08.2016 15:36 20,4 C 86 % 1017,4 hPa 0,0 l/m 9,2 km/h (2 Bft) SW 232 0 min 0,000 mm 0,6 UV-I 98 W/m 18,0 C 19,3 C 12,9 km/h (3 Bft) 97,87 %
29.08.2016 15:38 20,3 C 87 % 1017,4 hPa 0,0 l/m 8,4 km/h (2 Bft) S-SW 207 0 min 0,000 mm 0,6 UV-I 96 W/m 18,1 C 19,5 C 12,9 km/h (3 Bft) 100,00 %
29.08.2016 15:40 20,3 C 87 % 1017,4 hPa 0,0 l/m 6,7 km/h (2 Bft) S-SW 194 0 min 0,000 mm 0,6 UV-I 94 W/m 18,1 C 20,2 C 11,3 km/h (2 Bft) 100,00 %
29.08.2016 15:42 20,3 C 87 % 1017,4 hPa 0,0 l/m 8,2 km/h (2 Bft) S-SW 196 0 min 0,000 mm 0,6 UV-I 95 W/m 18,1 C 19,6 C 11,3 km/h (2 Bft) 97,92 %
29.08.2016 15:44 20,3 C 88 % 1017,3 hPa 0,2 l/m 7,5 km/h (2 Bft) S-SW 206 0 min 0,000 mm 0,6 UV-I 94 W/m 18,2 C 19,9 C 11,3 km/h (2 Bft) 93,62 %
29.08.2016 15:46 20,4 C 89 % 1017,3 hPa 0,0 l/m 7,5 km/h (2 Bft) SW 217 0 min 0,000 mm 0,6 UV-I 90 W/m 18,5 C 20,0 C 11,3 km/h (2 Bft) 97,87 %
29.08.2016 15:48 20,3 C 87 % 1017,2 hPa 0,0 l/m 7,4 km/h (2 Bft) S 179 0 min 0,000 mm 0,5 UV-I 83 W/m 18,1 C 19,9 C 11,3 km/h (2 Bft) 95,74 %
29.08.2016 15:50 20,1 C 87 % 1017,2 hPa 0,2 l/m 8,2 km/h (2 Bft) S-SW 204 0 min 0,000 mm 0,5 UV-I 76 W/m 17,9 C 19,4 C 14,5 km/h (3 Bft) 97,87 %
29.08.2016 15:52 20,0 C 89 % 1017,2 hPa 0,2 l/m 9,1 km/h (2 Bft) W-SW 238 0 min 0,000 mm 0,5 UV-I 76 W/m 18,1 C 18,9 C 16,1 km/h (3 Bft) 97,92 %
29.08.2016 15:54 19,9 C 89 % 1017,2 hPa 0,0 l/m 8,2 km/h (2 Bft) S-SW 193 0 min 0,000 mm 0,5 UV-I 81 W/m 18,0 C 19,2 C 14,5 km/h (3 Bft) 97,87 %
29.08.2016 15:56 19,8 C 90 % 1017,2 hPa 0,2 l/m 7,6 km/h (2 Bft) S-SW 193 0 min 0,000 mm 0,5 UV-I 87 W/m 18,1 C 19,3 C 14,5 km/h (3 Bft) 97,37 %
29.08.2016 15:58 19,8 C 90 % 1017,1 hPa 0,0 l/m 6,4 km/h (2 Bft) W-SW 248 0 min 0,000 mm 0,5 UV-I 92 W/m 18,1 C 19,8 C 9,7 km/h (2 Bft) 96,00 %
29.08.2016 16:00 19,7 C 90 % 1017,1 hPa 0,2 l/m 8,8 km/h (2 Bft) S-SW 201 0 min 0,051 mm 0,6 UV-I 96 W/m 18,0 C 18,7 C 14,5 km/h (3 Bft) 97,87 %
29.08.2016 16:02 19,7 C 91 % 1017,1 hPa 0,0 l/m 5,1 km/h (1 Bft) S-SW 194 0 min 0,000 mm 0,6 UV-I 99 W/m 18,2 C 19,7 C 6,4 km/h (2 Bft) 96,00 %
29.08.2016 16:04 19,7 C 91 % 1017,1 hPa 0,0 l/m 6,1 km/h (2 Bft) SW 227 0 min 0,000 mm 0,6 UV-I 102 W/m 18,2 C 19,7 C 11,3 km/h (2 Bft) 97,87 %
29.08.2016 16:06 19,8 C 91 % 1017,1 hPa 0,0 l/m 6,5 km/h (2 Bft) SW 215 0 min 0,000 mm 0,6 UV-I 105 W/m 18,3 C 19,8 C 12,9 km/h (3 Bft) 95,74 %
29.08.2016 16:08 19,9 C 91 % 1017,1 hPa 0,0 l/m 6,7 km/h (2 Bft) SW 233 0 min 0,000 mm 0,6 UV-I 107 W/m 18,4 C 19,8 C 11,3 km/h (2 Bft) 96,00 %
29.08.2016 16:10 20,0 C 92 % 1017,1 hPa 0,0 l/m 9,0 km/h (2 Bft) S-SW 208 0 min 0,000 mm 0,7 UV-I 108 W/m 18,7 C 19,0 C 12,9 km/h (3 Bft) 97,44 %
29.08.2016 16:12 20,1 C 91 % 1017,1 hPa 0,0 l/m 9,6 km/h (2 Bft) S-SW 192 0 min 0,000 mm 0,7 UV-I 115 W/m 18,6 C 18,9 C 12,9 km/h (3 Bft) 95,74 %
29.08.2016 16:14 20,0 C 91 % 1017,1 hPa 0,0 l/m 7,9 km/h (2 Bft) S-SW 203 0 min 0,000 mm 0,8 UV-I 124 W/m 18,5 C 19,4 C 11,3 km/h (2 Bft) 100,00 %
29.08.2016 16:16 20,0 C 91 % 1017,1 hPa 0,0 l/m 8,9 km/h (2 Bft) SW 219 0 min 0,000 mm 0,8 UV-I 132 W/m 18,5 C 19,0 C 19,3 km/h (3 Bft) 100,00 %
29.08.2016 16:18 19,9 C 91 % 1017,2 hPa 0,0 l/m 11,6 km/h (2 Bft) SW 226 0 min 0,000 mm 0,8 UV-I 134 W/m 18,4 C 18,0 C 19,3 km/h (3 Bft) 95,74 %
29.08.2016 16:20 19,9 C 92 % 1017,2 hPa 0,0 l/m 11,0 km/h (2 Bft) S-SW 211 0 min 0,000 mm 0,8 UV-I 134 W/m 18,6 C 18,2 C 16,1 km/h (3 Bft) 97,87 %
29.08.2016 16:22 19,9 C 92 % 1017,2 hPa 0,0 l/m 9,5 km/h (2 Bft) S-SW 205 0 min 0,000 mm 0,8 UV-I 134 W/m 18,6 C 18,7 C 14,5 km/h (3 Bft) 98,11 %
29.08.2016 16:24 20,0 C 92 % 1017,2 hPa 0,0 l/m 10,7 km/h (2 Bft) S-SW 195 0 min 0,000 mm 0,8 UV-I 137 W/m 18,7 C 18,4 C 17,7 km/h (3 Bft) 100,00 %
29.08.2016 16:26 19,9 C 92 % 1017,2 hPa 0,0 l/m 9,8 km/h (2 Bft) S-SW 213 0 min 0,000 mm 0,8 UV-I 135 W/m 18,6 C 18,6 C 17,7 km/h (3 Bft) 100,00 %
29.08.2016 16:28 19,9 C 91 % 1017,2 hPa 0,0 l/m 9,5 km/h (2 Bft) W 277 0 min 0,000 mm 0,7 UV-I 126 W/m 18,4 C 18,7 C 17,7 km/h (3 Bft) 97,30 %
29.08.2016 16:30 19,9 C 91 % 1017,2 hPa 0,0 l/m 13,0 km/h (3 Bft) S-SW 194 0 min 0,000 mm 0,6 UV-I 111 W/m 18,4 C 17,6 C 20,9 km/h (4 Bft) 97,87 %
29.08.2016 16:32 19,9 C 91 % 1017,1 hPa 0,0 l/m 15,9 km/h (3 Bft) SW 216 0 min 0,000 mm 0,5 UV-I 96 W/m 18,4 C 16,9 C 27,4 km/h (4 Bft) 100,00 %
29.08.2016 16:34 19,8 C 91 % 1017,2 hPa 0,0 l/m 14,7 km/h (3 Bft) W-SW 240 0 min 0,000 mm 0,4 UV-I 86 W/m 18,3 C 17,1 C 24,1 km/h (4 Bft) 100,00 %
29.08.2016 16:36 19,8 C 91 % 1017,2 hPa 0,0 l/m 16,6 km/h (3 Bft) SW 236 0 min 0,000 mm 0,0 UV-I 77 W/m 18,3 C 16,6 C 27,4 km/h (4 Bft) 100,00 %
29.08.2016 16:38 19,7 C 91 % 1017,2 hPa 0,0 l/m 16,9 km/h (3 Bft) SW 233 0 min 0,000 mm 0,0 UV-I 70 W/m 18,2 C 16,4 C 25,7 km/h (4 Bft) 100,00 %
29.08.2016 16:40 19,7 C 90 % 1017,1 hPa 0,0 l/m 15,8 km/h (3 Bft) SW 214 0 min 0,000 mm 0,0 UV-I 67 W/m 18,0 C 16,7 C 20,9 km/h (4 Bft) 100,00 %
29.08.2016 16:42 19,7 C 90 % 1017,2 hPa 0,0 l/m 12,5 km/h (3 Bft) SW 221 0 min 0,000 mm 0,0 UV-I 63 W/m 18,0 C 17,5 C 20,9 km/h (4 Bft) 97,92 %
29.08.2016 16:44 19,7 C 90 % 1017,1 hPa 0,0 l/m 8,8 km/h (2 Bft) W-SW 241 0 min 0,000 mm 0,0 UV-I 63 W/m 18,0 C 18,7 C 14,5 km/h (3 Bft) 100,00 %
29.08.2016 16:46 19,7 C 91 % 1017,1 hPa 0,0 l/m 11,2 km/h (2 Bft) SW 236 0 min 0,000 mm 0,0 UV-I 64 W/m 18,2 C 17,9 C 17,7 km/h (3 Bft) 97,87 %
29.08.2016 16:48 19,7 C 91 % 1017,1 hPa 0,0 l/m 12,4 km/h (3 Bft) SW 233 0 min 0,000 mm 0,0 UV-I 67 W/m 18,2 C 17,6 C 22,5 km/h (4 Bft) 100,00 %
29.08.2016 16:50 19,6 C 90 % 1017,1 hPa 0,0 l/m 11,4 km/h (2 Bft) SW 234 0 min 0,000 mm 0,0 UV-I 69 W/m 17,9 C 17,7 C 17,7 km/h (3 Bft) 100,00 %
29.08.2016 16:52 19,7 C 90 % 1017,1 hPa 0,0 l/m 8,5 km/h (2 Bft) S-SW 205 0 min 0,000 mm 0,0 UV-I 72 W/m 18,0 C 18,8 C 12,9 km/h (3 Bft) 100,00 %
29.08.2016 16:54 19,7 C 90 % 1017,1 hPa 0,0 l/m 8,6 km/h (2 Bft) S-SW 207 0 min 0,000 mm 0,0 UV-I 80 W/m 18,0 C 18,8 C 19,3 km/h (3 Bft) 100,00 %
29.08.2016 16:56 19,7 C 90 % 1017,1 hPa 0,0 l/m 10,1 km/h (2 Bft) S-SW 198 0 min 0,000 mm 0,0 UV-I 90 W/m 18,0 C 18,3 C 16,1 km/h (3 Bft) 100,00 %
29.08.2016 16:58 19,7 C 90 % 1017,1 hPa 0,0 l/m 9,8 km/h (2 Bft) S-SW 194 0 min 0,000 mm 0,0 UV-I 99 W/m 18,0 C 18,4 C 16,1 km/h (3 Bft) 97,87 %
29.08.2016 17:00 19,7 C 90 % 1017,2 hPa 0,0 l/m 10,3 km/h (2 Bft) S 189 0 min 0,076 mm 0,5 UV-I 112 W/m 18,0 C 18,2 C 16,1 km/h (3 Bft) 100,00 %
29.08.2016 17:02 19,7 C 90 % 1017,1 hPa 0,0 l/m 9,4 km/h (2 Bft) SW 232 0 min 0,000 mm 0,5 UV-I 119 W/m 18,0 C 18,5 C 14,5 km/h (3 Bft) 100,00 %
29.08.2016 17:04 19,7 C 90 % 1017,1 hPa 0,0 l/m 8,1 km/h (2 Bft) SW 221 0 min 0,000 mm 0,5 UV-I 120 W/m 18,0 C 19,0 C 14,5 km/h (3 Bft) 97,87 %
29.08.2016 17:06 19,7 C 89 % 1017,1 hPa 0,0 l/m 9,3 km/h (2 Bft) SW 235 0 min 0,000 mm 0,5 UV-I 116 W/m 17,8 C 18,6 C 12,9 km/h (3 Bft) 96,00 %
29.08.2016 17:08 19,7 C 89 % 1017,1 hPa 0,0 l/m 9,4 km/h (2 Bft) SW 225 0 min 0,000 mm 0,5 UV-I 110 W/m 17,8 C 18,5 C 17,7 km/h (3 Bft) 100,00 %
29.08.2016 17:10 19,7 C 89 % 1017,1 hPa 0,0 l/m 12,0 km/h (2 Bft) SW 218 0 min 0,000 mm 0,5 UV-I 107 W/m 17,8 C 17,7 C 19,3 km/h (3 Bft) 97,87 %
29.08.2016 17:12 19,7 C 89 % 1017,1 hPa 0,0 l/m 9,2 km/h (2 Bft) S-SW 208 0 min 0,000 mm 0,5 UV-I 107 W/m 17,8 C 18,6 C 14,5 km/h (3 Bft) 100,00 %
29.08.2016 17:14 19,8 C 89 % 1017,1 hPa 0,0 l/m 8,1 km/h (2 Bft) S-SW 192 0 min 0,000 mm 0,5 UV-I 110 W/m 17,9 C 19,1 C 14,5 km/h (3 Bft) 100,00 %
29.08.2016 17:16 19,8 C 89 % 1017,1 hPa 0,0 l/m 9,2 km/h (2 Bft) S-SW 209 0 min 0,000 mm 0,5 UV-I 113 W/m 17,9 C 18,7 C 12,9 km/h (3 Bft) 100,00 %
29.08.2016 17:18 19,8 C 89 % 1017,0 hPa 0,0 l/m 8,6 km/h (2 Bft) S-SW 198 0 min 0,000 mm 0,5 UV-I 115 W/m 17,9 C 18,9 C 12,9 km/h (3 Bft) 100,00 %
29.08.2016 17:20 19,8 C 89 % 1017,0 hPa 0,0 l/m 5,8 km/h (2 Bft) S-SW 198 0 min 0,000 mm 0,5 UV-I 118 W/m 17,9 C 19,8 C 11,3 km/h (2 Bft) 100,00 %
29.08.2016 17:22 19,8 C 89 % 1017,0 hPa 0,0 l/m 10,0 km/h (2 Bft) S 184 0 min 0,000 mm 0,5 UV-I 120 W/m 17,9 C 18,4 C 12,9 km/h (3 Bft) 100,00 %
29.08.2016 17:24 19,8 C 88 % 1017,1 hPa 0,0 l/m 9,5 km/h (2 Bft) S 174 0 min 0,000 mm 0,5 UV-I 119 W/m 17,8 C 18,6 C 12,9 km/h (3 Bft) 100,00 %
29.08.2016 17:26 19,8 C 87 % 1017,0 hPa 0,0 l/m 6,8 km/h (2 Bft) S-SO 162 0 min 0,000 mm 0,5 UV-I 114 W/m 17,6 C 19,6 C 12,9 km/h (3 Bft) 98,00 %
29.08.2016 17:28 19,8 C 87 % 1017,0 hPa 0,0 l/m 9,0 km/h (2 Bft) S 178 0 min 0,000 mm 0,5 UV-I 108 W/m 17,6 C 18,8 C 17,7 km/h (3 Bft) 98,00 %
29.08.2016 17:30 19,9 C 87 % 1016,9 hPa 0,0 l/m 8,7 km/h (2 Bft) S-SW 202 0 min 0,000 mm 0,0 UV-I 104 W/m 17,7 C 19,0 C 12,9 km/h (3 Bft) 100,00 %
29.08.2016 17:32 19,9 C 87 % 1017,0 hPa 0,0 l/m 7,9 km/h (2 Bft) S-SW 193 0 min 0,000 mm 0,0 UV-I 100 W/m 17,7 C 19,3 C 12,9 km/h (3 Bft) 100,00 %
29.08.2016 17:34 19,9 C 87 % 1017,0 hPa 0,0 l/m 7,7 km/h (2 Bft) S 189 0 min 0,000 mm 0,0 UV-I 100 W/m 17,7 C 19,4 C 12,9 km/h (3 Bft) 95,74 %
29.08.2016 17:36 19,9 C 87 % 1017,0 hPa 0,0 l/m 7,0 km/h (2 Bft) S-SO 165 0 min 0,000 mm 0,0 UV-I 100 W/m 17,7 C 19,7 C 11,3 km/h (2 Bft) 95,74 %
29.08.2016 17:38 20,0 C 88 % 1017,0 hPa 0,0 l/m 5,9 km/h (2 Bft) S-SW 213 0 min 0,000 mm 0,0 UV-I 98 W/m 17,9 C 20,0 C 8,0 km/h (2 Bft) 98,00 %
29.08.2016 17:40 20,0 C 88 % 1017,0 hPa 0,0 l/m 6,4 km/h (2 Bft) S-SO 167 0 min 0,000 mm 0,0 UV-I 96 W/m 17,9 C 20,0 C 12,9 km/h (3 Bft) 95,74 %
29.08.2016 17:42 19,9 C 87 % 1017,1 hPa 0,0 l/m 8,5 km/h (2 Bft) S-SW 203 0 min 0,000 mm 0,0 UV-I 93 W/m 17,7 C 19,1 C 12,9 km/h (3 Bft) 92,11 %
29.08.2016 17:44 19,9 C 87 % 1017,1 hPa 0,0 l/m 8,3 km/h (2 Bft) S-SW 201 0 min 0,000 mm 0,0 UV-I 90 W/m 17,7 C 19,1 C 16,1 km/h (3 Bft) 95,74 %
29.08.2016 17:46 19,9 C 87 % 1017,1 hPa 0,0 l/m 5,8 km/h (2 Bft) S-SW 193 0 min 0,000 mm 0,0 UV-I 85 W/m 17,7 C 19,9 C 9,7 km/h (2 Bft) 97,87 %
29.08.2016 17:48 19,9 C 87 % 1017,2 hPa 0,0 l/m 5,4 km/h (1 Bft) S-SW 207 0 min 0,000 mm 0,0 UV-I 81 W/m 17,7 C 19,9 C 8,0 km/h (2 Bft) 93,62 %
29.08.2016 17:50 19,9 C 87 % 1017,2 hPa 0,0 l/m 4,3 km/h (1 Bft) S-SW 205 0 min 0,000 mm 0,0 UV-I 77 W/m 17,7 C 19,9 C 8,0 km/h (2 Bft) 97,87 %
29.08.2016 17:52 19,9 C 87 % 1017,2 hPa 0,0 l/m 5,6 km/h (1 Bft) SW 234 0 min 0,000 mm 0,0 UV-I 77 W/m 17,7 C 19,9 C 9,7 km/h (2 Bft) 95,74 %
29.08.2016 17:54 20,0 C 87 % 1017,3 hPa 0,0 l/m 4,7 km/h (1 Bft) S-SW 204 0 min 0,000 mm 0,0 UV-I 76 W/m 17,8 C 20,0 C 8,0 km/h (2 Bft) 95,74 %
29.08.2016 17:56 20,0 C 87 % 1017,2 hPa 0,0 l/m 5,3 km/h (1 Bft) S-SW 192 0 min 0,000 mm 0,0 UV-I 74 W/m 17,8 C 20,0 C 11,3 km/h (2 Bft) 97,87 %
29.08.2016 17:58 20,0 C 87 % 1017,1 hPa 0,0 l/m 6,0 km/h (2 Bft) S 175 0 min 0,000 mm 0,0 UV-I 71 W/m 17,8 C 20,0 C 9,7 km/h (2 Bft) 97,87 %
29.08.2016 18:00 20,0 C 87 % 1017,1 hPa 0,0 l/m 5,7 km/h (1 Bft) S-SW 212 0 min 0,000 mm 0,0 UV-I 69 W/m 17,8 C 20,0 C 9,7 km/h (2 Bft) 97,87 %
29.08.2016 18:02 19,9 C 86 % 1017,2 hPa 0,0 l/m 7,5 km/h (2 Bft) S-SW 212 0 min 0,077 mm 0,0 UV-I 69 W/m 17,5 C 19,4 C 12,9 km/h (3 Bft) 97,92 %
29.08.2016 18:04 19,9 C 86 % 1017,1 hPa 0,0 l/m 6,0 km/h (2 Bft) SW 215 0 min 0,000 mm 0,0 UV-I 69 W/m 17,5 C 19,9 C 11,3 km/h (2 Bft) 95,74 %
29.08.2016 18:06 19,9 C 86 % 1017,1 hPa 0,0 l/m 7,7 km/h (2 Bft) SW 229 0 min 0,000 mm 0,0 UV-I 70 W/m 17,5 C 19,4 C 11,3 km/h (2 Bft) 97,87 %
29.08.2016 18:08 19,9 C 86 % 1017,1 hPa 0,0 l/m 5,7 km/h (1 Bft) S 178 0 min 0,000 mm 0,0 UV-I 72 W/m 17,5 C 19,9 C 11,3 km/h (2 Bft) 97,87 %
29.08.2016 18:10 19,9 C 86 % 1017,1 hPa 0,0 l/m 6,1 km/h (2 Bft) W-SW 244 0 min 0,000 mm 0,0 UV-I 74 W/m 17,5 C 19,9 C 9,7 km/h (2 Bft) 97,87 %
29.08.2016 18:12 19,9 C 86 % 1017,1 hPa 0,0 l/m 6,3 km/h (2 Bft) S-SW 213 0 min 0,000 mm 0,0 UV-I 76 W/m 17,5 C 19,9 C 8,0 km/h (2 Bft) 100,00 %
29.08.2016 18:14 19,9 C 86 % 1017,1 hPa 0,0 l/m 5,9 km/h (2 Bft) S 178 0 min 0,000 mm 0,0 UV-I 76 W/m 17,5 C 19,9 C 9,7 km/h (2 Bft) 100,00 %
29.08.2016 18:16 19,9 C 86 % 1017,1 hPa 0,0 l/m 5,8 km/h (2 Bft) SW 214 0 min 0,000 mm 0,0 UV-I 77 W/m 17,5 C 19,9 C 8,0 km/h (2 Bft) 100,00 %
29.08.2016 18:18 19,8 C 86 % 1017,1 hPa 0,0 l/m 5,9 km/h (2 Bft) SW 217 0 min 0,000 mm 0,0 UV-I 80 W/m 17,4 C 19,8 C 9,7 km/h (2 Bft) 100,00 %
29.08.2016 18:20 19,9 C 86 % 1017,1 hPa 0,0 l/m 4,7 km/h (1 Bft) SW 233 0 min 0,000 mm 0,0 UV-I 81 W/m 17,5 C 19,9 C 8,0 km/h (2 Bft) 97,87 %
29.08.2016 18:22 19,9 C 86 % 1017,1 hPa 0,0 l/m 4,2 km/h (1 Bft) S 191 0 min 0,000 mm 0,0 UV-I 79 W/m 17,5 C 19,9 C 8,0 km/h (2 Bft) 98,00 %
29.08.2016 18:24 19,9 C 86 % 1017,0 hPa 0,0 l/m 5,7 km/h (1 Bft) S-SW 196 0 min 0,000 mm 0,0 UV-I 75 W/m 17,5 C 19,9 C 8,0 km/h (2 Bft) 100,00 %
29.08.2016 18:26 19,9 C 86 % 1017,0 hPa 0,0 l/m 5,3 km/h (1 Bft) W-SW 246 0 min 0,000 mm 0,0 UV-I 68 W/m 17,5 C 19,9 C 9,7 km/h (2 Bft) 98,00 %
29.08.2016 18:28 19,9 C 86 % 1017,1 hPa 0,0 l/m 5,1 km/h (1 Bft) SW 223 0 min 0,000 mm 0,0 UV-I 63 W/m 17,5 C 19,9 C 8,0 km/h (2 Bft) 100,00 %
29.08.2016 18:30 19,9 C 87 % 1017,0 hPa 0,0 l/m 4,9 km/h (1 Bft) SW 227 0 min 0,000 mm 0,0 UV-I 61 W/m 17,7 C 19,9 C 6,4 km/h (2 Bft) 100,00 %
29.08.2016 18:32 19,9 C 87 % 1017,0 hPa 0,0 l/m 4,0 km/h (1 Bft) W-SW 239 0 min 0,000 mm 0,0 UV-I 62 W/m 17,7 C 19,9 C 6,4 km/h (2 Bft) 100,00 %
29.08.2016 18:34 19,8 C 87 % 1017,0 hPa 0,0 l/m 5,2 km/h (1 Bft) W-SW 246 0 min 0,000 mm 0,0 UV-I 64 W/m 17,6 C 19,8 C 8,0 km/h (2 Bft) 100,00 %
29.08.2016 18:36 19,9 C 88 % 1017,0 hPa 0,0 l/m 6,6 km/h (2 Bft) SW 222 0 min 0,000 mm 0,0 UV-I 66 W/m 17,8 C 19,8 C 9,7 km/h (2 Bft) 100,00 %
29.08.2016 18:38 19,8 C 88 % 1017,1 hPa 0,0 l/m 5,5 km/h (1 Bft) S-SW 206 0 min 0,000 mm 0,0 UV-I 69 W/m 17,8 C 19,8 C 8,0 km/h (2 Bft) 100,00 %
29.08.2016 18:40 19,8 C 88 % 1017,0 hPa 0,0 l/m 5,1 km/h (1 Bft) W-SW 240 0 min 0,000 mm 0,0 UV-I 69 W/m 17,8 C 19,8 C 8,0 km/h (2 Bft) 100,00 %
29.08.2016 18:42 19,8 C 88 % 1017,0 hPa 0,0 l/m 5,6 km/h (1 Bft) S-SW 213 0 min 0,000 mm 0,0 UV-I 68 W/m 17,8 C 19,8 C 9,7 km/h (2 Bft) 100,00 %
29.08.2016 18:44 19,8 C 88 % 1017,1 hPa 0,0 l/m 4,9 km/h (1 Bft) S-SW 193 0 min 0,000 mm 0,0 UV-I 65 W/m 17,8 C 19,8 C 8,0 km/h (2 Bft) 100,00 %
29.08.2016 18:46 19,8 C 87 % 1017,1 hPa 0,0 l/m 5,2 km/h (1 Bft) W-SW 242 0 min 0,000 mm 0,0 UV-I 63 W/m 17,6 C 19,8 C 8,0 km/h (2 Bft) 100,00 %
29.08.2016 18:48 19,8 C 88 % 1017,1 hPa 0,0 l/m 5,7 km/h (1 Bft) S-SW 213 0 min 0,000 mm 0,0 UV-I 61 W/m 17,8 C 19,8 C 8,0 km/h (2 Bft) 100,00 %
29.08.2016 18:50 19,8 C 88 % 1017,1 hPa 0,0 l/m 5,3 km/h (1 Bft) SW 229 0 min 0,000 mm 0,0 UV-I 58 W/m 17,8 C 19,8 C 6,4 km/h (2 Bft) 100,00 %
29.08.2016 18:52 19,8 C 88 % 1017,1 hPa 0,0 l/m 5,1 km/h (1 Bft) W-SW 247 0 min 0,000 mm 0,0 UV-I 55 W/m 17,8 C 19,8 C 8,0 km/h (2 Bft) 100,00 %
29.08.2016 18:54 19,8 C 87 % 1017,1 hPa 0,0 l/m 3,7 km/h (1 Bft) W-SW 238 0 min 0,000 mm 0,0 UV-I 51 W/m 17,6 C 19,8 C 6,4 km/h (2 Bft) 100,00 %
29.08.2016 18:56 19,8 C 87 % 1017,1 hPa 0,0 l/m 3,0 km/h (1 Bft) W-SW 243 0 min 0,000 mm 0,0 UV-I 47 W/m 17,6 C 19,8 C 4,8 km/h (1 Bft) 100,00 %
29.08.2016 18:58 19,8 C 87 % 1017,1 hPa 0,0 l/m 3,0 km/h (1 Bft) SW 219 0 min 0,000 mm 0,0 UV-I 44 W/m 17,6 C 19,8 C 4,8 km/h (1 Bft) 100,00 %
29.08.2016 19:00 19,8 C 87 % 1017,1 hPa 0,0 l/m 3,4 km/h (1 Bft) S-SW 204 0 min 0,050 mm 0,0 UV-I 40 W/m 17,6 C 19,8 C 4,8 km/h (1 Bft) 100,00 %
29.08.2016 19:02 19,8 C 88 % 1017,2 hPa 0,0 l/m 2,7 km/h (1 Bft) SW 217 0 min 0,000 mm 0,0 UV-I 36 W/m 17,8 C 19,8 C 4,8 km/h (1 Bft) 100,00 %
29.08.2016 19:04 19,8 C 87 % 1017,2 hPa 0,0 l/m 5,1 km/h (1 Bft) S-SW 202 0 min 0,000 mm 0,0 UV-I 35 W/m 17,6 C 19,8 C 8,0 km/h (2 Bft) 97,87 %
29.08.2016 19:06 19,7 C 87 % 1017,2 hPa 0,0 l/m 5,0 km/h (1 Bft) S-SW 193 0 min 0,000 mm 0,0 UV-I 35 W/m 17,5 C 19,7 C 6,4 km/h (2 Bft) 95,74 %
29.08.2016 19:08 19,7 C 86 % 1017,3 hPa 0,0 l/m 5,2 km/h (1 Bft) S-SW 207 0 min 0,000 mm 0,0 UV-I 29 W/m 17,3 C 19,7 C 6,4 km/h (2 Bft) 97,87 %
29.08.2016 19:10 19,7 C 86 % 1017,4 hPa 0,0 l/m 5,5 km/h (1 Bft) SW 230 0 min 0,000 mm 0,0 UV-I 28 W/m 17,3 C 19,7 C 8,0 km/h (2 Bft) 100,00 %
29.08.2016 19:12 19,7 C 86 % 1017,4 hPa 0,0 l/m 4,7 km/h (1 Bft) S-SW 194 0 min 0,000 mm 0,0 UV-I 30 W/m 17,3 C 19,7 C 8,0 km/h (2 Bft) 97,87 %
29.08.2016 19:14 19,7 C 87 % 1017,3 hPa 0,0 l/m 6,7 km/h (2 Bft) S-SW 198 0 min 0,000 mm 0,0 UV-I 30 W/m 17,5 C 19,6 C 9,7 km/h (2 Bft) 97,87 %
29.08.2016 19:16 19,7 C 86 % 1017,4 hPa 0,0 l/m 4,1 km/h (1 Bft) SW 226 0 min 0,000 mm 0,0 UV-I 32 W/m 17,3 C 19,7 C 6,4 km/h (2 Bft) 97,87 %
29.08.2016 19:18 19,7 C 86 % 1017,4 hPa 0,0 l/m 4,2 km/h (1 Bft) SW 217 0 min 0,000 mm 0,0 UV-I 28 W/m 17,3 C 19,7 C 6,4 km/h (2 Bft) 100,00 %
29.08.2016 19:20 19,7 C 86 % 1017,5 hPa 0,0 l/m 3,5 km/h (1 Bft) SW 224 0 min 0,000 mm 0,0 UV-I 25 W/m 17,3 C 19,7 C 4,8 km/h (1 Bft) 100,00 %
29.08.2016 19:22 19,7 C 86 % 1017,5 hPa 0,0 l/m 4,8 km/h (1 Bft) SW 231 0 min 0,000 mm 0,0 UV-I 25 W/m 17,3 C 19,7 C 6,4 km/h (2 Bft) 97,87 %
29.08.2016 19:24 19,7 C 87 % 1017,6 hPa 0,0 l/m 5,2 km/h (1 Bft) SW 230 0 min 0,000 mm 0,0 UV-I 26 W/m 17,5 C 19,7 C 8,0 km/h (2 Bft) 97,87 %
29.08.2016 19:26 19,6 C 87 % 1017,6 hPa 0,0 l/m 5,0 km/h (1 Bft) SW 231 0 min 0,000 mm 0,0 UV-I 26 W/m 17,4 C 19,6 C 9,7 km/h (2 Bft) 97,92 %
29.08.2016 19:28 19,6 C 87 % 1017,6 hPa 0,0 l/m 5,4 km/h (1 Bft) SW 230 0 min 0,000 mm 0,0 UV-I 23 W/m 17,4 C 19,6 C 6,4 km/h (2 Bft) 100,00 %
29.08.2016 19:30 19,6 C 87 % 1017,6 hPa 0,0 l/m 4,4 km/h (1 Bft) S-SW 212 0 min 0,000 mm 0,0 UV-I 19 W/m 17,4 C 19,6 C 6,4 km/h (2 Bft) 100,00 %
29.08.2016 19:32 19,6 C 87 % 1017,6 hPa 0,0 l/m 5,3 km/h (1 Bft) SW 234 0 min 0,000 mm 0,0 UV-I 16 W/m 17,4 C 19,6 C 6,4 km/h (2 Bft) 100,00 %
29.08.2016 19:34 19,5 C 87 % 1017,6 hPa 0,0 l/m 6,1 km/h (2 Bft) SW 223 0 min 0,000 mm 0,0 UV-I 13 W/m 17,3 C 19,5 C 11,3 km/h (2 Bft) 100,00 %
29.08.2016 19:36 19,5 C 87 % 1017,6 hPa 0,0 l/m 4,9 km/h (1 Bft) SW 221 0 min 0,000 mm 0,0 UV-I 11 W/m 17,3 C 19,5 C 8,0 km/h (2 Bft) 100,00 %
29.08.2016 19:38 19,5 C 88 % 1017,7 hPa 0,0 l/m 5,5 km/h (1 Bft) SW 228 0 min 0,000 mm 0,0 UV-I 9 W/m 17,5 C 19,5 C 9,7 km/h (2 Bft) 93,62 %
29.08.2016 19:40 19,4 C 88 % 1017,7 hPa 0,0 l/m 6,0 km/h (2 Bft) SW 227 0 min 0,000 mm 0,0 UV-I 7 W/m 17,4 C 19,4 C 8,0 km/h (2 Bft) 97,87 %
29.08.2016 19:42 19,4 C 88 % 1017,6 hPa 0,0 l/m 5,8 km/h (2 Bft) SW 232 0 min 0,000 mm 0,0 UV-I 7 W/m 17,4 C 19,4 C 8,0 km/h (2 Bft) 97,87 %
29.08.2016 19:44 19,3 C 88 % 1017,6 hPa 0,0 l/m 4,4 km/h (1 Bft) S-SW 207 0 min 0,000 mm 0,0 UV-I 9 W/m 17,3 C 19,3 C 8,0 km/h (2 Bft) 95,74 %
29.08.2016 19:46 19,3 C 88 % 1017,6 hPa 0,0 l/m 4,3 km/h (1 Bft) SW 224 0 min 0,000 mm 0,0 UV-I 7 W/m 17,3 C 19,3 C 6,4 km/h (2 Bft) 93,62 %
29.08.2016 19:48 19,3 C 88 % 1017,6 hPa 0,0 l/m 5,9 km/h (2 Bft) SW 227 0 min 0,000 mm 0,0 UV-I 7 W/m 17,3 C 19,3 C 11,3 km/h (2 Bft) 97,37 %
29.08.2016 19:50 19,2 C 88 % 1017,6 hPa 0,0 l/m 6,7 km/h (2 Bft) S-SW 213 0 min 0,000 mm 0,0 UV-I 5 W/m 17,2 C 19,1 C 9,7 km/h (2 Bft) 97,87 %
29.08.2016 19:52 19,2 C 87 % 1017,6 hPa 0,0 l/m 5,7 km/h (1 Bft) S-SW 211 0 min 0,000 mm 0,0 UV-I 5 W/m 17,0 C 19,2 C 9,7 km/h (2 Bft) 95,74 %
29.08.2016 19:54 19,2 C 87 % 1017,5 hPa 0,0 l/m 7,3 km/h (2 Bft) S-SW 203 0 min 0,000 mm 0,0 UV-I 5 W/m 17,0 C 18,8 C 11,3 km/h (2 Bft) 97,87 %
29.08.2016 19:56 19,2 C 87 % 1017,5 hPa 0,0 l/m 7,3 km/h (2 Bft) SW 217 0 min 0,000 mm 0,0 UV-I 5 W/m 17,0 C 18,8 C 11,3 km/h (2 Bft) 97,87 %
29.08.2016 19:58 19,2 C 87 % 1017,5 hPa 0,0 l/m 7,5 km/h (2 Bft) SW 231 0 min 0,000 mm 0,0 UV-I 3 W/m 17,0 C 18,7 C 9,7 km/h (2 Bft) 95,74 %
29.08.2016 20:00 19,2 C 87 % 1017,5 hPa 0,0 l/m 5,6 km/h (1 Bft) W-SW 237 0 min 0,026 mm 0,0 UV-I 0 W/m 17,0 C 19,2 C 8,0 km/h (2 Bft) 97,92 %
29.08.2016 20:02 19,1 C 87 % 1017,6 hPa 0,0 l/m 6,3 km/h (2 Bft) SW 219 0 min 0,000 mm 0,0 UV-I 0 W/m 16,9 C 19,1 C 11,3 km/h (2 Bft) 93,62 %
29.08.2016 20:04 19,1 C 87 % 1017,6 hPa 0,0 l/m 6,3 km/h (2 Bft) SW 215 0 min 0,000 mm 0,0 UV-I 0 W/m 16,9 C 19,1 C 9,7 km/h (2 Bft) 93,62 %
29.08.2016 20:06 19,1 C 87 % 1017,6 hPa 0,0 l/m 7,1 km/h (2 Bft) S-SW 209 0 min 0,000 mm 0,0 UV-I 0 W/m 16,9 C 18,8 C 11,3 km/h (2 Bft) 97,87 %
29.08.2016 20:08 19,1 C 86 % 1017,6 hPa 0,0 l/m 6,8 km/h (2 Bft) S-SW 199 0 min 0,000 mm 0,0 UV-I 0 W/m 16,7 C 18,9 C 9,7 km/h (2 Bft) 97,87 %
29.08.2016 20:10 19,0 C 86 % 1017,6 hPa 0,0 l/m 6,3 km/h (2 Bft) S 190 0 min 0,000 mm 0,0 UV-I 0 W/m 16,6 C 19,0 C 9,7 km/h (2 Bft) 97,87 %
29.08.2016 20:12 19,0 C 86 % 1017,6 hPa 0,0 l/m 5,6 km/h (1 Bft) S-SW 197 0 min 0,000 mm 0,0 UV-I 0 W/m 16,6 C 19,0 C 9,7 km/h (2 Bft) 97,87 %
29.08.2016 20:14 18,9 C 86 % 1017,6 hPa 0,0 l/m 5,2 km/h (1 Bft) SW 236 0 min 0,000 mm 0,0 UV-I 0 W/m 16,5 C 18,9 C 8,0 km/h (2 Bft) 100,00 %
29.08.2016 20:16 18,9 C 86 % 1017,6 hPa 0,0 l/m 4,9 km/h (1 Bft) SW 227 0 min 0,000 mm 0,0 UV-I 0 W/m 16,5 C 18,9 C 6,4 km/h (2 Bft) 100,00 %
29.08.2016 20:18 18,9 C 87 % 1017,6 hPa 0,0 l/m 5,6 km/h (1 Bft) W-SW 237 0 min 0,000 mm 0,0 UV-I 0 W/m 16,7 C 18,9 C 6,4 km/h (2 Bft) 100,00 %
29.08.2016 20:20 18,9 C 87 % 1017,7 hPa 0,0 l/m 3,8 km/h (1 Bft) SW 229 0 min 0,000 mm 0,0 UV-I 0 W/m 16,7 C 18,9 C 6,4 km/h (2 Bft) 97,87 %
29.08.2016 20:22 18,8 C 87 % 1017,7 hPa 0,0 l/m 1,8 km/h (1 Bft) SW 229 0 min 0,000 mm 0,0 UV-I 0 W/m 16,6 C 18,8 C 3,2 km/h (1 Bft) 98,00 %
29.08.2016 20:24 18,7 C 88 % 1017,7 hPa 0,0 l/m 3,1 km/h (1 Bft) SW 231 0 min 0,000 mm 0,0 UV-I 0 W/m 16,7 C 18,7 C 6,4 km/h (2 Bft) 97,87 %
29.08.2016 20:26 18,7 C 88 % 1017,8 hPa 0,0 l/m 3,7 km/h (1 Bft) W 267 0 min 0,000 mm 0,0 UV-I 0 W/m 16,7 C 18,7 C 6,4 km/h (2 Bft) 100,00 %
29.08.2016 20:28 18,6 C 88 % 1017,8 hPa 0,0 l/m 2,8 km/h (1 Bft) W-SW 245 0 min 0,000 mm 0,0 UV-I 0 W/m 16,6 C 18,6 C 4,8 km/h (1 Bft) 97,87 %
29.08.2016 20:30 18,6 C 88 % 1017,9 hPa 0,0 l/m 3,9 km/h (1 Bft) SW 218 0 min 0,000 mm 0,0 UV-I 0 W/m 16,6 C 18,6 C 6,4 km/h (2 Bft) 100,00 %
29.08.2016 20:32 18,6 C 89 % 1017,9 hPa 0,0 l/m 2,3 km/h (1 Bft) SW 218 0 min 0,000 mm 0,0 UV-I 0 W/m 16,7 C 18,6 C 4,8 km/h (1 Bft) 98,08 %
29.08.2016 20:34 18,5 C 89 % 1018,0 hPa 0,0 l/m 0,7 km/h (0 Bft) SW 218 0 min 0,000 mm 0,0 UV-I 0 W/m 16,7 C 18,5 C 3,2 km/h (1 Bft) 100,00 %
29.08.2016 20:36 18,4 C 89 % 1018,0 hPa 0,0 l/m 0,1 km/h (0 Bft) SW 218 0 min 0,000 mm 0,0 UV-I 0 W/m 16,6 C 18,4 C 1,6 km/h (1 Bft) 100,00 %
29.08.2016 20:38 18,4 C 89 % 1018,0 hPa 0,0 l/m 1,0 km/h (0 Bft) SW 218 0 min 0,000 mm 0,0 UV-I 0 W/m 16,6 C 18,4 C 1,6 km/h (1 Bft) 100,00 %
29.08.2016 20:40 18,4 C 88 % 1018,1 hPa 0,0 l/m 1,0 km/h (0 Bft) SW 218 0 min 0,000 mm 0,0 UV-I 0 W/m 16,4 C 18,4 C 3,2 km/h (1 Bft) 97,92 %
29.08.2016 20:42 18,4 C 88 % 1018,2 hPa 0,0 l/m 1,6 km/h (1 Bft) SW 218 0 min 0,000 mm 0,0 UV-I 0 W/m 16,4 C 18,4 C 3,2 km/h (1 Bft) 100,00 %
29.08.2016 20:44 18,4 C 88 % 1018,2 hPa 0,0 l/m 2,6 km/h (1 Bft) SW 218 0 min 0,000 mm 0,0 UV-I 0 W/m 16,4 C 18,4 C 4,8 km/h (1 Bft) 100,00 %
29.08.2016 20:46 18,4 C 88 % 1018,2 hPa 0,0 l/m 2,6 km/h (1 Bft) SW 218 0 min 0,000 mm 0,0 UV-I 0 W/m 16,4 C 18,4 C 3,2 km/h (1 Bft) 100,00 %
29.08.2016 20:48 18,4 C 88 % 1018,2 hPa 0,0 l/m 1,8 km/h (1 Bft) S-SW 209 0 min 0,000 mm 0,0 UV-I 0 W/m 16,4 C 18,4 C 4,8 km/h (1 Bft) 100,00 %
29.08.2016 20:50 18,3 C 89 % 1018,2 hPa 0,0 l/m 2,7 km/h (1 Bft) S 188 0 min 0,000 mm 0,0 UV-I 0 W/m 16,5 C 18,3 C 4,8 km/h (1 Bft) 97,87 %
29.08.2016 20:52 18,2 C 89 % 1018,2 hPa 0,0 l/m 3,2 km/h (1 Bft) S 185 0 min 0,000 mm 0,0 UV-I 0 W/m 16,4 C 18,2 C 6,4 km/h (2 Bft) 100,00 %
29.08.2016 20:54 18,1 C 89 % 1018,2 hPa 0,0 l/m 3,6 km/h (1 Bft) S 185 0 min 0,000 mm 0,0 UV-I 0 W/m 16,3 C 18,1 C 6,4 km/h (2 Bft) 100,00 %
29.08.2016 20:56 18,1 C 89 % 1018,2 hPa 0,0 l/m 3,4 km/h (1 Bft) S 186 0 min 0,000 mm 0,0 UV-I 0 W/m 16,3 C 18,1 C 4,8 km/h (1 Bft) 100,00 %
29.08.2016 20:58 18,0 C 89 % 1018,3 hPa 0,0 l/m 2,6 km/h (1 Bft) S 185 0 min 0,000 mm 0,0 UV-I 0 W/m 16,2 C 18,0 C 4,8 km/h (1 Bft) 100,00 %
29.08.2016 21:00 17,9 C 89 % 1018,3 hPa 0,0 l/m 3,7 km/h (1 Bft) S 185 0 min 0,000 mm 0,0 UV-I 0 W/m 16,1 C 17,9 C 6,4 km/h (2 Bft) 100,00 %
29.08.2016 21:02 17,9 C 90 % 1018,3 hPa 0,0 l/m 2,3 km/h (1 Bft) S 185 0 min 0,000 mm 0,0 UV-I 0 W/m 16,2 C 17,9 C 3,2 km/h (1 Bft) 100,00 %
29.08.2016 21:04 17,9 C 90 % 1018,3 hPa 0,0 l/m 2,4 km/h (1 Bft) S 185 0 min 0,000 mm 0,0 UV-I 0 W/m 16,2 C 17,9 C 4,8 km/h (1 Bft) 100,00 %
29.08.2016 21:06 17,9 C 90 % 1018,3 hPa 0,0 l/m 3,2 km/h (1 Bft) S 185 0 min 0,000 mm 0,0 UV-I 0 W/m 16,2 C 17,9 C 6,4 km/h (2 Bft) 100,00 %
29.08.2016 21:08 17,9 C 90 % 1018,3 hPa 0,0 l/m 4,1 km/h (1 Bft) S 187 0 min 0,000 mm 0,0 UV-I 0 W/m 16,2 C 17,9 C 6,4 km/h (2 Bft) 100,00 %
29.08.2016 21:10 17,9 C 90 % 1018,4 hPa 0,0 l/m 4,3 km/h (1 Bft) S 184 0 min 0,000 mm 0,0 UV-I 0 W/m 16,2 C 17,9 C 6,4 km/h (2 Bft) 100,00 %
29.08.2016 21:12 17,9 C 90 % 1018,4 hPa 0,0 l/m 4,5 km/h (1 Bft) S 184 0 min 0,000 mm 0,0 UV-I 0 W/m 16,2 C 17,9 C 6,4 km/h (2 Bft) 97,87 %
29.08.2016 21:14 17,9 C 90 % 1018,4 hPa 0,0 l/m 4,4 km/h (1 Bft) S 184 0 min 0,000 mm 0,0 UV-I 0 W/m 16,2 C 17,9 C 6,4 km/h (2 Bft) 97,87 %
29.08.2016 21:16 17,9 C 90 % 1018,4 hPa 0,0 l/m 3,7 km/h (1 Bft) S 184 0 min 0,000 mm 0,0 UV-I 0 W/m 16,2 C 17,9 C 4,8 km/h (1 Bft) 98,00 %
29.08.2016 21:18 17,8 C 90 % 1018,5 hPa 0,0 l/m 3,3 km/h (1 Bft) S-SW 207 0 min 0,000 mm 0,0 UV-I 0 W/m 16,1 C 17,8 C 4,8 km/h (1 Bft) 97,87 %
29.08.2016 21:20 17,8 C 91 % 1018,5 hPa 0,0 l/m 4,6 km/h (1 Bft) S-SW 202 0 min 0,000 mm 0,0 UV-I 0 W/m 16,3 C 17,8 C 6,4 km/h (2 Bft) 95,83 %
29.08.2016 21:22 17,8 C 91 % 1018,5 hPa 0,0 l/m 2,8 km/h (1 Bft) S-SW 202 0 min 0,000 mm 0,0 UV-I 0 W/m 16,3 C 17,8 C 4,8 km/h (1 Bft) 100,00 %
29.08.2016 21:24 17,8 C 91 % 1018,5 hPa 0,0 l/m 3,5 km/h (1 Bft) S-SW 202 0 min 0,000 mm 0,0 UV-I 0 W/m 16,3 C 17,8 C 4,8 km/h (1 Bft) 97,37 %
29.08.2016 21:26 17,8 C 91 % 1018,6 hPa 0,0 l/m 4,0 km/h (1 Bft) S-SW 202 0 min 0,000 mm 0,0 UV-I 0 W/m 16,3 C 17,8 C 4,8 km/h (1 Bft) 100,00 %
29.08.2016 21:28 17,8 C 91 % 1018,7 hPa 0,0 l/m 4,9 km/h (1 Bft) S-SW 205 0 min 0,000 mm 0,0 UV-I 0 W/m 16,3 C 17,8 C 8,0 km/h (2 Bft) 100,00 %
29.08.2016 21:30 17,8 C 91 % 1018,7 hPa 0,0 l/m 4,5 km/h (1 Bft) S 189 0 min 0,000 mm 0,0 UV-I 0 W/m 16,3 C 17,8 C 4,8 km/h (1 Bft) 95,74 %
29.08.2016 21:32 17,8 C 92 % 1018,7 hPa 0,0 l/m 5,8 km/h (2 Bft) S 191 0 min 0,000 mm 0,0 UV-I 0 W/m 16,5 C 17,8 C 8,0 km/h (2 Bft) 97,87 %
29.08.2016 21:34 17,8 C 92 % 1018,6 hPa 0,0 l/m 6,1 km/h (2 Bft) SW 214 0 min 0,000 mm 0,0 UV-I 0 W/m 16,5 C 17,8 C 9,7 km/h (2 Bft) 100,00 %
29.08.2016 21:36 17,8 C 92 % 1018,6 hPa 0,0 l/m 5,4 km/h (1 Bft) S-SW 207 0 min 0,000 mm 0,0 UV-I 0 W/m 16,5 C 17,8 C 8,0 km/h (2 Bft) 100,00 %
29.08.2016 21:38 17,9 C 92 % 1018,6 hPa 0,0 l/m 4,5 km/h (1 Bft) S-SW 192 0 min 0,000 mm 0,0 UV-I 0 W/m 16,6 C 17,9 C 6,4 km/h (2 Bft) 95,74 %
29.08.2016 21:40 17,9 C 92 % 1018,6 hPa 0,0 l/m 2,6 km/h (1 Bft) S-SW 192 0 min 0,000 mm 0,0 UV-I 0 W/m 16,6 C 17,9 C 4,8 km/h (1 Bft) 97,87 %
29.08.2016 21:42 17,9 C 92 % 1018,6 hPa 0,0 l/m 2,8 km/h (1 Bft) S-SW 192 0 min 0,000 mm 0,0 UV-I 0 W/m 16,6 C 17,9 C 4,8 km/h (1 Bft) 98,00 %
29.08.2016 21:44 17,9 C 92 % 1018,6 hPa 0,0 l/m 4,0 km/h (1 Bft) S-SW 196 0 min 0,000 mm 0,0 UV-I 0 W/m 16,6 C 17,9 C 4,8 km/h (1 Bft) 95,74 %
29.08.2016 21:46 17,9 C 92 % 1018,7 hPa 0,0 l/m 4,6 km/h (1 Bft) S-SW 201 0 min 0,000 mm 0,0 UV-I 0 W/m 16,6 C 17,9 C 6,4 km/h (2 Bft) 97,87 %
29.08.2016 21:48 17,9 C 92 % 1018,7 hPa 0,0 l/m 4,2 km/h (1 Bft) S-SW 209 0 min 0,000 mm 0,0 UV-I 0 W/m 16,6 C 17,9 C 6,4 km/h (2 Bft) 95,74 %
29.08.2016 21:50 17,9 C 92 % 1018,7 hPa 0,0 l/m 5,0 km/h (1 Bft) S-SW 203 0 min 0,000 mm 0,0 UV-I 0 W/m 16,6 C 17,9 C 6,4 km/h (2 Bft) 96,00 %
29.08.2016 21:52 17,9 C 92 % 1018,7 hPa 0,0 l/m 5,0 km/h (1 Bft) SW 215 0 min 0,000 mm 0,0 UV-I 0 W/m 16,6 C 17,9 C 6,4 km/h (2 Bft) 97,22 %
29.08.2016 21:54 17,9 C 92 % 1018,7 hPa 0,0 l/m 4,3 km/h (1 Bft) SW 215 0 min 0,000 mm 0,0 UV-I 0 W/m 16,6 C 17,9 C 6,4 km/h (2 Bft) 97,87 %
29.08.2016 21:56 17,9 C 92 % 1018,7 hPa 0,0 l/m 3,9 km/h (1 Bft) SW 215 0 min 0,000 mm 0,0 UV-I 0 W/m 16,6 C 17,9 C 6,4 km/h (2 Bft) 97,87 %
29.08.2016 21:58 17,8 C 92 % 1018,7 hPa 0,0 l/m 4,3 km/h (1 Bft) S-SW 208 0 min 0,000 mm 0,0 UV-I 0 W/m 16,5 C 17,8 C 6,4 km/h (2 Bft) 95,74 %
29.08.2016 22:00 17,8 C 92 % 1018,8 hPa 0,0 l/m 5,7 km/h (1 Bft) S 176 0 min 0,000 mm 0,0 UV-I 0 W/m 16,5 C 17,8 C 8,0 km/h (2 Bft) 97,87 %
29.08.2016 22:02 17,8 C 92 % 1018,8 hPa 0,0 l/m 5,1 km/h (1 Bft) S 185 0 min 0,000 mm 0,0 UV-I 0 W/m 16,5 C 17,8 C 6,4 km/h (2 Bft) 98,00 %
29.08.2016 22:04 17,8 C 92 % 1018,8 hPa 0,0 l/m 5,1 km/h (1 Bft) S-SW 195 0 min 0,000 mm 0,0 UV-I 0 W/m 16,5 C 17,8 C 6,4 km/h (2 Bft) 95,74 %
29.08.2016 22:06 17,8 C 92 % 1018,8 hPa 0,0 l/m 5,8 km/h (2 Bft) S-SW 201 0 min 0,000 mm 0,0 UV-I 0 W/m 16,5 C 17,8 C 8,0 km/h (2 Bft) 95,74 %
29.08.2016 22:08 17,8 C 92 % 1018,9 hPa 0,0 l/m 5,9 km/h (2 Bft) S 184 0 min 0,000 mm 0,0 UV-I 0 W/m 16,5 C 17,8 C 9,7 km/h (2 Bft) 97,87 %
29.08.2016 22:10 17,8 C 92 % 1018,9 hPa 0,0 l/m 7,4 km/h (2 Bft) S-SW 195 0 min 0,000 mm 0,0 UV-I 0 W/m 16,5 C 17,3 C 11,3 km/h (2 Bft) 95,74 %
29.08.2016 22:12 17,8 C 92 % 1018,9 hPa 0,0 l/m 5,7 km/h (1 Bft) S 188 0 min 0,000 mm 0,0 UV-I 0 W/m 16,5 C 17,8 C 9,7 km/h (2 Bft) 100,00 %
29.08.2016 22:14 17,9 C 92 % 1018,9 hPa 0,0 l/m 4,0 km/h (1 Bft) S 183 0 min 0,000 mm 0,0 UV-I 0 W/m 16,6 C 17,9 C 4,8 km/h (1 Bft) 97,87 %
29.08.2016 22:16 17,9 C 92 % 1018,9 hPa 0,0 l/m 3,1 km/h (1 Bft) S 187 0 min 0,000 mm 0,0 UV-I 0 W/m 16,6 C 17,9 C 6,4 km/h (2 Bft) 95,74 %
29.08.2016 22:18 17,9 C 92 % 1018,9 hPa 0,0 l/m 4,4 km/h (1 Bft) S 180 0 min 0,000 mm 0,0 UV-I 0 W/m 16,6 C 17,9 C 6,4 km/h (2 Bft) 100,00 %
29.08.2016 22:20 17,9 C 92 % 1019,0 hPa 0,0 l/m 2,8 km/h (1 Bft) S 180 0 min 0,000 mm 0,0 UV-I 0 W/m 16,6 C 17,9 C 4,8 km/h (1 Bft) 97,87 %
29.08.2016 22:22 17,8 C 92 % 1019,0 hPa 0,0 l/m 3,2 km/h (1 Bft) S 180 0 min 0,000 mm 0,0 UV-I 0 W/m 16,5 C 17,8 C 4,8 km/h (1 Bft) 100,00 %
29.08.2016 22:24 17,8 C 92 % 1019,0 hPa 0,0 l/m 3,5 km/h (1 Bft) S 180 0 min 0,000 mm 0,0 UV-I 0 W/m 16,5 C 17,8 C 4,8 km/h (1 Bft) 100,00 %
29.08.2016 22:26 17,8 C 92 % 1019,0 hPa 0,0 l/m 3,7 km/h (1 Bft) S 180 0 min 0,000 mm 0,0 UV-I 0 W/m 16,5 C 17,8 C 4,8 km/h (1 Bft) 97,87 %
29.08.2016 22:28 17,8 C 92 % 1019,0 hPa 0,0 l/m 4,1 km/h (1 Bft) S 179 0 min 0,000 mm 0,0 UV-I 0 W/m 16,5 C 17,8 C 8,0 km/h (2 Bft) 100,00 %
29.08.2016 22:30 17,8 C 91 % 1019,0 hPa 0,0 l/m 2,1 km/h (1 Bft) S 179 0 min 0,000 mm 0,0 UV-I 0 W/m 16,3 C 17,8 C 4,8 km/h (1 Bft) 100,00 %
29.08.2016 22:32 17,8 C 92 % 1019,1 hPa 0,0 l/m 1,8 km/h (1 Bft) S 179 0 min 0,000 mm 0,0 UV-I 0 W/m 16,5 C 17,8 C 3,2 km/h (1 Bft) 100,00 %
29.08.2016 22:34 17,8 C 92 % 1019,1 hPa 0,0 l/m 0,3 km/h (0 Bft) S 179 0 min 0,000 mm 0,0 UV-I 0 W/m 16,5 C 17,8 C 1,6 km/h (1 Bft) 97,87 %
29.08.2016 22:36 17,8 C 91 % 1019,1 hPa 0,0 l/m 0,0 km/h (0 Bft) S 179 0 min 0,000 mm 0,0 UV-I 0 W/m 16,3 C 17,8 C 0,0 km/h (0 Bft) 97,87 %
29.08.2016 22:38 17,7 C 91 % 1019,1 hPa 0,0 l/m 0,0 km/h (0 Bft) S 179 0 min 0,000 mm 0,0 UV-I 0 W/m 16,2 C 17,7 C 0,0 km/h (0 Bft) 100,00 %
29.08.2016 22:40 17,7 C 92 % 1019,1 hPa 0,0 l/m 0,0 km/h (0 Bft) S 179 0 min 0,000 mm 0,0 UV-I 0 W/m 16,4 C 17,7 C 0,0 km/h (0 Bft) 100,00 %
29.08.2016 22:42 17,6 C 92 % 1019,1 hPa 0,0 l/m 0,0 km/h (0 Bft) S 179 0 min 0,000 mm 0,0 UV-I 0 W/m 16,3 C 17,6 C 0,0 km/h (0 Bft) 100,00 %
29.08.2016 22:44 17,6 C 92 % 1019,1 hPa 0,0 l/m 0,0 km/h (0 Bft) S 179 0 min 0,000 mm 0,0 UV-I 0 W/m 16,3 C 17,6 C 0,0 km/h (0 Bft) 100,00 %
29.08.2016 22:46 17,6 C 92 % 1019,2 hPa 0,0 l/m 0,7 km/h (0 Bft) S 179 0 min 0,000 mm 0,0 UV-I 0 W/m 16,3 C 17,6 C 3,2 km/h (1 Bft) 100,00 %
29.08.2016 22:48 17,6 C 92 % 1019,2 hPa 0,0 l/m 0,6 km/h (0 Bft) S 179 0 min 0,000 mm 0,0 UV-I 0 W/m 16,3 C 17,6 C 1,6 km/h (1 Bft) 100,00 %
29.08.2016 22:50 17,5 C 92 % 1019,2 hPa 0,0 l/m 1,9 km/h (1 Bft) S 179 0 min 0,000 mm 0,0 UV-I 0 W/m 16,2 C 17,5 C 3,2 km/h (1 Bft) 100,00 %
29.08.2016 22:52 17,6 C 92 % 1019,2 hPa 0,0 l/m 0,8 km/h (0 Bft) S 179 0 min 0,000 mm 0,0 UV-I 0 W/m 16,3 C 17,6 C 3,2 km/h (1 Bft) 100,00 %
29.08.2016 22:54 17,5 C 92 % 1019,2 hPa 0,0 l/m 0,2 km/h (0 Bft) S 179 0 min 0,000 mm 0,0 UV-I 0 W/m 16,2 C 17,5 C 1,6 km/h (1 Bft) 100,00 %
29.08.2016 22:56 17,4 C 92 % 1019,3 hPa 0,0 l/m 0,0 km/h (0 Bft) S 179 0 min 0,000 mm 0,0 UV-I 0 W/m 16,1 C 17,4 C 0,0 km/h (0 Bft) 100,00 %
29.08.2016 22:58 17,4 C 92 % 1019,3 hPa 0,0 l/m 0,0 km/h (0 Bft) S 179 0 min 0,000 mm 0,0 UV-I 0 W/m 16,1 C 17,4 C 0,0 km/h (0 Bft) 97,87 %
29.08.2016 23:00 17,3 C 93 % 1019,3 hPa 0,0 l/m 0,0 km/h (0 Bft) S 179 0 min 0,000 mm 0,0 UV-I 0 W/m 16,2 C 17,3 C 0,0 km/h (0 Bft) 100,00 %
29.08.2016 23:02 17,3 C 93 % 1019,3 hPa 0,0 l/m 0,1 km/h (0 Bft) S 179 0 min 0,000 mm 0,0 UV-I 0 W/m 16,2 C 17,3 C 1,6 km/h (1 Bft) 97,87 %
29.08.2016 23:04 17,3 C 93 % 1019,3 hPa 0,0 l/m 2,6 km/h (1 Bft) S 178 0 min 0,000 mm 0,0 UV-I 0 W/m 16,2 C 17,3 C 4,8 km/h (1 Bft) 100,00 %
29.08.2016 23:06 17,3 C 93 % 1019,3 hPa 0,0 l/m 5,3 km/h (1 Bft) SO 140 0 min 0,000 mm 0,0 UV-I 0 W/m 16,2 C 17,3 C 8,0 km/h (2 Bft) 100,00 %
29.08.2016 23:08 17,2 C 93 % 1019,4 hPa 0,0 l/m 3,9 km/h (1 Bft) S-SO 152 0 min 0,000 mm 0,0 UV-I 0 W/m 16,1 C 17,2 C 6,4 km/h (2 Bft) 98,00 %
29.08.2016 23:10 17,2 C 92 % 1019,4 hPa 0,0 l/m 2,3 km/h (1 Bft) SO 146 0 min 0,000 mm 0,0 UV-I 0 W/m 15,9 C 17,2 C 6,4 km/h (2 Bft) 97,87 %
29.08.2016 23:12 17,2 C 93 % 1019,4 hPa 0,0 l/m 2,9 km/h (1 Bft) S-SO 153 0 min 0,000 mm 0,0 UV-I 0 W/m 16,1 C 17,2 C 6,4 km/h (2 Bft) 97,22 %
29.08.2016 23:14 17,2 C 93 % 1019,4 hPa 0,0 l/m 1,4 km/h (1 Bft) S-SO 153 0 min 0,000 mm 0,0 UV-I 0 W/m 16,1 C 17,2 C 3,2 km/h (1 Bft) 98,00 %
29.08.2016 23:16 17,2 C 93 % 1019,4 hPa 0,0 l/m 0,8 km/h (0 Bft) S-SO 153 0 min 0,000 mm 0,0 UV-I 0 W/m 16,1 C 17,2 C 3,2 km/h (1 Bft) 100,00 %
29.08.2016 23:18 17,2 C 93 % 1019,4 hPa 0,0 l/m 2,6 km/h (1 Bft) S-SO 153 0 min 0,000 mm 0,0 UV-I 0 W/m 16,1 C 17,2 C 3,2 km/h (1 Bft) 100,00 %
29.08.2016 23:20 17,2 C 93 % 1019,4 hPa 0,0 l/m 1,6 km/h (1 Bft) S-SO 153 0 min 0,000 mm 0,0 UV-I 0 W/m 16,1 C 17,2 C 3,2 km/h (1 Bft) 97,87 %
29.08.2016 23:22 17,2 C 93 % 1019,4 hPa 0,0 l/m 1,9 km/h (1 Bft) S-SO 153 0 min 0,000 mm 0,0 UV-I 0 W/m 16,1 C 17,2 C 3,2 km/h (1 Bft) 100,00 %
29.08.2016 23:24 17,2 C 93 % 1019,4 hPa 0,0 l/m 2,0 km/h (1 Bft) S-SO 155 0 min 0,000 mm 0,0 UV-I 0 W/m 16,1 C 17,2 C 4,8 km/h (1 Bft) 97,87 %
29.08.2016 23:26 17,2 C 93 % 1019,4 hPa 0,0 l/m 2,0 km/h (1 Bft) S-SO 155 0 min 0,000 mm 0,0 UV-I 0 W/m 16,1 C 17,2 C 3,2 km/h (1 Bft) 100,00 %
29.08.2016 23:28 17,2 C 93 % 1019,4 hPa 0,0 l/m 2,1 km/h (1 Bft) S-SO 163 0 min 0,000 mm 0,0 UV-I 0 W/m 16,1 C 17,2 C 6,4 km/h (2 Bft) 97,87 %
29.08.2016 23:30 17,2 C 93 % 1019,5 hPa 0,0 l/m 2,0 km/h (1 Bft) S-SO 155 0 min 0,000 mm 0,0 UV-I 0 W/m 16,1 C 17,2 C 6,4 km/h (2 Bft) 100,00 %
29.08.2016 23:32 17,2 C 93 % 1019,5 hPa 0,0 l/m 2,5 km/h (1 Bft) S-SO 164 0 min 0,000 mm 0,0 UV-I 0 W/m 16,1 C 17,2 C 6,4 km/h (2 Bft) 97,87 %
29.08.2016 23:34 17,2 C 93 % 1019,5 hPa 0,0 l/m 2,5 km/h (1 Bft) S 171 0 min 0,000 mm 0,0 UV-I 0 W/m 16,1 C 17,2 C 8,0 km/h (2 Bft) 100,00 %
29.08.2016 23:36 17,3 C 93 % 1019,5 hPa 0,0 l/m 4,2 km/h (1 Bft) S 182 0 min 0,000 mm 0,0 UV-I 0 W/m 16,2 C 17,3 C 8,0 km/h (2 Bft) 95,74 %
29.08.2016 23:38 17,2 C 93 % 1019,5 hPa 0,0 l/m 4,2 km/h (1 Bft) S 188 0 min 0,000 mm 0,0 UV-I 0 W/m 16,1 C 17,2 C 8,0 km/h (2 Bft) 98,00 %
29.08.2016 23:40 17,3 C 93 % 1019,5 hPa 0,0 l/m 3,3 km/h (1 Bft) S 179 0 min 0,000 mm 0,0 UV-I 0 W/m 16,2 C 17,3 C 6,4 km/h (2 Bft) 95,74 %
29.08.2016 23:42 17,3 C 93 % 1019,5 hPa 0,0 l/m 4,0 km/h (1 Bft) S 182 0 min 0,000 mm 0,0 UV-I 0 W/m 16,2 C 17,3 C 6,4 km/h (2 Bft) 97,87 %
29.08.2016 23:44 17,3 C 93 % 1019,5 hPa 0,0 l/m 2,4 km/h (1 Bft) S 181 0 min 0,000 mm 0,0 UV-I 0 W/m 16,2 C 17,3 C 8,0 km/h (2 Bft) 95,74 %
29.08.2016 23:46 17,3 C 93 % 1019,4 hPa 0,0 l/m 3,6 km/h (1 Bft) S 177 0 min 0,000 mm 0,0 UV-I 0 W/m 16,2 C 17,3 C 6,4 km/h (2 Bft) 95,74 %
29.08.2016 23:48 17,3 C 93 % 1019,4 hPa 0,0 l/m 4,9 km/h (1 Bft) S 170 0 min 0,000 mm 0,0 UV-I 0 W/m 16,2 C 17,3 C 6,4 km/h (2 Bft) 95,74 %
29.08.2016 23:50 17,3 C 93 % 1019,5 hPa 0,0 l/m 4,6 km/h (1 Bft) S-SW 195 0 min 0,000 mm 0,0 UV-I 0 W/m 16,2 C 17,3 C 8,0 km/h (2 Bft) 97,87 %
29.08.2016 23:52 17,2 C 92 % 1019,4 hPa 0,0 l/m 6,2 km/h (2 Bft) S 187 0 min 0,000 mm 0,0 UV-I 0 W/m 15,9 C 17,2 C 11,3 km/h (2 Bft) 97,92 %
29.08.2016 23:54 17,3 C 92 % 1019,4 hPa 0,0 l/m 8,2 km/h (2 Bft) S 185 0 min 0,000 mm 0,0 UV-I 0 W/m 16,0 C 16,4 C 11,3 km/h (2 Bft) 97,87 %
29.08.2016 23:56 17,3 C 92 % 1019,4 hPa 0,0 l/m 6,7 km/h (2 Bft) S 181 0 min 0,000 mm 0,0 UV-I 0 W/m 16,0 C 17,2 C 11,3 km/h (2 Bft) 97,44 %
29.08.2016 23:58 17,3 C 92 % 1019,4 hPa 0,0 l/m 6,1 km/h (2 Bft) S 188 0 min 0,000 mm 0,0 UV-I 0 W/m 16,0 C 17,3 C 8,0 km/h (2 Bft) 97,87 %
_ Min-Zeit 23:08 12:06 05:16 - 02:48 - - - - - - 09:40 23:54 02:48 02:10
Minimum _ 17,2 C 70 % 1013,2 hPa - 0,0 km/h (0 Bft) - - - - - - 15,8 C 16,4 C 0,0 km/h (0 Bft) 89,36 %
_ Max-Zeit 12:30 23:00 23:30 09:36 08:10 - - 07:46 12:00 12:26 13:28 12:26 12:28 08:10 00:00
Maximum _ 23,9 C 93 % 1019,5 hPa 0,2 l/m 17,9 km/h
W-SW (3 Bft)
- - 2 min 0,304 mm 4,9 UV-I 897 W/m 18,9 C 23,8 C 27,4 km/h
W (4 Bft)
100,00 %
Durchschnitt _ 20,3 C 85 % 1016,2 hPa #2,4 l/m 4,7 km/h (1 Bft) S-SW - #1:48 h #1,702 mm 1,9 UV-I 180 W/m 17,6 C 20,0 C 8,1 km/h (2 Bft) 98,44 %